[[{"header":{"parameterUnit":"m.s-1","parameterCategory":1,"la1":30.6,"la2":29.2853,"lo1":-89.7004,"lo2":-87.6739,"dy":0.0162,"dx":0.0183,"nx":112,"ny":82,"refTime":"2023-10-10T00:00:00:Z","depth":0,"parameterNumber":2,"parameterNumberName":"U-component_of_WINDS"},"data":[0.0,0.0,0.0,0.0,0.0,0.0,0.0,0.0,0.0,0.0,0.0,0.0,0.0,0.0,0.0,0.0,0.0,0.0,0.0,0.0,0.0,0.0,0.0,0.0,0.0,0.0,0.0,0.0,0.0,0.0,0.0,0.0,0.0,0.0,0.0,0.0,0.0,0.0,0.0,0.0,0.0,0.0,0.0,0.0,0.0,0.0,0.0,0.0,0.0,0.0,0.0,0.0,0.0,0.0,0.0,0.0,0.0,0.0,0.0,0.0,0.0,0.0,0.0,0.0,0.0,0.0,0.0,0.0,0.0,0.0,0.0,0.0,0.0,0.0,0.0,0.0,0.0,0.0,0.0,0.0,0.0,0.0,0.0,0.0,0.0,0.0,0.0,0.0,0.0,0.0,-0.7626,-0.8115,-0.8826,-0.934,-0.9496,-0.9316,-0.9562,-1.0345,0.0,0.0,0.0,0.0,0.0,0.0,0.0,0.0,0.0,0.0,0.0,0.0,0.0,0.0,0.0,0.0,0.0,0.0,0.0,0.0,0.0,0.0,0.0,0.0,0.0,0.0,0.0,0.0,0.0,0.0,0.0,0.0,0.0,0.0,0.0,0.0,0.0,0.0,0.0,0.0,0.0,0.0,0.0,0.0,0.0,0.0,0.0,0.0,0.0,0.0,0.0,0.0,0.0,0.0,0.0,0.0,0.0,0.0,0.0,0.0,0.0,0.0,0.0,0.0,0.0,0.0,0.0,0.0,0.0,0.0,0.0,0.0,0.0,0.0,0.0,0.0,0.0,0.0,0.0,0.0,0.0,0.0,0.0,0.0,0.0,0.0,0.0,0.0,0.0,0.0,0.0,0.0,0.0,0.0,0.0,0.0,0.0,0.0,0.0,0.0,0.0,0.0,0.0,0.0,-0.7959,-0.89,-0.9429,-1.0231,-1.1622,-1.132,-1.1751,-1.3393,0.0,0.0,0.0,0.0,0.0,0.0,0.0,0.0,0.0,0.0,0.0,0.0,0.0,0.0,0.0,0.0,0.0,0.0,0.0,0.0,0.0,0.0,0.0,0.0,0.0,0.0,0.0,0.0,0.0,0.0,0.0,0.0,0.0,0.0,0.0,0.0,0.0,0.0,0.0,0.0,0.0,0.0,0.0,0.0,0.0,0.0,0.0,0.0,0.0,0.0,0.0,0.0,0.0,0.0,0.0,0.0,0.0,0.0,0.0,0.0,0.0,0.0,0.0,0.0,0.0,0.0,0.0,0.0,0.0,0.0,0.0,0.0,0.0,0.0,0.0,0.0,0.0,0.0,0.0,0.0,0.0,0.0,0.0,0.0,0.0,0.0,0.0,0.0,0.0,0.0,0.0,0.0,0.0,0.0,0.0,0.0,0.0,0.0,0.0,0.0,0.0,0.0,0.0,-0.8437,-0.9082,-1.0219,-1.0844,-1.1608,-1.283,-1.2631,-1.3004,-1.4293,-1.3605,0.0,0.0,0.0,0.0,0.0,0.0,0.0,0.0,0.0,0.0,0.0,0.0,0.0,0.0,0.0,0.0,0.0,0.0,0.0,0.0,0.0,0.0,0.0,0.0,0.0,0.0,0.0,0.0,0.0,0.0,0.0,0.0,0.0,0.0,0.0,0.0,0.0,0.0,0.0,0.0,0.0,0.0,0.0,0.0,0.0,0.0,0.0,0.0,0.0,0.0,0.0,0.0,0.0,0.0,0.0,0.0,0.0,0.0,0.0,0.0,0.0,0.0,0.0,0.0,0.0,0.0,0.0,0.0,0.0,0.0,0.0,0.0,0.0,0.0,0.0,0.0,0.0,0.0,0.0,0.0,0.0,0.0,0.0,0.0,0.0,0.0,0.0,0.0,0.0,0.0,0.0,0.0,0.0,0.0,0.0,0.0,0.0,0.0,0.0,0.0,0.0,0.0,-0.9544,-1.0378,-1.132,-1.2095,-1.295,-1.3966,-1.3893,-1.4184,-1.5038,-1.5208,0.0,0.0,0.0,0.0,0.0,0.0,0.0,0.0,0.0,0.0,0.0,0.0,0.0,0.0,0.0,0.0,0.0,0.0,0.0,0.0,0.0,0.0,0.0,0.0,0.0,0.0,0.0,0.0,0.0,0.0,0.0,0.0,0.0,0.0,0.0,0.0,0.0,0.0,0.0,0.0,0.0,0.0,0.0,0.0,0.0,0.0,0.0,0.0,0.0,0.0,0.0,0.0,0.0,0.0,0.0,0.0,0.0,0.0,0.0,0.0,0.0,0.0,0.0,0.0,0.0,0.0,0.0,0.0,0.0,0.0,0.0,0.0,0.0,0.0,0.0,0.0,0.0,0.0,0.0,0.0,0.0,0.0,0.0,0.0,0.0,0.0,0.0,0.0,0.0,0.0,0.0,0.0,0.0,0.0,0.0,0.0,0.0,0.0,0.0,0.0,0.0,0.0,-1.0983,-1.132,-1.1724,-1.2748,-1.3971,-1.5433,-1.5358,-1.5733,-1.6834,-1.6869,0.0,0.0,0.0,0.0,0.0,0.0,0.0,0.0,0.0,0.0,0.0,0.0,0.0,0.0,0.0,0.0,0.0,0.0,0.0,0.0,0.0,0.0,0.0,0.0,0.0,0.0,0.0,0.0,0.0,0.0,0.0,0.0,0.0,0.0,0.0,0.0,0.0,0.0,0.0,0.0,0.0,0.0,0.0,0.0,0.0,0.0,0.0,0.0,0.0,0.0,0.0,0.0,0.0,0.0,0.0,0.0,0.0,0.0,0.0,0.0,0.0,0.0,0.0,0.0,0.0,0.0,0.0,0.0,0.0,0.0,0.0,0.0,0.0,0.0,0.0,0.0,0.0,0.0,0.0,0.0,0.0,0.0,0.0,0.0,0.0,0.0,0.0,0.0,0.0,0.0,0.0,0.0,0.0,0.0,0.0,0.0,0.0,0.0,0.0,0.0,0.0,0.0,-1.2543,-1.3272,-1.3951,-1.4888,-1.5909,-1.7062,-1.7213,-1.7356,-1.7597,0.0,0.0,0.0,0.0,0.0,0.0,0.0,0.0,0.0,0.0,0.0,0.0,0.0,0.0,0.0,0.0,0.0,0.0,0.0,0.0,0.0,0.0,0.0,0.0,0.0,0.0,0.0,0.0,0.0,0.0,0.0,0.0,0.0,0.0,0.0,0.0,0.0,0.0,0.0,0.0,0.0,0.0,0.0,0.0,0.0,0.0,0.0,0.0,0.0,0.0,0.0,0.0,0.0,0.0,0.0,0.0,0.0,0.0,0.0,0.0,0.0,0.0,0.0,0.0,0.0,0.0,0.0,0.0,0.0,0.0,0.0,0.0,0.0,0.0,0.0,0.0,0.0,0.0,0.0,0.0,0.0,0.0,0.0,0.0,0.0,0.0,0.0,0.0,0.0,0.0,0.0,0.0,0.0,0.0,0.0,0.0,0.0,0.0,0.0,0.0,0.0,0.0,-1.3335,-1.4087,-1.4859,-1.5607,-1.6555,-1.7409,-1.8083,-1.8195,-1.8164,-1.7896,0.0,0.0,0.0,0.0,0.0,0.0,0.0,0.0,0.0,0.0,0.0,0.0,0.0,0.0,0.0,0.0,0.0,0.0,0.0,0.0,0.0,0.0,0.0,0.0,0.0,0.0,0.0,0.0,0.0,0.0,0.0,0.0,0.0,0.0,0.0,0.0,0.0,0.0,0.0,0.0,0.0,0.0,0.0,0.0,0.0,0.0,0.0,0.0,0.0,0.0,0.0,0.0,0.0,0.0,0.0,0.0,0.0,0.0,0.0,0.0,0.0,0.0,0.0,0.0,0.0,0.0,0.0,0.0,0.0,0.0,0.0,0.0,0.0,0.0,0.0,0.0,0.0,0.0,0.0,0.0,0.0,0.0,0.0,0.0,0.0,0.0,0.0,0.0,0.0,0.0,0.0,0.0,0.0,0.0,0.0,0.0,0.0,0.0,0.0,0.0,0.0,0.0,-1.4811,-1.5477,-1.5962,-1.6293,-1.7575,-1.8422,-1.8422,-1.8079,-1.7924,0.0,0.0,0.0,0.0,0.0,0.0,0.0,0.0,0.0,0.0,0.0,0.0,0.0,0.0,0.0,0.0,0.0,0.0,0.0,0.0,0.0,0.0,0.0,0.0,0.0,0.0,0.0,0.0,0.0,0.0,0.0,0.0,0.0,0.0,0.0,0.0,0.0,0.0,0.0,0.0,0.0,0.0,0.0,0.0,0.0,0.0,0.0,0.0,0.0,0.0,0.0,0.0,0.0,0.0,0.0,0.0,0.0,0.0,0.0,0.0,0.0,0.0,0.0,0.0,0.0,0.0,0.0,0.0,0.0,0.0,0.0,0.0,0.0,0.0,0.0,0.0,0.0,0.0,0.0,0.0,0.0,0.0,0.0,0.0,0.0,0.0,0.0,0.0,0.0,0.0,0.0,0.0,0.0,0.0,0.0,0.0,0.0,0.0,0.0,0.0,0.0,0.0,0.0,-1.672,-1.7105,-1.747,-1.7733,-1.8377,-1.8757,-1.8757,-1.8845,-1.9042,-1.9429,0.0,0.0,0.0,0.0,0.0,0.0,0.0,0.0,0.0,0.0,0.0,0.0,0.0,0.0,0.0,0.0,0.0,0.0,0.0,0.0,0.0,0.0,0.0,0.0,0.0,0.0,0.0,0.0,0.0,0.0,0.0,0.0,0.0,0.0,0.0,0.0,0.0,0.0,0.0,0.0,0.0,0.0,0.0,0.0,0.0,0.0,0.0,0.0,0.0,0.0,0.0,0.0,0.0,0.0,0.0,0.0,0.0,0.0,0.0,0.0,0.0,0.0,0.0,0.0,0.0,0.0,0.0,0.0,0.0,0.0,0.0,0.0,0.0,0.0,0.0,0.0,0.0,0.0,0.0,0.0,0.0,0.0,0.0,0.0,0.0,0.0,0.0,0.0,0.0,0.0,0.0,0.0,0.0,0.0,0.0,0.0,0.0,0.0,0.0,0.0,0.0,0.0,-1.7477,-1.8,-1.8443,-1.8593,-1.9063,-1.9376,-1.9376,-1.9619,-1.9864,-2.0173,0.0,0.0,0.0,0.0,0.0,0.0,0.0,0.0,0.0,0.0,0.0,0.0,0.0,0.0,0.0,0.0,0.0,0.0,0.0,0.0,0.0,0.0,0.0,0.0,0.0,0.0,0.0,0.0,0.0,0.0,0.0,0.0,0.0,0.0,0.0,0.0,0.0,0.0,0.0,0.0,0.0,0.0,0.0,0.0,0.0,0.0,0.0,0.0,0.0,0.0,0.0,0.0,0.0,0.0,0.0,0.0,0.0,0.0,0.0,0.0,0.0,0.0,0.0,0.0,0.0,0.0,0.0,0.0,0.0,0.0,0.0,0.0,0.0,0.0,0.0,0.0,0.0,0.0,0.0,0.0,0.0,0.0,0.0,0.0,0.0,0.0,0.0,0.0,0.0,0.0,0.0,0.0,0.0,0.0,0.0,0.0,0.0,0.0,0.0,0.0,0.0,0.0,-1.7597,-1.8387,-1.8928,-1.9026,-1.968,-2.013,-2.0181,-2.0319,-2.0482,-2.0542,0.0,0.0,0.0,0.0,0.0,0.0,0.0,0.0,0.0,0.0,0.0,0.0,0.0,0.0,0.0,0.0,0.0,0.0,0.0,0.0,0.0,0.0,0.0,0.0,0.0,0.0,0.0,0.0,0.0,0.0,0.0,0.0,0.0,0.0,0.0,0.0,0.0,0.0,0.0,0.0,0.0,0.0,0.0,0.0,0.0,0.0,0.0,0.0,0.0,0.0,0.0,0.0,0.0,0.0,0.0,0.0,0.0,0.0,0.0,0.0,-0.7316,0.0,0.0,0.0,0.0,0.0,0.0,0.0,0.0,0.0,0.0,0.0,0.0,0.0,0.0,0.0,0.0,0.0,0.0,0.0,0.0,0.0,0.0,0.0,0.0,0.0,0.0,0.0,0.0,0.0,0.0,0.0,0.0,0.0,0.0,0.0,0.0,0.0,0.0,0.0,0.0,0.0,-1.8448,-1.8729,-1.9123,-1.9783,-1.9983,-2.0292,-2.0712,-2.0751,-2.1091,-2.1782,-2.2654,0.0,0.0,0.0,0.0,0.0,0.0,0.0,0.0,0.0,0.0,0.0,0.0,0.0,0.0,0.0,0.0,0.0,0.0,0.0,0.0,0.0,0.0,0.0,0.0,0.0,0.0,0.0,0.0,0.0,0.0,0.0,0.0,0.0,0.0,0.0,0.0,0.0,0.0,0.0,0.0,0.0,0.0,0.0,0.0,0.0,0.0,0.0,0.0,0.0,0.0,0.0,0.0,0.0,0.0,0.0,0.0,0.0,0.0,0.0,0.0,-0.8187,0.0,0.0,0.0,0.0,0.0,0.0,0.0,0.0,0.0,0.0,0.0,0.0,0.0,0.0,0.0,0.0,0.0,0.0,0.0,0.0,0.0,0.0,0.0,0.0,0.0,0.0,0.0,0.0,0.0,0.0,0.0,0.0,0.0,0.0,0.0,0.0,0.0,0.0,0.0,0.0,-1.8818,-1.8971,-1.9279,-1.968,-2.0534,-2.1191,-2.1454,-2.2308,-2.3024,-2.3461,-2.4037,0.0,0.0,0.0,0.0,0.0,0.0,0.0,0.0,0.0,0.0,0.0,0.0,0.0,0.0,0.0,0.0,0.0,0.0,0.0,0.0,0.0,0.0,0.0,0.0,0.0,0.0,0.0,0.0,0.0,0.0,0.0,0.0,0.0,0.0,0.0,0.0,0.0,0.0,0.0,0.0,0.0,0.0,0.0,0.0,0.0,0.0,0.0,0.0,0.0,0.0,0.0,0.0,0.0,-0.585,-0.7352,-0.9318,-0.965,-0.9717,-0.9508,-0.9302,-0.8924,-0.8494,-0.9728,0.0,0.0,0.0,0.0,0.0,0.0,0.0,0.0,0.0,0.0,0.0,0.0,0.0,0.0,0.0,0.0,0.0,0.0,0.0,0.0,0.0,0.0,-1.6211,-1.6047,-1.6545,-1.7083,-1.7225,0.0,0.0,0.0,0.0,0.0,0.0,0.0,0.0,0.0,0.0,0.0,-1.9261,-1.9412,-1.9628,-1.9776,-2.1336,-2.2433,-2.2584,-2.3989,-2.4894,-2.4894,-2.5304,-2.5714,0.0,0.0,0.0,0.0,0.0,0.0,0.0,0.0,0.0,0.0,0.0,0.0,0.0,0.0,0.0,0.0,0.0,0.0,0.0,0.0,0.0,0.0,0.0,0.0,0.0,0.0,0.0,0.0,0.0,0.0,0.0,0.0,0.6912,0.623,0.0,0.0,0.0,0.0,0.0,0.0,0.0,0.0,0.0,0.0,0.0,0.0,0.0,-0.154,-0.183,-0.3,-0.3836,-0.4419,-0.6945,-0.8403,-0.9032,-1.0167,-1.0705,-1.0695,-1.0503,0.0,-0.9015,-1.0146,0.0,0.0,0.0,0.0,0.0,0.0,0.0,0.0,0.0,0.0,0.0,0.0,0.0,0.0,0.0,0.0,0.0,0.0,0.0,0.0,0.0,0.0,-1.6041,-1.6477,-1.6655,-1.6887,-1.743,-1.7582,-1.7495,-1.7259,-1.736,-1.7798,0.0,0.0,0.0,0.0,0.0,0.0,-2.0476,-2.0656,-2.0987,-2.1633,-2.2793,-2.3791,-2.4492,-2.4737,-2.4894,-2.4894,-2.5586,-2.6041,-2.61,-2.6652,0.0,0.0,0.0,0.0,0.0,0.0,0.0,0.0,0.0,0.0,0.0,0.0,0.0,0.0,0.0,0.0,0.0,0.0,0.0,0.0,0.0,0.0,0.0,0.0,0.0,0.0,0.0,0.0,0.0,0.7258,0.7082,0.6395,0.5881,0.475,0.0,0.0,0.0,0.0,0.0,0.0,0.0,0.0,0.0,-0.1255,-0.1204,-0.1806,-0.2984,-0.369,-0.4994,-0.689,-0.8301,-0.9486,-1.0335,-1.0889,-1.1199,-1.1261,-1.2007,-1.1958,-1.1295,-1.2089,-1.2466,-1.2781,0.0,0.0,0.0,0.0,-1.5599,-1.6245,-1.497,-1.4864,-1.5252,-1.5077,0.0,0.0,0.0,0.0,0.0,0.0,0.0,-1.5891,-1.5891,-1.6107,-1.6348,-1.6461,-1.6863,-1.7255,-1.7364,-1.7483,-1.7549,-1.7467,-1.7603,-1.8121,-1.9177,-1.9883,0.0,0.0,0.0,-2.1804,-2.1819,-2.1785,-2.1937,-2.2291,-2.3534,-2.4541,-2.4884,-2.5732,-2.6274,-2.6274,-2.6572,-2.6774,-2.6774,-2.7109,-2.7309,0.0,0.0,0.0,0.0,0.0,0.0,0.0,0.0,0.0,0.0,0.0,0.0,0.0,0.0,0.0,0.0,0.0,0.0,0.0,0.0,0.0,0.0,0.0,0.0,0.0,0.0,0.0,0.0,0.7312,0.72,0.66,0.6148,0.5317,0.0,0.0,0.0,0.0,0.0,0.0,0.11,-0.0187,-0.1029,-0.1271,-0.1294,-0.2153,-0.4045,-0.4699,-0.6361,-0.9056,-0.9738,-1.0603,-1.1504,-1.1504,-1.1504,-1.1572,-1.3071,-1.3522,-1.3294,-1.3955,-1.409,-1.4011,-1.5704,-1.6431,-1.6554,-1.6269,-1.6666,-1.7141,-1.5839,-1.5536,-1.5774,-1.5351,-1.5056,-1.5015,-1.5435,0.0,0.0,0.0,0.0,-1.5998,-1.5998,-1.6359,-1.668,-1.6587,-1.7015,-1.7487,-1.7324,-1.7687,-1.7996,-1.7996,-1.8206,-1.8851,-2.031,-2.1393,0.0,-2.2854,-2.3354,-2.3493,-2.2985,-2.2894,-2.2935,-2.2985,-2.4384,-2.5343,-2.5392,-2.6572,-2.7309,-2.7309,-2.7309,-2.7309,-2.7309,-2.7309,-2.7309,-2.7309,0.0,0.0,0.0,0.0,0.0,0.0,0.0,0.0,0.0,0.0,0.0,0.0,0.0,0.0,0.0,0.0,0.0,0.0,0.0,0.0,0.0,0.0,0.0,0.0,0.0,0.0,0.0,0.0,0.0,0.7298,0.7032,0.0,0.0,0.0,0.0,0.3236,0.191,0.1136,0.109,-0.0264,-0.129,-0.1747,-0.1792,-0.2775,-0.4808,-0.628,-0.7844,-0.9457,-1.1138,-1.1875,-1.1809,-1.1809,-1.1809,-1.1872,-1.33,-1.3859,-1.3952,-1.5142,-1.5689,-1.5903,-1.6225,-1.682,-1.7307,-1.618,-1.664,-1.7715,-1.6452,-1.682,-1.7727,-1.7757,-1.7187,-1.648,-1.6036,-1.5879,0.0,0.0,-1.6105,-1.6271,-1.6271,-1.6483,-1.6802,-1.7073,-1.7186,-1.7298,-1.7536,-1.8401,-1.9124,-1.9124,-1.9324,-2.0282,-2.27,0.0,-2.2894,-2.5157,-2.384,-2.2944,-2.389,-2.4038,-2.4137,-2.4384,-2.5596,-2.6496,-2.6805,-2.7129,-2.7309,-2.7309,-2.7309,-2.7309,-2.7309,-2.7309,-2.7309,-2.7309,-2.7034,0.0,0.0,0.0,0.0,0.0,0.0,0.0,0.0,0.0,0.0,0.0,0.0,0.0,0.0,0.0,0.0,0.0,0.0,0.0,0.0,0.0,0.0,0.0,0.0,0.0,0.0,0.0,0.0,0.769,0.7441,0.0,0.662,0.6451,0.6246,0.5988,0.4153,0.3115,0.3189,0.0908,-0.0575,-0.1031,-0.2396,-0.4099,-0.6143,-0.8089,-0.9856,-1.1419,-1.19,-1.2033,-1.1972,-1.1782,-1.2193,-1.3255,-1.4679,-1.5775,-1.6619,-1.806,-1.7989,-1.7114,-1.8022,-1.8333,-1.8196,-1.776,-1.7942,-1.831,-1.7708,-1.7883,-1.8312,-1.7793,-1.7086,-1.641,-1.6205,-1.6024,-1.5891,-1.5891,-1.5945,-1.6105,-1.6271,-1.6477,-1.6783,-1.712,-1.7845,-1.8513,-1.861,-1.9487,-2.0518,-2.1183,-2.0971,-2.1269,-2.2985,-2.3194,-2.3701,-2.543,-2.503,-2.4716,-2.5069,-2.5118,-2.5167,-2.5265,-2.5858,-2.6342,-2.6602,-2.689,-2.7129,-2.7309,-2.7309,-2.7309,-2.7309,-2.7119,-2.7034,-2.7034,-2.6592,-2.6544,0.0,0.0,0.0,0.0,0.0,0.0,0.0,0.0,0.0,0.0,0.0,0.0,0.0,0.0,0.0,0.0,0.0,0.0,0.0,0.0,0.0,0.0,0.0,0.0,0.0,0.7741,0.7978,0.7999,0.7938,0.7936,0.7782,0.7772,0.7663,0.7228,0.534,0.3972,0.342,0.0952,-0.0599,-0.099,-0.308,-0.5118,-0.6999,-0.8937,-1.0753,-1.2271,-1.2077,-1.1959,-1.1904,-1.2207,-1.2964,-1.4022,-1.5999,-1.7322,-1.8228,-1.9777,-1.9746,-1.871,-1.9304,-1.9199,-1.8813,-1.8813,-1.8813,-1.8776,-1.8517,-1.8481,-1.8432,-1.7714,-1.7068,-1.6555,-1.6453,-1.6235,-1.6018,-1.6018,-1.6326,-1.6577,-1.6477,-1.6942,-1.747,-1.7793,-1.8558,-1.9332,-1.9694,-2.0672,-2.165,-2.2375,-2.2207,-2.2391,-2.3601,-2.4156,-2.4658,-2.5586,-2.5693,-2.5693,-2.5693,-2.5693,-2.5693,-2.5693,-2.5965,-2.6197,-2.6496,-2.6757,-2.6986,-2.7262,-2.7309,-2.7309,-2.7309,-2.7441,-2.7489,-2.7489,-2.7315,-2.7173,-2.7119,0.0,0.0,0.0,0.0,0.0,0.0,0.0,0.0,0.0,0.0,0.0,0.0,0.0,0.0,0.0,0.0,0.0,0.0,0.0,0.0,0.0,0.0,0.0,0.7535,0.7945,0.8204,0.8158,0.8603,0.8872,0.8638,0.8829,0.8311,0.6703,0.5281,0.3667,0.1708,-0.0228,-0.139,-0.1776,-0.3896,-0.5759,-0.7302,-0.8979,-1.0535,-1.1837,-1.1833,-1.1759,-1.1623,-1.3178,-1.3951,-1.4164,-1.7132,-1.8406,-1.8622,-2.0092,-2.0653,-2.0575,-1.9796,-1.9403,-1.9114,-1.9096,-1.9072,-1.9018,-1.877,-1.8505,-1.8185,-1.7666,-1.7316,-1.7044,-1.6847,-1.6568,-1.6344,-1.6393,-1.7214,-1.7891,-1.7047,-1.7832,-1.8923,-1.9176,-1.928,-1.9591,-2.0731,-2.181,-2.2577,-2.2577,-2.3003,-2.3701,-2.4726,-2.5333,-2.5693,-2.5693,-2.5693,0.0,-2.5693,-2.5693,-2.5693,-2.5684,-2.5965,-2.6245,-2.6496,-2.6747,-2.7034,-2.7262,-2.7309,-2.7309,-2.7309,-2.8175,-2.8678,-2.8678,-2.9143,-2.8819,-2.7683,0.0,0.0,0.0,0.0,0.0,0.0,0.0,0.0,0.0,0.0,0.0,0.0,0.0,0.0,0.0,0.0,0.0,0.0,0.0,0.0,0.0,0.7641,0.7804,0.7894,0.8244,0.8543,0.8687,0.9,0.9215,0.9239,0.9299,0.8725,0.7125,0.5611,0.3924,0.2163,0.0235,-0.0871,-0.095,-0.436,-0.64,-0.6836,-0.9891,-1.1626,-1.1996,-1.1884,-1.1809,-1.1769,-1.3228,-1.4516,-1.5571,-1.7554,-1.9041,-2.0086,-2.0323,-2.0388,-2.0364,-2.014,-2.0008,-1.9899,-1.9507,-1.9,-1.8523,-1.8644,-1.8257,-1.7714,-1.775,-1.7461,-1.7246,-1.807,-1.8112,-1.8044,-1.8636,-1.9205,-1.9506,-1.9168,-1.9517,-2.0033,-2.0364,-2.103,-2.17,-2.2013,-2.2929,-2.3795,-2.3926,-2.4223,-2.4569,-2.4833,-2.5333,-2.5693,-2.5693,-2.5693,-2.5693,-2.5693,-2.5693,-2.5781,-2.5965,-2.6706,-2.6993,-2.6544,-2.7373,-2.7657,-2.7034,-2.7167,-2.7309,-2.7309,-2.7857,-2.8351,-2.8691,-2.9015,-2.9349,0.0,0.0,0.0,0.0,0.0,0.0,0.0,0.0,0.0,0.0,0.0,0.0,0.0,0.0,0.0,0.0,0.0,0.0,0.0,0.0,0.0,0.0,0.7867,0.8119,0.8391,0.8609,0.8829,0.9071,0.931,0.9503,0.9622,0.9633,0.8717,0.6478,0.535,0.3679,0.1194,-0.0159,-0.1269,-0.206,-0.5306,-0.73,-0.7789,-1.0637,-1.1999,-1.1877,-1.1786,-1.1742,-1.1811,-1.3853,-1.5287,-1.6202,-1.8401,-1.9889,-2.0653,-2.0503,-2.0376,0.0,0.0,0.0,0.0,0.0,-1.9644,-1.9284,-1.9698,-1.9581,-1.9109,-1.8631,-1.859,-1.8836,-1.9014,-1.9302,-1.9727,-2.0258,-2.0697,-2.0956,-2.056,-2.0767,-2.1175,-2.1497,-2.2064,-2.2627,-2.3138,-2.3795,-2.4341,-2.4489,-2.4784,0.0,-2.5088,-2.544,-2.5693,-2.5693,-2.5693,-2.5693,-2.5693,-2.6052,-2.6235,-2.5965,-2.6839,-2.7305,-2.7003,-2.7315,0.0,0.0,0.0,-2.8269,-2.9084,-2.9268,0.0,0.0,0.0,-3.0317,-3.0396,-3.0946,0.0,0.0,-2.8664,-2.8075,0.0,0.0,0.0,0.0,0.0,0.0,0.0,0.0,0.0,0.0,0.0,0.0,0.0,0.0,0.0,0.0,0.8117,0.8372,0.8838,0.8914,0.9073,0.9299,0.9516,0.9699,0.9824,0.9851,0.8475,0.5254,0.4853,0.314,-0.0487,-0.1115,0.0,0.0,0.0,-0.8056,-0.9345,-1.1138,-1.1881,-1.1619,-1.1619,-1.1619,-1.1688,-1.4725,-1.6131,-1.6272,-1.939,-2.0653,-2.0623,-2.0623,-2.0448,-2.014,-1.9688,-1.9601,-1.9751,-2.0407,-2.0681,-2.0849,-2.1365,0.0,0.0,-1.9935,-2.0228,-2.0902,-2.0005,-2.0551,-2.1486,-2.1559,-2.2057,-2.2434,-2.1671,-2.1878,-2.2384,-2.2627,-2.2677,-2.2987,-2.3994,-2.4341,-2.4538,-2.4529,-2.4932,-2.5333,-2.547,-2.5625,-2.5693,-2.5693,-2.5781,-2.5878,-2.5878,-2.6733,-2.7057,-2.6197,-2.702,0.0,-2.7767,-2.7373,-2.7478,-2.8524,-2.8735,-2.9681,-3.1492,-3.1347,-3.1169,-3.1036,-3.1661,-3.1427,-3.0351,-3.1238,-3.1238,-3.0351,-3.0453,-2.9932,0.0,0.0,0.0,0.0,0.0,0.0,0.0,0.0,0.0,0.0,0.0,0.0,0.0,0.0,0.0,0.8152,0.8364,0.8655,0.9044,0.9179,0.9291,0.9435,0.9495,0.9603,0.9815,0.9927,0.8554,0.5257,0.4803,0.3061,-0.0407,-0.1365,-0.2548,-0.429,-0.6174,-0.7949,-0.9542,-1.0999,-1.1677,-1.1619,0.0,0.0,-1.1688,-1.4725,-1.6131,-1.6272,-1.939,-2.0551,-2.0352,-2.0352,-2.0062,-1.9699,-1.976,-2.0244,-2.0801,-2.1168,-2.1727,-2.223,-2.2027,-2.184,-2.1576,-2.0953,-2.0902,-2.1244,-2.2055,-2.2581,0.0,-2.3817,-2.4216,-2.4313,-2.3857,-2.38,-2.3795,-2.3845,-2.3895,-2.3954,-2.4152,-2.4341,-2.4578,-2.4784,-2.5088,-2.5616,-2.6675,-2.6187,-2.5693,-2.5693,-2.637,-2.6914,-2.6914,-2.7804,-2.8412,-2.8423,-2.9475,-2.9875,-2.9143,-3.0011,-3.0294,-2.9601,-2.9749,-3.0351,-3.1303,-3.1125,-3.1226,-3.1793,-3.1749,-3.1661,-3.1427,-3.1617,-3.1617,-3.1383,-3.0633,-2.9704,0.0,0.0,0.0,0.0,0.0,0.0,0.0,0.0,0.0,0.0,0.0,0.7889,0.7555,0.0,0.841,0.8407,0.8562,0.8804,0.9169,0.9269,0.9372,0.9557,0.9579,0.9671,0.9905,1.0041,0.857,0.49,0.458,0.2908,-0.1066,-0.1686,-0.2693,-0.4505,-0.6325,-0.7946,-0.9414,-1.0916,-1.1691,-1.1619,-1.1619,-1.1619,-1.1688,-1.4725,-1.6131,-1.6268,-1.9185,-2.04,-2.0255,-1.9983,-1.9712,-1.953,-1.9476,-1.9761,-2.0246,-2.1277,-2.1949,-2.2406,-2.315,-2.3387,-2.3099,-2.2335,-2.2451,-2.2934,-2.276,-2.3433,-2.4309,-2.4542,-2.4745,-2.4808,-2.4627,-2.4414,-2.4202,-2.4202,-2.4202,-2.4202,-2.4202,-2.444,-2.4735,-2.4883,-2.5645,-2.6446,-2.7094,-2.72,-2.721,-2.721,-2.7615,-2.7934,-2.7934,-2.8819,-2.9326,-2.8923,-2.9977,-3.0486,-2.9977,-3.089,-3.1258,-3.0744,-3.0845,-3.1303,-3.2164,-3.1869,-3.1837,-3.2213,-3.1893,-3.1705,-3.1705,-3.1705,-3.1705,-3.1705,-3.1193,-3.0396,0.0,0.0,0.0,0.0,0.0,0.0,0.0,0.7583,0.7455,0.7886,0.7887,0.778,0.7774,0.8144,0.8467,0.8595,0.8739,0.8921,0.9258,0.9304,0.9386,0.9609,0.9655,0.9753,0.9965,0.996,0.8397,0.46,0.4252,0.2416,-0.1724,-0.2001,-0.2908,-0.4762,-0.6398,-0.7953,-0.9326,-1.0919,-1.1731,-1.1619,-1.1619,-1.176,-1.2112,-1.4827,-1.621,-1.6617,-1.9073,-2.0116,-2.008,-1.9591,-1.9392,-1.9433,-1.9472,-1.9514,-1.9712,-2.1455,-2.2293,-2.2744,-2.4424,-2.4979,-2.4841,-2.3713,-2.4016,-2.4531,-2.3249,-2.3892,-2.504,-2.4721,-2.472,-2.4785,-2.4785,-2.4578,-2.4303,-2.422,-2.4266,-2.4352,-2.4498,-2.4873,-2.5255,-2.5499,-2.6628,-2.7558,-2.7746,-2.8524,-2.9055,-2.8869,-2.9009,-2.9181,-2.928,-3.0182,-3.0514,-2.9709,-3.0548,-3.1207,-3.1298,-3.1606,-3.187,-3.2059,-3.1962,-3.2264,-3.3068,-3.2649,-3.24,-3.24,-3.1937,-3.1705,-3.1705,-3.1705,-3.1765,-3.1874,-3.1874,-3.1345,0.8826,0.8881,0.8826,0.8826,0.8602,0.852,0.0,0.8332,0.7892,0.8431,0.8672,0.8675,0.824,0.8825,0.9331,0.8903,0.8852,0.9019,0.9269,0.9304,0.9353,0.9492,0.9603,0.9718,0.9845,0.9438,0.7811,0.4627,0.338,0.1453,-0.1766,-0.232,-0.3238,-0.4937,-0.6393,-0.7882,-0.9473,-1.0904,-1.1636,-1.1619,-1.1619,-1.2327,-1.3666,-1.5108,-1.6481,-1.784,-1.9096,-1.9621,-1.9602,-1.9241,-1.912,-1.9243,-2.0399,-2.0893,-2.1069,-2.2436,-2.3709,-2.4857,-2.5537,-2.5756,-2.5645,-2.4867,-2.4701,-2.4757,-2.4595,-2.4787,-2.5102,-2.5058,-2.4945,-2.4785,-2.4785,-2.4748,-2.462,-2.4293,-2.4486,-2.4945,-2.5645,-2.6041,-2.657,-2.7709,-2.8262,-2.8819,-2.9704,-3.0365,-3.0452,-2.9547,-3.016,-3.0891,-3.1384,-3.2324,-3.2999,-3.3056,-3.339,-3.3768,-3.4209,-3.3851,-3.362,-3.362,-3.3214,-3.2982,-3.3124,-3.2649,-3.24,-3.24,-3.1937,-3.1705,-3.1705,-3.1705,-3.1925,-3.2406,-3.2406,-3.2097,0.8858,0.8885,0.8902,0.8818,0.8726,0.8725,0.9126,0.8595,0.8204,0.8708,0.87,0.8511,0.8363,0.8779,0.9099,0.8908,0.8941,0.9114,0.928,0.8886,0.8624,0.8604,0.8343,0.835,0.8955,0.8949,0.7336,0.355,0.2872,0.1206,-0.2099,-0.2472,-0.2845,-0.3542,-0.5894,-0.7448,-0.8081,-1.0414,-1.1619,-1.1619,-1.1619,-1.2398,-1.3947,-1.5156,-1.6856,-1.8902,-1.9292,-1.938,-1.9229,-1.912,-1.9577,-2.0329,-2.0893,-2.158,-2.2423,-2.3534,-2.426,-2.4839,-2.5393,-2.5609,-2.5515,-2.4992,-2.4821,-2.4778,-2.4775,-2.4762,-2.4721,-2.4709,-2.4561,-2.4523,-2.4721,-2.5264,-2.5748,-2.5805,-2.6277,-2.6774,-2.7227,-2.7307,-2.7584,-2.858,-2.9446,-3.0247,-3.1019,-3.1786,-3.2277,-3.2122,-3.2219,-3.2405,-3.2618,-3.3039,-3.3423,-3.3768,-3.4056,-3.4375,-3.468,-3.4512,-3.4374,-3.4374,-3.4161,-3.4035,-3.4035,-3.3737,-3.3469,-3.3334,-3.3007,-3.2735,-3.2611,-3.2611,-3.2731,-3.2959,-3.2959,-3.2839,0.8804,0.8937,0.8966,0.8844,0.8876,0.9,0.9304,0.8852,0.8517,0.8957,0.8595,0.8261,0.8353,0.8535,0.8734,0.8852,0.8957,0.9136,0.9283,0.8632,0.8108,0.8028,0.7356,0.7117,0.764,0.7915,0.6581,0.3195,0.2523,0.1036,-0.1931,-0.2299,-0.2517,-0.2522,-0.5039,-0.667,-0.7092,-0.9672,-1.1181,-1.1619,-1.1619,-1.261,-1.4574,-1.6144,-1.779,-1.953,-1.9392,-1.9253,-1.9078,-1.9078,-1.989,-2.1139,-2.1517,-2.2452,-2.3792,-2.4838,-2.4984,-2.4759,-2.5367,-2.5523,-2.5446,-2.5022,-2.4923,-2.4927,-2.4979,-2.4889,-2.4825,-2.5118,-2.5089,-2.513,-2.5743,-2.6532,-2.7242,-2.7442,-2.7903,-2.847,-2.8956,-2.8886,-2.903,-3.0067,-3.1017,-3.1775,-3.2147,-3.2912,-3.3621,-3.3934,-3.3849,-3.3717,-3.3717,-3.3858,-3.4092,-3.4499,-3.504,-3.5314,-3.5177,-3.5254,-3.5211,-3.4951,-3.4756,-3.468,-3.468,-3.4512,-3.4284,-3.401,-3.3722,-3.3504,-3.3284,-3.3284,-3.3368,-3.3501,-3.3501,-3.3573,0.8757,0.8927,0.9204,0.921,0.9374,0.9632,0.9781,0.9377,0.8988,0.9059,0.8597,0.8172,0.8175,0.8342,0.8543,0.8825,0.8884,0.8968,0.9272,0.8632,0.8064,0.8132,0.7338,0.6549,0.5857,0.5934,0.5559,0.4307,0.2338,0.0628,-0.0628,-0.1807,-0.2488,-0.2429,-0.3965,-0.5455,-0.6978,-0.8567,-1.0089,-1.1619,-1.1619,-1.3174,-1.6117,-1.8608,-1.967,-1.9518,-1.9199,-1.9084,-1.9078,-1.9078,-1.989,-2.1202,-2.2514,-2.3884,-2.5194,-2.6554,-2.6181,-2.5144,-2.5696,-2.5859,-2.5797,-2.537,-2.5165,-2.5221,-2.5551,-2.5567,-2.5674,-2.6774,-2.703,-2.7148,-2.8275,-2.8906,-2.9124,-2.8749,-2.8977,-2.9558,-3.0696,-3.0934,-3.1365,-3.2864,-3.3214,-3.3226,-3.3238,-3.3646,-3.397,-3.3994,-3.4414,-3.4727,-3.4727,-3.5223,-3.5619,-3.5918,-3.6998,-3.7356,-3.6449,-3.6715,-3.6528,-3.5516,-3.4969,-3.468,-3.468,-3.4512,-3.4284,-3.401,-3.3722,-3.3504,-3.3284,-3.3284,-3.3537,-3.397,-3.397,-3.4246,0.9392,0.9525,0.9648,0.9648,0.9635,0.9622,0.9669,0.9313,0.8925,0.8986,0.8461,0.7992,0.7992,0.816,0.8386,0.8663,0.8845,0.8822,0.8544,0.784,0.7091,0.6478,0.5682,0.5126,0.4872,0.5462,0.5167,0.3528,0.1977,0.0615,-0.062,-0.1863,-0.2475,-0.2455,-0.4988,-0.6483,-0.6986,-0.9549,-1.1109,-1.1619,-1.261,-1.3965,-1.5656,-1.7717,-1.8841,-1.9211,-1.936,-1.9235,-1.9078,-1.9078,-2.0386,-2.2452,-2.2952,-2.4301,-2.6097,-2.6849,-2.6619,-2.5957,-2.5903,-2.5887,-2.5756,-2.5339,-2.534,-2.5569,-2.5907,-2.5748,-2.5745,-2.7075,-2.7224,-2.7298,-2.8705,-2.9772,-3.0446,-3.0597,-3.1163,-3.186,-3.2404,-3.2391,-3.2571,-3.3576,-3.3742,-3.3897,-3.4246,-3.5,-3.5796,-3.6598,-3.6298,-3.5986,-3.5986,-3.6436,-3.7057,-3.7756,-3.7828,-3.7933,-3.8225,-3.8367,-3.8292,-3.7992,-3.7793,-3.77,-3.77,-3.7598,-3.7464,-3.7168,-3.7078,-3.6852,-3.6468,-3.5823,-3.5516,-3.5526,-3.4835,-3.4607,0.9817,1.0058,1.0139,1.0082,0.9891,0.9751,0.9696,0.9274,0.8888,0.8789,0.8262,0.7782,0.7695,0.788,0.8046,0.8041,0.8204,0.8176,0.7656,0.6931,0.6246,0.571,0.4923,0.4437,0.4459,0.4991,0.4882,0.3633,0.2094,0.0833,0.0,-0.1606,-0.2442,-0.2453,-0.4364,-0.5934,-0.6982,-0.8964,-1.0524,-1.1619,-1.3174,-1.4459,-1.567,-1.7243,-1.8497,-1.9368,-1.9499,-1.9631,-1.9826,-1.9826,-2.1391,-2.3822,-2.3822,-2.499,-2.6781,-2.7091,-2.6968,-2.6571,-2.6209,-2.603,-2.593,-2.5637,-2.5935,-2.6472,-2.6754,-2.6677,-2.6836,-2.8545,-2.8541,-2.8431,-3.0272,-3.1278,-3.189,-3.2292,-3.2784,-3.3266,-3.3618,-3.3576,-3.3708,-3.4615,-3.4818,-3.5023,-3.5748,-3.6449,-3.7204,-3.8094,-3.8036,-3.7808,-3.7442,-3.7697,-3.8153,-3.8859,-3.8841,-3.8899,-3.9166,-3.9505,-3.9549,-3.9197,-3.921,-3.921,-3.921,-3.921,-3.905,-3.8814,-3.8801,-3.859,-3.8107,-3.7455,-3.7019,-3.6837,-3.6178,-3.5667,1.0186,1.0425,1.0623,1.0469,1.0238,0.9995,0.9825,0.931,0.8817,0.8537,0.806,0.7603,0.7369,0.7521,0.7545,0.7123,0.7205,0.7133,0.6762,0.6054,0.5629,0.5626,0.4951,0.4516,0.4568,0.4576,0.4625,0.4817,0.2523,0.1125,0.1227,-0.1053,-0.2392,-0.2418,-0.2439,-0.3862,-0.6825,-0.7042,-0.8636,-1.1619,-1.3103,-1.4578,-1.6108,-1.7302,-1.8597,-1.9851,-1.9585,-2.0077,-2.1012,-2.1076,-2.264,-2.501,-2.5071,-2.5937,-2.7099,-2.7383,-2.7251,-2.6926,-2.6542,-2.6355,-2.6285,-2.6152,-2.6907,-2.7892,-2.8116,-2.8223,-2.8744,-3.0949,-3.0794,-3.0494,-3.2706,-3.3281,-3.3381,-3.363,-3.3729,-3.3878,-3.4384,-3.4482,-3.486,-3.6131,-3.6414,-3.6684,-3.7717,-3.8088,-3.8275,-3.855,-3.961,-4.0029,-3.8992,-3.8903,-3.8992,-3.9343,-4.0116,-4.0246,-3.9431,-4.0159,-4.0303,-3.9387,-3.9343,-3.9343,-3.9343,-3.9343,-3.9241,-3.8992,-3.8992,-3.8725,-3.8289,-3.8243,-3.8134,-3.79,-3.7841,-3.7289,1.0999,1.1113,1.1024,1.0739,1.0458,1.008,0.9466,0.9124,0.877,0.826,0.7838,0.7562,0.7267,0.7326,0.7498,0.7758,0.7508,0.7197,0.6805,0.6254,0.5581,0.4938,0.4784,0.4655,0.458,0.4615,0.4654,0.4758,0.2489,0.1175,0.1182,-0.1123,-0.2395,-0.2357,-0.3499,-0.4452,-0.531,-0.7553,-0.9654,-1.1619,-1.1975,-1.346,-1.583,-1.6125,-1.7475,-1.9567,-1.9501,-1.9508,-1.9705,-2.0703,-2.2076,-2.3698,-2.4695,-2.5712,-2.6696,-2.6925,-2.681,-2.6517,-2.662,-2.6625,-2.6538,-2.6198,-2.7015,-2.8116,-2.8169,-2.8807,-2.9755,-3.1216,-3.137,-3.1483,-3.2908,-3.3281,-3.3381,-3.363,-3.3828,-3.4261,-3.5319,-3.5655,-3.6131,-3.7209,-3.7553,-3.7939,-3.897,-3.9417,-3.9958,-4.0731,-4.1296,-4.1212,-4.0073,-4.0059,-4.0432,-4.1269,-4.0887,-4.0788,-4.1325,-4.1591,-4.1633,-4.1367,-4.1367,-4.1367,-4.1367,-4.1367,-4.1325,-4.1269,-4.1269,-4.1085,-4.0802,-4.0073,-3.9623,-3.9329,-3.859,-3.8049,1.1569,1.1562,1.1425,1.1042,1.055,1.0059,0.9442,0.8876,0.8401,0.8075,0.7712,0.7379,0.721,0.7252,0.7324,0.7404,0.7311,0.6965,0.6287,0.5939,0.5531,0.4761,0.4721,0.4758,0.4662,0.4757,0.4715,0.4741,0.2506,0.1176,0.1176,-0.1118,-0.2388,-0.2354,-0.3186,-0.4284,-0.567,-0.8131,-1.0089,-1.1619,-1.1619,-1.3124,-1.5887,-1.5728,-1.7156,-1.9645,-1.9519,-1.9696,-2.0081,-2.1454,-2.2764,-2.4116,-2.527,-2.6124,-2.6701,-2.683,-2.6854,-2.6748,-2.6888,-2.7206,-2.7566,-2.7155,-2.8223,-2.9692,-2.9692,-3.012,-3.0856,-3.2004,-3.2004,-3.1841,-3.3008,-3.3381,-3.3668,-3.4323,-3.4714,-3.5296,-3.6786,-3.7036,-3.7243,-3.8238,-3.8944,-3.9607,-4.0272,-4.0674,-4.1085,-4.1758,-4.1995,-4.187,-4.117,-4.1212,-4.1479,-4.2051,-4.1591,-4.1493,-4.2051,-4.2092,-4.2092,-4.2092,-4.2092,-4.2092,-4.2092,-4.2092,-4.2092,-4.2092,-4.2092,-4.1953,-4.1688,-4.1156,-4.0802,-4.0546,-3.9986,-3.9373,1.1833,1.1867,1.1732,1.123,1.0633,1.0041,0.9531,0.8764,0.8122,0.8048,0.7657,0.7265,0.721,0.7241,0.7195,0.6832,0.6911,0.6708,0.5709,0.5655,0.5459,0.4813,0.4783,0.4834,0.4774,0.4767,0.4789,0.4767,0.2469,0.1114,0.1114,-0.1116,-0.2382,-0.2378,-0.2348,-0.3785,-0.6968,-0.8345,-0.987,-1.1619,-1.1619,-1.3103,-1.5769,-1.5682,-1.7061,-1.9596,-1.9483,-1.9982,-2.0949,-2.2452,-2.3822,-2.4978,-2.6201,-2.677,-2.6979,-2.7004,-2.7106,-2.7191,-2.7185,-2.7944,-2.8849,-2.835,-2.9744,-3.1586,-3.1651,-3.1742,-3.2066,-3.3088,-3.2639,-3.2055,-3.3069,-3.3618,-3.4211,-3.5392,-3.5968,-3.6736,-3.8606,-3.8728,-3.8645,-3.9435,-4.0512,-4.1369,-4.1524,-4.182,-4.2087,-4.2297,-4.2353,-4.2324,-4.2223,-4.215,-4.2092,-4.2092,-4.2092,-4.2092,-4.2092,-4.2092,-4.2092,-4.2092,-4.2092,-4.2092,-4.2092,-4.2092,-4.2092,-4.2092,-4.2092,-4.1995,-4.1744,-4.1744,-4.1675,-4.148,-4.148,-4.0901,1.2134,1.2083,1.1857,1.141,1.0901,1.0336,0.959,0.9185,0.8798,0.8125,0.7934,0.7709,0.7265,0.7226,0.7323,0.7621,0.7192,0.6679,0.6395,0.593,0.5404,0.4874,0.4846,0.4897,0.4837,0.483,0.4834,0.4769,0.2469,0.1114,0.1263,-0.105,-0.2404,-0.2379,-0.2348,-0.3785,-0.6968,-0.7259,-0.8781,-1.1619,-1.1619,-1.2538,-1.429,-1.5059,-1.6302,-1.8072,-1.8823,-1.9243,-1.9641,-2.2076,-2.338,-2.3993,-2.6401,-2.7293,-2.7376,-2.7598,-2.7323,-2.6859,-2.7085,-2.8282,-2.9552,-2.8518,-2.9744,-3.1651,-3.2055,-3.2552,-3.3149,-3.3712,-3.3479,-3.3119,-3.353,-3.4225,-3.5163,-3.6282,-3.7235,-3.8418,-4.03,-4.127,-4.1722,-4.1545,-4.2263,-4.281,-4.2524,-4.3084,-4.3617,-4.366,-4.366,-4.3456,-4.2919,-4.2397,-4.2092,-4.2092,-4.2092,-4.2092,-4.2092,-4.2092,-4.2092,-4.2092,-4.2092,-4.2092,-4.2092,-4.2092,-4.2092,-4.2092,-4.2092,-4.2092,-4.2036,-4.2036,-4.2009,-4.1968,-4.1968,-4.1731,1.2142,1.2166,1.1983,1.1353,1.0917,1.0395,0.959,0.9087,0.868,0.8112,0.7881,0.7657,0.7265,0.7206,0.7345,0.7641,0.7488,0.7139,0.6515,0.6208,0.5723,0.4885,0.4835,0.4801,0.4773,0.4818,0.4812,0.4768,0.2469,0.1189,0.1263,-0.104,-0.237,-0.2355,-0.234,-0.3785,-0.6968,-0.6968,-0.8564,-1.1619,-1.1619,-1.2398,-1.3939,-1.4885,-1.6127,-1.7658,-1.8641,-1.92,-1.9577,-2.2264,-2.3512,-2.4047,-2.6499,-2.7594,-2.7624,-2.7377,-2.7151,-2.7001,-2.7113,-2.8406,-2.9889,-2.9819,-3.119,-3.2852,-3.2841,-3.322,-3.3648,-3.3637,-3.393,-3.4262,-3.4409,-3.5586,-3.7033,-3.8118,-3.9734,-4.1181,-4.1745,-4.2614,-4.3076,-4.2573,-4.2995,-4.3401,-4.32,-4.3632,-4.3993,-4.3993,-4.4394,-4.4543,-4.4261,-4.4348,-4.4007,-4.2843,-4.2729,-4.289,-4.3299,-4.297,-4.2729,-4.2729,-4.231,-4.2092,-4.2092,-4.2092,-4.2092,-4.2092,-4.2092,-4.2092,-4.2092,-4.2092,-4.2092,-4.2092,-4.2092,-4.1953,1.2117,1.2223,1.219,1.1327,1.0887,1.0395,0.959,0.8977,0.8488,0.81,0.7826,0.7604,0.7265,0.7233,0.7288,0.732,0.7474,0.72,0.6233,0.6134,0.584,0.4877,0.4809,0.4775,0.4788,0.4811,0.4794,0.4767,0.2543,0.0966,0.052,-0.1248,-0.2333,-0.2333,-0.2333,-0.3785,-0.6968,-0.6968,-0.8564,-1.1619,-1.1619,-1.2255,-1.3448,-1.4791,-1.6036,-1.7187,-1.8634,-1.9383,-1.9763,-2.2271,-2.3636,-2.4401,-2.6448,-2.7555,-2.7957,-2.7404,-2.7275,-2.7315,-2.7407,-2.8456,-2.9831,-3.0944,-3.2519,-3.397,-3.3809,-3.3878,-3.3947,-3.3784,-3.4391,-3.5138,-3.5234,-3.6944,-3.8938,-4.0294,-4.2187,-4.3568,-4.3167,-4.3571,-4.3894,-4.3345,-4.3685,-4.4022,-4.4139,-4.4428,-4.4761,-4.4961,-4.5553,-4.5936,-4.58,-4.6381,-4.6146,-4.4443,-4.4004,-4.3986,-4.445,-4.3935,-4.356,-4.356,-4.2955,-4.2622,-4.2622,-4.2433,-4.2366,-4.2366,-4.2216,-4.2092,-4.2092,-4.2092,-4.2092,-4.2092,-4.2092,-4.1995,1.2239,1.2406,1.2371,1.1501,1.0912,1.0395,0.959,0.9094,0.8716,0.81,0.7989,0.7823,0.7321,0.7221,0.7078,0.6723,0.6575,0.6263,0.5476,0.5355,0.5185,0.4861,0.4809,0.4792,0.4922,0.4873,0.4764,0.4769,0.2618,0.0297,-0.1932,-0.2202,-0.2333,-0.2333,-0.2333,-0.3785,-0.6968,-0.6968,-0.8564,-1.1619,-1.1619,-1.1691,-1.1896,-1.4513,-1.5628,-1.5711,-1.8622,-1.9819,-1.9769,-2.1538,-2.3139,-2.4586,-2.6037,-2.7302,-2.8367,-2.8709,-2.8342,-2.7822,-2.815,-2.854,-2.9179,-3.0775,-3.2519,-3.4165,-3.5049,-3.4705,-3.4147,-3.4843,-3.5046,-3.5186,-3.5678,-3.771,-4.024,-4.261,-4.3742,-4.4359,-4.4549,-4.467,-4.4652,-4.4463,-4.4928,-4.5474,-4.5892,-4.6493,-4.7182,-4.7954,-4.8162,-4.803,-4.7461,-4.7465,-4.7477,-4.7397,-4.6175,-4.5149,-4.4572,-4.4434,-4.4396,-4.4396,-4.432,-4.4282,-4.4282,-4.36,-4.318,-4.318,-4.2459,-4.2092,-4.2092,-4.2092,-4.2092,-4.2092,-4.2092,-4.2092,1.2261,1.2357,1.2266,1.1501,1.0923,1.0395,0.959,0.915,0.8716,0.8103,0.7989,0.7823,0.7321,0.721,0.7017,0.649,0.6353,0.6018,0.5139,0.4974,0.4906,0.462,0.4612,0.468,0.4815,0.4773,0.4143,0.2738,0.1767,0.022,-0.2204,-0.2339,-0.2333,-0.2333,-0.2333,-0.3785,-0.6968,-0.6968,-0.8564,-1.1619,-1.1619,-1.2115,-1.3028,-1.4876,-1.6187,-1.712,-1.9112,-2.0109,-2.0348,-2.1776,-2.3318,-2.4917,-2.6269,-2.7597,-2.8737,-2.8654,-2.8425,-2.8168,-2.8333,-2.8728,-2.9486,-3.1447,-3.2738,-3.3701,-3.4411,-3.4866,-3.5155,-3.479,-3.6059,-3.7551,-3.7756,-3.9894,-4.2389,-4.3742,-4.4242,-4.4457,-4.4751,-4.4922,-4.5021,-4.5127,-4.5481,-4.5958,-4.6688,-4.7025,-4.749,-4.8388,-4.8979,-4.9264,-4.9014,-4.9457,-4.963,-4.9229,-4.7842,-4.7004,-4.7199,-4.6381,-4.5884,-4.5884,-4.5432,-4.4941,-4.4526,-4.4587,-4.4447,-4.4028,-4.322,-4.2795,-4.2795,-4.2325,-4.2092,-4.2092,-4.2092,-4.2092,1.2094,1.2227,1.2091,1.1357,1.0849,1.038,0.9531,0.912,0.8716,0.8103,0.7989,0.7823,0.7321,0.7043,0.6763,0.6151,0.5873,0.5457,0.4639,0.4551,0.4419,0.4023,0.428,0.4431,0.4319,0.4239,0.3351,0.1384,0.0874,-0.0219,-0.2187,-0.2333,-0.2333,-0.2333,-0.2333,-0.3567,-0.6319,-0.6753,-0.8348,-1.0962,-1.14,-1.2466,-1.4081,-1.5291,-1.6735,-1.8334,-1.9704,-2.0425,-2.0666,-2.172,-2.3076,-2.4564,-2.5912,-2.7203,-2.8394,-2.8546,-2.8572,-2.8621,-2.906,-2.9451,-3.0152,-3.2569,-3.3528,-3.3841,-3.4492,-3.5467,-3.6263,-3.571,-3.7554,-3.9807,-4.0277,-4.1939,-4.3652,-4.427,-4.4457,-4.4644,-4.517,-4.5619,-4.6084,-4.6623,-4.686,-4.7345,-4.842,-4.8259,-4.8381,-4.9431,-4.9979,-5.0276,-5.0276,-5.081,-5.0989,-5.0471,-4.9438,-4.8882,-4.8974,-4.8075,-4.7442,-4.7442,-4.6906,-4.6369,-4.5847,-4.6079,-4.5849,-4.5197,-4.4379,-4.3874,-4.3663,-4.3076,-4.2703,-4.2474,-4.2474,-4.2412,1.1792,1.204,1.2031,1.1061,1.0673,1.0351,0.9396,0.9042,0.8716,0.8103,0.7989,0.7823,0.7321,0.6707,0.6096,0.5483,0.4925,0.4364,0.3871,0.3883,0.364,0.2813,0.367,0.3969,0.3207,0.2965,0.2476,0.1311,0.0073,-0.1093,-0.226,-0.2333,-0.2333,-0.2333,-0.2333,-0.3059,-0.4729,-0.6248,-0.7765,-0.9363,-1.089,-1.2606,-1.4424,-1.57,-1.7145,-1.8753,-2.0294,-2.0869,-2.0609,-2.0982,-2.1908,-2.3263,-2.4494,-2.5851,-2.7203,-2.8489,-2.8975,-2.9203,-3.0645,-3.0928,-3.1093,-3.4229,-3.5018,-3.4905,-3.6039,-3.6744,-3.7355,-3.8139,-3.9657,-4.1442,-4.3026,-4.3497,-4.3652,-4.427,-4.4597,-4.5092,-4.624,-4.72,-4.822,-4.9343,-4.9554,-5.008,-5.1673,-5.0785,-5.0382,-5.192,-5.162,-5.1183,-5.1183,-5.1183,-5.1183,-5.1167,-5.1167,-5.0584,-4.9107,-4.8977,-4.8977,-4.8977,-4.8977,-4.8961,-4.8961,-4.8201,-4.7457,-4.6792,-4.5988,-4.5241,-4.4488,-4.4488,-4.4051,-4.3284,-4.3284,-4.316,1.1585,1.1577,1.145,1.1042,1.0592,1.0124,0.9568,0.915,0.8716,0.8103,0.7989,0.7823,0.7321,0.6707,0.6096,0.5483,0.4869,0.4329,0.3753,0.3829,0.3811,0.3678,0.4183,0.4144,0.3037,0.2906,0.2111,0.0146,-0.0364,-0.1093,-0.226,-0.2333,-0.2333,-0.2333,-0.2333,-0.3712,-0.6606,-0.711,-0.8737,-1.1524,-1.1956,-1.3017,-1.4488,-1.5855,-1.7327,-1.8903,-2.0343,-2.0998,-2.0919,-2.1046,-2.1908,-2.3201,-2.4502,-2.579,-2.7203,-2.8778,-2.9331,-2.9558,-3.1023,-3.1444,-3.1801,-3.446,-3.5645,-3.6139,-3.6991,-3.7863,-3.8929,-4.0853,-4.1828,-4.2576,-4.3766,-4.413,-4.4218,-4.4602,-4.5201,-4.5869,-4.6564,-4.7784,-4.8943,-4.947,-5.0013,-5.0712,-5.1799,-5.1631,-5.1709,-5.2815,-5.2786,-5.2462,-5.1944,-5.1879,-5.1879,-5.1879,-5.1459,-5.1005,-5.0536,-5.005,-4.9758,-4.9758,-4.9758,-4.9548,-4.901,-4.9378,-4.9224,-4.8514,-4.7866,-4.733,-4.6975,-4.6429,-4.5614,-4.4672,-4.4672,-4.4297,1.1302,1.1261,1.1117,1.0879,1.0437,0.998,0.9584,0.9224,0.8716,0.8103,0.7989,0.7823,0.7321,0.6541,0.5817,0.5483,0.4702,0.4099,0.4012,0.3935,0.3935,0.4136,0.4074,0.3734,0.2871,0.2451,0.1446,-0.0434,-0.0936,-0.1509,-0.2228,-0.2228,-0.2305,-0.2317,-0.2327,-0.3711,-0.6604,-0.7183,-0.8857,-1.1657,-1.223,-1.3257,-1.4719,-1.6054,-1.7536,-1.9173,-2.0451,-2.1085,0.0,-2.1109,-2.1601,-2.2522,-2.4425,-2.5721,-2.6693,-2.8829,-2.9627,-2.9903,-3.1879,-3.2566,-3.2954,-3.5519,-3.6962,-3.7941,-3.9162,-3.9751,-4.0439,-4.2744,-4.3396,-4.3553,-4.4209,-4.4457,-4.4597,-4.4751,-4.5815,-4.6948,-4.7547,-4.9264,-5.0834,-5.1324,-5.1784,-5.2345,-5.3168,-5.2851,-5.2773,-5.3598,-5.3499,-5.3221,-5.2965,-5.2762,-5.2685,-5.2938,-5.2389,-5.2015,-5.2091,-5.1124,-5.0556,-5.0631,-5.0631,-5.0473,-5.0075,-5.0627,-5.0585,-4.9831,-4.937,-4.8969,-4.8549,-4.7681,-4.6913,-4.6232,-4.6184,-4.5717,0.0,1.1066,1.1032,1.0593,1.0265,0.9943,0.9521,0.9158,0.0,0.8103,0.7989,0.7823,0.7321,0.6262,0.5427,0.5427,0.4424,0.3889,0.4584,0.4271,0.4031,0.4196,0.3563,0.2948,0.259,0.1772,0.0714,-0.05,-0.1624,-0.2175,-0.2175,-0.2175,-0.2258,-0.2358,-0.2385,-0.3342,-0.537,-0.6877,-0.8545,-1.0416,-1.1839,-1.3425,-1.5,-1.6205,-1.7692,-1.9528,-2.0643,-2.1109,-2.1109,-2.1109,-2.1172,-2.1538,-2.4417,-2.5582,-2.6001,-2.8879,-2.9922,-3.0323,-3.3077,-3.4024,-3.447,-3.7299,-3.8844,-3.9994,-4.2244,-4.2146,-4.1766,-4.3818,-4.4411,-4.4411,-4.4411,-4.469,-4.4922,-4.4922,-4.6559,-4.8308,-4.9142,-5.1371,-5.3446,-5.4229,-5.4438,-5.4681,-5.5296,-5.4341,-5.3693,-5.4373,-5.3904,-5.3669,-5.4201,-5.3748,-5.3594,-5.426,-5.3699,-5.3412,-5.3639,-5.2194,-5.1377,-5.158,-5.1531,-5.161,-5.1778,-5.1815,-5.1503,-5.0815,-5.0598,-5.0183,-4.9482,-4.8546,-4.8044,-4.7969,-4.787,-4.7277,1.0855,0.0,1.0806,1.0655,1.026,0.9861,0.0,0.9268,0.8716,0.8103,0.7989,0.7823,0.7321,0.6596,0.5929,0.5483,0.4758,0.4394,0.464,0.48,0.4756,0.4341,0.4275,0.3568,0.1591,0.1269,0.0356,-0.1622,-0.2038,-0.2175,-0.2175,-0.2175,-0.2459,-0.3029,-0.3038,-0.4401,-0.722,-0.8137,-0.9847,-1.2395,-1.2811,-1.3658,-1.4988,-1.6306,-1.7703,-1.9191,-2.0495,-2.1109,-2.1109,-2.1109,-2.1853,-2.3201,-2.4848,-2.6252,-2.7667,-2.954,-3.0274,-3.0665,-3.3371,-3.4325,-3.4969,-3.9134,-4.0058,-4.0147,-4.3108,-4.3252,-4.2695,-4.4007,-4.4551,-4.4705,-4.4705,-4.5384,-4.6151,-4.627,-4.82,-5.0056,-5.0426,-5.241,-5.4148,-5.4365,-5.4826,-5.5231,-5.5377,-5.515,-5.4988,-5.515,-5.5037,-5.4914,-5.5024,-5.4372,-5.4392,-5.5592,-5.4328,-5.3622,-5.4258,-5.2997,-5.2281,-5.2555,-5.2015,-5.1741,-5.1778,-5.1941,-5.1948,-5.1767,-5.1569,-5.145,-5.1431,-5.0888,-5.0241,-4.9564,-4.9668,-4.9101,1.0747,1.0692,1.0692,1.0692,1.0253,0.9816,0.9816,0.932,0.8771,0.8322,0.81,0.7878,0.7435,0.6765,0.6096,0.5483,0.5184,0.4993,0.4833,0.4596,0.4411,0.4335,0.3624,0.2608,0.1179,0.0698,-0.028,-0.2086,-0.2487,-0.2685,-0.2685,-0.2959,-0.338,-0.3747,-0.4071,-0.5615,-0.8316,-0.8745,-1.0306,-1.3092,-1.3092,-1.3727,-1.4973,-1.6333,-1.7748,-1.91,-2.0462,-2.1109,-2.1109,-2.1299,-2.2223,-2.3752,-2.533,-2.6858,-2.8385,-3.002,-3.0976,-3.1757,-3.3719,-3.5113,-3.6619,-4.0071,-4.0818,-4.0869,-4.3709,-4.4195,-4.3837,-4.4397,-4.4737,-4.4968,-4.4968,-4.5763,-4.6652,-4.6769,-4.9082,-5.1272,-5.1369,-5.3205,-5.4875,-5.4875,-5.5166,-5.5409,-5.5409,-5.5409,-5.5409,-5.5409,-5.5637,-5.5873,-5.6138,-5.58,-5.5925,-5.6971,-5.6079,-5.5465,-5.5587,-5.4776,-5.3767,-5.2618,-5.2171,-5.1977,-5.2086,-5.2158,-5.2211,-5.2102,-5.1977,-5.1941,-5.1977,-5.1758,-5.1392,-5.0876,-5.0973,-5.0429,1.0692,1.0712,1.0729,1.07,1.0253,0.9816,0.9816,0.932,0.8826,0.8543,0.8208,0.7934,0.7715,0.699,0.6207,0.5539,0.5585,0.5552,0.5267,0.4552,0.4069,0.4284,0.2676,0.138,0.0902,0.0069,-0.0893,-0.2125,-0.2845,-0.3228,-0.3228,-0.3899,-0.4324,-0.4444,-0.5198,-0.6701,-0.8977,-0.8999,-1.0396,-1.3055,-1.3055,-1.3817,-1.518,-1.6405,-1.7739,-1.9239,-2.0504,-2.1042,-2.1168,-2.1713,-2.2779,-2.424,-2.6053,-2.7632,-2.897,-3.0558,-3.1845,-3.2913,-3.4235,-3.6154,-3.8332,-4.0566,-4.1322,-4.1835,-4.4274,-4.5032,-4.5093,-4.5178,-4.526,-4.5298,-4.5198,-4.6165,-4.7222,-4.7222,-4.9747,-5.2248,-5.2359,-5.3985,-5.5409,-5.5409,-5.5491,-5.5531,-5.5531,-5.5596,-5.5677,-5.5677,-5.6123,-5.6652,-5.7243,-5.7292,-5.7516,-5.8246,-5.8055,-5.7662,-5.7173,-5.6645,-5.5281,-5.2786,-5.2423,-5.2338,-5.2409,-5.2409,-5.2302,-5.2139,-5.2102,-5.203,-5.1888,-5.1851,-5.1868,-5.1868,-5.1904,-5.1417,1.0692,1.0806,1.0887,1.0729,1.0253,0.9816,0.9816,0.932,0.8826,0.8543,0.8208,0.7989,0.7934,0.7432,0.6765,0.5877,0.5811,0.5899,0.6057,0.6041,0.5463,0.3975,0.3145,0.1862,-0.0133,-0.0407,-0.0889,-0.2096,-0.2829,-0.3228,-0.3228,-0.3899,-0.4575,-0.5194,-0.6049,-0.7395,-0.9333,-0.9446,-1.0628,-1.2877,-1.2877,-1.4074,-1.6228,-1.6482,-1.7827,-2.0069,-2.0573,-2.0928,-2.1314,-2.2733,-2.4363,-2.6175,-2.7572,-2.9098,-3.0684,-3.195,-3.2524,-3.3016,-3.5179,-3.6827,-3.8384,-4.0755,-4.1858,-4.2755,-4.5155,-4.606,-4.6361,-4.6864,-4.6649,-4.6163,-4.5602,-4.7258,-4.9093,-4.9163,-5.1174,-5.3269,-5.3898,-5.4762,-5.5409,-5.5409,-5.5821,-5.6162,-5.6162,-5.6575,-5.6904,-5.6904,-5.698,-5.7297,-5.7887,-5.7666,-5.7947,-5.9231,-5.8744,-5.8276,-5.817,-5.7196,-5.6088,-5.5048,-5.3872,-5.2939,-5.2409,-5.2409,-5.239,-5.2338,-5.2175,-5.2175,-5.2302,-5.2139,-5.2066,-5.2066,-5.223,-5.2033,1.0692,1.0753,1.0798,1.0712,1.0323,0.9921,0.9835,0.932,0.8881,0.8768,0.8322,0.7989,0.7989,0.76,0.7201,0.6985,0.6473,0.6232,0.6796,0.573,0.4663,0.3813,0.2142,0.0606,-0.0462,-0.1074,-0.1617,-0.2109,-0.3113,-0.3725,-0.3791,-0.4786,-0.5778,-0.664,-0.7058,-0.8174,-1.0101,-1.0171,-1.0984,-1.2552,-1.3242,-1.4584,-1.6425,-1.7236,-1.8668,-2.049,-2.0972,-2.1704,-2.2569,-2.3694,-2.546,-2.7632,-2.8367,-2.9982,-3.2065,-3.3909,-3.467,-3.5146,-3.7453,-3.8703,-3.9636,-4.191,-4.3047,-4.3873,-4.5312,-4.6734,-4.781,-4.7859,-4.7389,-4.6873,-4.6917,-4.8331,-4.9815,-5.02,-5.1853,-5.3475,-5.4244,-5.494,-5.5409,-5.5409,-5.5901,-5.6319,-5.6319,-5.6806,-5.7206,-5.7206,-5.7651,-5.8122,-5.8388,-5.8718,-5.9149,-5.9796,-5.9692,-5.9415,-5.8976,-5.862,-5.738,-5.5041,-5.3984,-5.3264,-5.2939,-5.2605,-5.257,-5.2921,-5.2499,-5.2499,-5.2956,-5.2464,-5.2283,-5.2283,-5.2354,-5.2302,1.0692,1.0724,1.0749,1.0704,1.0405,1.0085,0.9891,0.9432,0.9053,0.9035,0.8565,0.8146,0.8146,0.7666,0.7335,0.7812,0.6917,0.6534,0.7453,0.5393,0.372,0.3562,0.119,-0.0595,-0.0857,-0.1664,-0.2188,-0.2133,-0.3388,-0.4196,-0.4262,-0.5566,-0.674,-0.7714,-0.7948,-0.8916,-1.0587,-1.0866,-1.1395,-1.2308,-1.3604,-1.4931,-1.6362,-1.7832,-1.927,-2.0633,-2.1473,-2.2442,-2.3548,-2.4806,-2.655,-2.8419,-2.9129,-3.0917,-3.3346,-3.5498,-3.6738,-3.7666,-3.9456,-4.0389,-4.1093,-4.2965,-4.4075,-4.4807,-4.5835,-4.7477,-4.8969,-4.9056,-4.8687,-4.8377,-4.8496,-4.9572,-5.069,-5.1078,-5.2389,-5.3774,-5.4486,-5.5053,-5.545,-5.5596,-5.61,-5.6575,-5.6691,-5.7206,-5.7651,-5.7741,-5.8423,-5.8927,-5.9029,-5.9731,-6.0234,-6.0234,-6.0516,-6.0382,-5.9597,-5.9751,-5.8598,-5.561,-5.4625,-5.3984,-5.3649,-5.2973,-5.2956,-5.3599,-5.2817,-5.2729,-5.3382,-5.2729,-5.2409,-5.2409,-5.2409,-5.2409,1.0692,1.0818,1.0907,1.0737,1.0484,1.0204,1.0014,0.9758,0.9514,0.9378,0.901,0.8628,0.8628,0.7723,0.7159,0.7812,0.6917,0.6642,0.8249,0.5754,0.3683,0.3281,0.1006,-0.0869,-0.1914,-0.2045,-0.2099,-0.2131,-0.3356,-0.4132,-0.4132,-0.5419,-0.6637,-0.7596,-0.8443,-0.938,-1.0433,-1.1279,-1.1918,-1.2308,-1.3604,-1.4913,-1.6343,-1.7619,-1.8991,-2.0412,-2.1809,-2.2643,-2.3278,-2.6341,-2.7827,-2.8465,-3.0121,-3.2217,-3.4447,-3.6022,-3.793,-3.9828,-4.0249,-4.098,-4.203,-4.3442,-4.4313,-4.5259,-4.7375,-4.8537,-4.9449,-5.0871,-5.1476,-5.1324,-4.985,-5.1058,-5.257,-5.2058,-5.3157,-5.4519,-5.5199,-5.5377,-5.5572,-5.6123,-5.6729,-5.7318,-5.7887,-5.8492,-5.8995,-5.9385,-5.9502,-5.9668,-5.9961,-6.0311,-6.0547,-6.0547,-6.0854,-6.0742,-5.994,-5.9886,-5.9465,-5.8452,-5.7117,-5.5776,-5.4376,-5.3665,-5.3632,-5.4328,-5.3042,-5.2729,-5.3382,-5.2729,-5.2409,-5.2409,-5.2409,-5.2409,1.0664,1.0668,1.0647,1.0684,1.0637,1.0465,1.0085,0.9663,0.9337,0.9286,0.904,0.8721,0.8314,0.7915,0.7708,0.8002,0.7387,0.7115,0.7823,0.557,0.348,0.2651,0.073,-0.0922,-0.1929,-0.2069,-0.2061,-0.2014,-0.3291,-0.407,-0.407,-0.5968,-0.7481,-0.8426,-0.9384,-1.0307,-1.126,-1.1627,-1.2314,-1.3409,-1.4564,-1.5419,-1.6213,-1.8477,-1.9897,-2.0622,-2.2371,-2.3614,-2.4678,-2.6796,-2.8244,-2.9372,-3.1921,-3.4108,-3.5968,-3.7406,-3.9015,-4.0591,-4.1379,-4.2398,-4.3565,-4.4745,-4.557,-4.6278,-4.7259,-4.9038,-5.073,-5.1063,-5.2594,-5.3661,-5.158,-5.2102,-5.3078,-5.2861,-5.3616,-5.4704,-5.5714,-5.5981,-5.6123,-5.6729,-5.7372,-5.7814,-5.8084,-5.8597,-5.9149,-5.9535,-5.9766,-6.0025,-6.036,-6.0701,-6.0914,-6.0914,-6.1004,-6.0986,-6.0665,-6.0647,-6.0308,-5.9523,-5.7671,-5.636,-5.5772,-5.4632,-5.4136,-5.4391,-5.3483,-5.3145,-5.3382,-5.2729,-5.2409,-5.2409,-5.2409,-5.2605,1.0595,1.0562,1.0546,1.0664,1.0571,1.0437,1.016,0.9795,0.9535,0.9402,0.9084,0.8623,0.8212,0.7993,0.7971,0.8073,0.7617,0.7259,0.7491,0.5062,0.2976,0.2301,0.0328,-0.1296,-0.196,-0.2037,-0.2029,-0.198,-0.3223,-0.3977,-0.3977,-0.6113,-0.783,-0.8851,-0.9731,-1.0717,-1.1691,-1.2103,-1.2917,-1.4084,-1.5563,-1.6546,-1.6962,-1.9319,-2.0773,-2.1524,-2.3164,-2.4574,-2.5845,-2.7361,-2.8857,-3.0369,-3.3289,-3.5233,-3.6612,-3.8666,-4.0211,-4.1479,-4.2606,-4.3768,-4.4943,-4.5685,-4.6397,-4.7036,-4.7454,-4.938,-5.1401,-5.162,-5.3303,-5.4697,-5.3091,-5.3295,-5.3959,-5.3929,-5.4456,-5.5289,-5.636,-5.6575,-5.6768,-5.7372,-5.7814,-5.8192,-5.851,-5.8927,-5.9351,-5.9831,-6.0089,-6.0392,-6.0701,-6.0944,-6.1093,-6.1093,-6.1093,-6.1093,-6.1093,-6.1093,-6.0861,-6.0308,-5.8627,-5.7417,-5.6941,-5.5746,-5.5069,-5.5026,-5.396,-5.3516,-5.3698,-5.2817,-5.2489,-5.2705,-5.2705,-5.3086,1.0427,1.0558,1.0688,1.0692,1.0329,1.005,1.0267,1.0301,1.0219,0.9878,0.9107,0.85,0.8442,0.7924,0.7638,0.8056,0.7486,0.7091,0.7467,0.432,0.207,0.2164,-0.0325,-0.205,-0.202,-0.2017,-0.2005,-0.1977,-0.3099,-0.3791,-0.3791,-0.5863,-0.7559,-0.8688,-0.9445,-1.0383,-1.1496,-1.2747,-1.3542,-1.3926,-1.6643,-1.8224,-1.8835,-2.0127,-2.1566,-2.303,-2.4236,-2.5397,-2.6609,-2.824,-2.9809,-3.147,-3.3922,-3.5269,-3.6239,-3.9601,-4.1479,-4.2606,-4.3876,-4.5003,-4.5925,-4.5925,-4.6506,-4.7362,-4.8263,-4.9634,-5.1223,-5.2842,-5.3839,-5.4389,-5.4389,-5.4891,-5.5377,-5.5308,-5.5809,-5.6459,-5.7055,-5.7222,-5.7409,-5.7995,-5.8103,-5.844,-5.9418,-5.9602,-5.9831,-6.0485,-6.0578,-6.0732,-6.1064,-6.1093,-6.1093,-6.1093,-6.1093,-6.1093,-6.1093,-6.1093,-6.1093,-6.1093,-6.0362,-5.922,-5.7695,-5.6982,-5.6535,-5.6391,-5.4422,-5.3731,-5.4391,-5.3042,-5.2738,-5.3417,-5.3417,-5.3814,1.0395,1.0419,1.0542,1.0664,1.0496,1.0334,1.0325,0.9957,0.9669,0.9632,0.9399,0.9,0.8688,0.8411,0.8181,0.8016,0.7435,0.6916,0.6627,0.3976,0.1897,0.1509,-0.0559,-0.1958,-0.1928,-0.2285,-0.258,-0.2569,-0.3743,-0.4677,-0.5324,-0.6998,-0.846,-0.9435,-1.0323,-1.096,-1.1301,-1.2673,-1.3972,-1.5177,-1.7232,-1.8447,-1.8835,-2.0127,-2.1566,-2.303,-2.4236,-2.5397,-2.6718,-2.9383,-3.139,-3.3103,-3.537,-3.7061,-3.8479,-4.0401,-4.1752,-4.2827,-4.3923,-4.5403,-4.6828,-4.6828,-4.7405,-4.8304,-4.9197,-5.0166,-5.1017,-5.1633,-5.2689,-5.3644,-5.3644,-5.4649,-5.5616,-5.5353,-5.6155,-5.711,-5.7704,-5.785,-5.8103,-5.8978,-5.9165,-5.93,-5.9864,-5.9961,-6.0089,-6.0516,-6.0578,-6.0732,-6.1064,-6.1093,-6.1093,-6.1093,-6.1093,-6.1093,-6.1093,-6.1093,-6.1093,-6.1093,-6.0879,-6.029,-5.9255,-5.7978,-5.7049,-5.657,-5.5396,-5.4454,-5.3698,-5.3298,-5.322,-5.3417,-5.3417,-5.4059,1.0347,1.0428,1.0582,1.0757,1.0599,1.0357,0.9993,0.9762,0.9581,0.9676,0.9512,0.9219,0.8825,0.8567,0.8351,0.8038,0.7554,0.6912,0.5785,0.3738,0.1897,0.0672,-0.0904,-0.1906,-0.1887,-0.2473,-0.2824,-0.2824,-0.3919,-0.5008,-0.5931,-0.7388,-0.8705,-0.9684,-1.0766,-1.1551,-1.1955,-1.3557,-1.5105,-1.6477,-1.816,-1.9144,-1.9603,-2.0987,-2.2346,-2.3799,-2.5507,-2.6924,-2.8189,-3.0345,-3.2224,-3.3948,-3.5726,-3.7565,-3.9448,-4.0936,-4.2334,-4.3545,-4.4559,-4.5913,-4.7204,-4.7204,-4.8027,-4.9141,-4.9749,-5.0485,-5.1218,-5.162,-5.2411,-5.3242,-5.3809,-5.5107,-5.6261,-5.63,-5.7167,-5.8176,-5.8772,-5.8892,-5.9063,-5.9683,-5.9799,-5.9896,-6.0234,-6.045,-6.0661,-6.0998,-6.1028,-6.1058,-6.1093,-6.1093,-6.1093,-6.1093,-6.1093,-6.1093,-6.1093,-6.1093,-6.1093,-6.1093,-6.0808,-6.0415,-5.9933,-5.8702,-5.7694,-5.7011,-5.5953,-5.4978,-5.42,-5.3665,-5.3684,-5.425,-5.3941,-5.4643,1.0265,1.0432,1.0757,1.0928,1.0654,1.0211,0.9576,0.9668,0.9795,0.9768,0.9493,0.9161,0.8918,0.8546,0.8188,0.8096,0.7826,0.6969,0.4917,0.3611,0.206,-0.006,-0.1243,-0.1877,-0.1877,-0.2462,-0.2871,-0.2871,-0.3986,-0.5093,-0.6057,-0.7371,-0.8644,-0.9743,-1.1049,-1.2188,-1.313,-1.5056,-1.6511,-1.7553,-1.9078,-2.0123,-2.0807,-2.2257,-2.3654,-2.5049,-2.7609,-2.9323,-3.0401,-3.1263,-3.259,-3.4245,-3.5577,-3.7394,-3.9451,-4.1383,-4.2993,-4.4382,-4.5597,-4.658,-4.7319,-4.7448,-4.8651,-5.0042,-5.0081,-5.0755,-5.1666,-5.2361,-5.2674,-5.312,-5.4598,-5.6019,-5.7206,-5.7829,-5.8651,-5.9415,-5.9975,-6.0089,-6.0089,-6.0121,-6.0171,-6.0248,-6.064,-6.1004,-6.1347,-6.1712,-6.1768,-6.16,-6.1252,-6.1182,-6.1152,-6.1152,-6.1123,-6.1093,-6.1093,-6.1093,-6.1093,-6.1093,-6.0415,-6.0023,-6.0023,-5.9084,-5.8292,-5.7624,-5.6204,-5.5443,-5.5402,-5.4237,-5.4296,-5.5511,-5.4948,-5.543,1.0265,1.058,1.0975,1.1016,1.092,1.0675,1.0089,0.9965,0.9884,0.9405,0.9404,0.9281,0.8605,0.8536,0.8396,0.776,0.7589,0.6803,0.4704,0.3506,0.2078,-0.0116,-0.126,-0.1814,-0.1814,-0.2777,-0.3456,-0.3456,-0.5189,-0.6631,-0.7516,-0.8546,-0.9761,-1.113,-1.2064,-1.2871,-1.3557,-1.5767,-1.6955,-1.7225,-1.8985,-2.0301,-2.1291,-2.2174,-2.4014,-2.649,-2.8057,-2.9428,-3.0753,-3.2417,-3.3843,-3.5165,-3.7674,-3.8939,-3.9677,-4.2167,-4.33,-4.3927,-4.6138,-4.7475,-4.8388,-4.9191,-5.0245,-5.1183,-5.1355,-5.154,-5.1868,-5.2563,-5.2757,-5.3252,-5.5262,-5.6519,-5.7642,-5.8967,-5.9631,-5.9943,-6.0057,-6.0089,-6.0185,-6.0454,-6.0485,-6.0714,-6.1361,-6.1544,-6.1722,-6.2176,-6.2192,-6.2166,-6.2122,-6.1814,-6.1561,-6.1561,-6.1281,-6.1093,-6.1093,-6.1093,-6.1093,-6.1093,-6.0933,-6.0843,-6.0843,-5.8899,-5.7757,-5.7606,-5.6682,-5.5929,-5.5385,-5.5741,-5.5768,-5.5511,-5.6012,-5.6385,1.0318,1.0558,1.0858,1.0779,1.1005,1.0985,1.0062,0.9968,0.99,0.9209,0.9289,0.9297,0.8512,0.85,0.8351,0.7585,0.6882,0.5743,0.3889,0.2519,0.102,-0.0852,-0.1522,-0.1795,-0.1795,-0.2915,-0.3587,-0.3587,-0.5541,-0.7099,-0.7974,-0.8916,-1.008,-1.1568,-1.2635,-1.3706,-1.4728,-1.6599,-1.772,-1.8153,-1.9628,-2.1346,-2.3178,-2.3845,-2.5478,-2.7824,-2.9092,-3.0432,-3.1858,-3.3492,-3.5087,-3.6578,-3.8071,-3.9389,-4.0667,-4.2349,-4.3567,-4.4582,-4.6663,-4.7985,-4.8979,-4.9962,-5.0876,-5.1704,-5.2164,-5.2343,-5.2574,-5.323,-5.377,-5.4428,-5.5921,-5.7196,-5.8316,-5.9038,-5.9915,-6.0561,-6.0561,-6.0561,-6.0622,-6.0793,-6.0823,-6.0956,-6.135,-6.1758,-6.2176,-6.261,-6.2668,-6.2574,-6.243,-6.2194,-6.206,-6.206,-6.1646,-6.1379,-6.1379,-6.1193,-6.1093,-6.1093,-6.0736,-6.054,-6.054,-5.8988,-5.831,-5.8684,-5.756,-5.6993,-5.6969,-5.7092,-5.7116,-5.7068,-5.683,-5.6886,1.0428,1.0586,1.0726,1.063,1.1059,1.1129,0.9951,0.9882,0.9894,0.9078,0.9154,0.9157,0.8435,0.8335,0.8171,0.7575,0.61,0.4562,0.3082,0.1467,-0.0168,-0.1626,-0.1795,-0.1795,-0.1795,-0.2915,-0.3643,-0.381,-0.5761,-0.7318,-0.8198,-0.9192,-1.046,-1.1941,-1.3334,-1.4776,-1.6234,-1.7562,-1.8579,-1.9324,-2.0637,-2.2664,-2.532,-2.5852,-2.7151,-2.9084,-3.0296,-3.1684,-3.3216,-3.4325,-3.6011,-3.7808,-3.7978,-3.9433,-4.1518,-4.2314,-4.379,-4.559,-4.7084,-4.8419,-4.9543,-5.039,-5.1215,-5.198,-5.268,-5.3026,-5.3332,-5.4119,-5.4868,-5.5685,-5.6538,-5.7721,-5.8706,-5.8861,-5.9933,-6.0897,-6.0897,-6.1004,-6.1093,-6.1093,-6.1241,-6.131,-6.131,-6.2033,-6.2712,-6.3051,-6.3099,-6.2984,-6.2636,-6.2534,-6.2508,-6.2508,-6.2095,-6.1823,-6.1823,-6.1437,-6.1193,-6.1193,-6.0498,-6.0112,-6.0112,-5.9316,-5.928,-6.0094,-5.8577,-5.8096,-5.8692,-5.8284,-5.8334,-5.8776,-5.7621,-5.7348,1.0445,1.068,1.0972,1.109,1.1166,1.1031,1.0209,1.0051,0.9894,0.9078,0.9069,0.8974,0.8174,0.8198,0.8067,0.7332,0.5953,0.4431,0.2917,0.14,-0.0168,-0.1626,-0.1795,-0.1795,-0.1795,-0.2915,-0.3921,-0.4643,-0.6644,-0.8254,-0.9137,-1.0519,-1.1937,-1.3383,-1.4835,-1.628,-1.772,-1.8684,-1.9168,-1.9331,-2.1591,-2.3818,-2.6091,-2.6671,-2.8145,-3.028,-3.089,-3.2426,-3.4532,-3.4727,-3.6011,-3.79,-3.8675,-3.9736,-4.0929,-4.2608,-4.4189,-4.5781,-4.7509,-4.9048,-5.0429,-5.1508,-5.1977,-5.223,-5.3043,-5.3349,-5.3632,-5.4887,-5.5306,-5.573,-5.7111,-5.7608,-5.8118,-5.9423,-5.9916,-6.0076,-6.0076,-6.0611,-6.1093,-6.1093,-6.172,-6.222,-6.222,-6.2886,-6.3465,-6.3511,-6.3511,-6.3511,-6.3465,-6.3123,-6.291,-6.291,-6.2504,-6.2245,-6.23,-6.1878,-6.1618,-6.1618,-6.1203,-6.0933,-6.0933,-6.0183,-6.013,-6.0915,-5.938,-5.8602,-5.8692,-5.9311,-5.9324,-5.8794,-5.8662,-5.8321,1.0612,1.0692,1.0834,1.0907,1.1005,1.0863,1.0125,0.9921,0.9735,0.9061,0.8873,0.8614,0.8109,0.8094,0.7724,0.6381,0.4751,0.3187,0.1902,0.0224,-0.1065,-0.1739,-0.2076,-0.23,-0.23,-0.3864,-0.4977,-0.5365,-0.7529,-0.9082,-0.9798,-1.0958,-1.2372,-1.4143,-1.5322,-1.6605,-1.7982,-1.884,-1.9983,-2.1336,-2.3112,-2.4902,-2.6626,-2.84,-2.9668,-3.0525,-3.1373,-3.2853,-3.4872,-3.6011,-3.7309,-3.8675,-3.9637,-4.0646,-4.1745,-4.2886,-4.4444,-4.6203,-4.7824,-4.9415,-5.1032,-5.2381,-5.2852,-5.3025,-5.4168,-5.4516,-5.4734,-5.5711,-5.6276,-5.6787,-5.7433,-5.7899,-5.8292,-5.8542,-5.9273,-5.9849,-5.9667,-6.0422,-6.1182,-6.1379,-6.1951,-6.2456,-6.2686,-6.3026,-6.3331,-6.3557,-6.3602,-6.3602,-6.3602,-6.3465,-6.3331,-6.3331,-6.2941,-6.27,-6.2737,-6.2334,-6.1987,-6.1712,-6.1533,-6.1339,-6.1093,-6.0754,-6.0736,-6.1093,-5.9969,-5.9612,-6.0058,-6.0415,-6.041,-6.0086,-5.9759,-5.9246,1.0694,1.0714,1.0802,1.0692,1.0742,1.0639,0.9953,0.9761,0.9541,0.8995,0.8712,0.8374,0.8045,0.7934,0.7324,0.565,0.3858,0.2292,0.1063,-0.0672,-0.1795,-0.1795,-0.2356,-0.2806,-0.3027,-0.4698,-0.5977,-0.6475,-0.8306,-0.9691,-1.0292,-1.1286,-1.2698,-1.4626,-1.5595,-1.6823,-1.8311,-1.9302,-2.0925,-2.3184,-2.4336,-2.5887,-2.7817,-2.9677,-3.0861,-3.145,-3.2399,-3.3836,-3.5678,-3.723,-3.8541,-3.9637,-4.0461,-4.145,-4.2491,-4.3234,-4.4825,-4.6786,-4.8166,-4.9957,-5.1862,-5.3026,-5.3516,-5.3862,-5.5056,-5.5385,-5.5549,-5.6199,-5.6829,-5.7321,-5.7321,-5.7703,-5.8052,-5.7807,-5.8622,-5.9547,-5.9907,-6.0734,-6.1523,-6.1823,-6.2229,-6.2636,-6.2953,-6.3075,-6.3242,-6.3557,-6.3602,-6.3602,-6.3602,-6.3602,-6.3602,-6.3602,-6.3331,-6.3147,-6.3147,-6.2787,-6.2386,-6.2068,-6.1823,-6.1561,-6.1252,-6.1182,-6.1152,-6.1152,-6.0563,-6.0534,-6.1093,-6.1123,-6.1152,-6.1152,-6.0564,-6.003,1.0547,1.0729,1.1017,1.0747,1.0535,1.0268,0.9871,0.9596,0.9323,0.8995,0.8712,0.8374,0.8045,0.7771,0.716,0.565,0.3858,0.2292,0.1063,-0.0672,-0.1795,-0.1795,-0.2356,-0.3027,-0.3855,-0.5085,-0.6531,-0.8247,-0.9027,-0.975,-1.0637,-1.1728,-1.3181,-1.4931,-1.6074,-1.747,-1.922,-2.0534,-2.2104,-2.3877,-2.4817,-2.6956,-3.0035,-2.9722,-3.1145,-3.3958,-3.4462,-3.5784,-3.7658,-3.7939,-3.905,-4.0589,-4.1071,-4.1742,-4.2555,-4.3723,-4.5565,-4.7574,-4.8622,-5.0857,-5.3281,-5.3382,-5.383,-5.4485,-5.5177,-5.5385,-5.5549,-5.6199,-5.6418,-5.6454,-5.6454,-5.649,-5.6796,-5.7899,-5.8185,-5.8808,-6.1071,-6.196,-6.2326,-6.2352,-6.2686,-6.2978,-6.3002,-6.3307,-6.3579,-6.3598,-6.3602,-6.3602,-6.3602,-6.3602,-6.3602,-6.3602,-6.3579,-6.3557,-6.3557,-6.3194,-6.2978,-6.2935,-6.2176,-6.1684,-6.1656,-6.1408,-6.1281,-6.1281,-6.1245,-6.1187,-6.1093,-6.1241,-6.1281,-6.1281,-6.0734,-6.0472,1.0912,1.0887,1.0933,1.0773,1.0472,1.0202,0.9871,0.9596,0.9323,0.8995,0.8491,0.8156,0.8045,0.7152,0.598,0.4474,0.274,0.1119,-0.0112,-0.1121,-0.1964,-0.2356,-0.2917,-0.3754,-0.5029,-0.642,-0.775,-0.8972,-0.9801,-1.0688,-1.1732,-1.2694,-1.4083,-1.6021,-1.7035,-1.8251,-1.9776,-2.1505,-2.2922,-2.4049,-2.5532,-2.6996,-2.8413,-3.0485,-3.1867,-3.2795,-3.5506,-3.723,-3.8043,-3.8725,-3.9828,-4.1113,-4.1908,-4.243,-4.2915,-4.3834,-4.5423,-4.7162,-4.8003,-4.9902,-5.2078,-5.3039,-5.3742,-5.4482,-5.5667,-5.6042,-5.6088,-5.6328,-5.6401,-5.6465,-5.6715,-5.6794,-5.7223,-5.8939,-5.9935,-6.0865,-6.2248,-6.2661,-6.2787,-6.2787,-6.3099,-6.3377,-6.3377,-6.3511,-6.3602,-6.3602,-6.3602,-6.3602,-6.3602,-6.3602,-6.3602,-6.3602,-6.3602,-6.3602,-6.3602,-6.3465,-6.3284,-6.3026,-6.2464,-6.2087,-6.1914,-6.1512,-6.1357,-6.1491,-6.1473,-6.1415,-6.1241,-6.1299,-6.1281,-6.1281,-6.1321,-6.1099,1.1206,1.1096,1.1037,1.0773,1.0472,1.0202,0.9871,0.9596,0.9323,0.8995,0.8436,0.7878,0.7485,0.6144,0.4752,0.3748,0.207,0.0504,-0.0729,-0.1402,-0.202,-0.2637,-0.3475,-0.4644,-0.6086,-0.7584,-0.8916,-1.0076,-1.0688,-1.1564,-1.2753,-1.3604,-1.4995,-1.7094,-1.8146,-1.9287,-2.0483,-2.235,-2.3701,-2.4531,-2.6173,-2.7517,-2.8621,-3.1029,-3.2394,-3.3097,-3.6339,-3.8039,-3.8635,-3.9683,-4.0746,-4.1867,-4.2592,-4.3115,-4.3521,-4.4396,-4.5755,-4.7325,-4.8282,-4.9858,-5.168,-5.3116,-5.4022,-5.4772,-5.6023,-5.6401,-5.6401,-5.6401,-5.6492,-5.6662,-5.6925,-5.7387,-5.8135,-5.9481,-6.0924,-6.2165,-6.2677,-6.301,-6.3194,-6.3194,-6.3419,-6.3602,-6.3602,-6.3602,-6.3602,-6.3602,-6.3602,-6.3602,-6.3602,-6.3602,-6.3602,-6.3602,-6.3602,-6.3602,-6.3602,-6.3602,-6.3488,-6.3237,-6.291,-6.2541,-6.2212,-6.1896,-6.1692,-6.1662,-6.1662,-6.1605,-6.1473,-6.1473,-6.1473,-6.1473,-6.1728,-6.1512,0.0,0.0,0.0,1.0857,1.0472,1.0202,0.9871,0.9596,0.9323,0.894,0.838,0.7595,0.6475,0.4804,0.3525,0.3525,0.2014,0.0448,-0.0729,-0.1402,-0.202,-0.2637,-0.4032,-0.5475,-0.6972,-0.8527,-1.0021,-1.1514,-1.1623,-1.2264,-1.3647,-1.4352,-1.5749,-1.7982,-1.945,-2.0534,-2.1336,-2.3235,-2.4522,-2.5344,-2.6668,-2.8621,-3.0962,-3.1228,-3.2683,-3.5194,-3.6893,-3.8394,-3.9626,-4.0845,-4.1867,-4.2769,-4.313,-4.3654,-4.4335,-4.5332,-4.663,-4.8074,-4.9454,-5.0847,-5.2321,-5.3696,-5.4641,-5.5348,-5.6151,-5.6401,-5.6401,-5.641,-5.6689,-5.7003,-5.7028,-5.8227,-5.9435,-5.9476,-6.0981,-6.245,-6.2454,-6.3085,-6.3602,-6.3602,-6.3602,-6.3602,-6.3602,-6.3602,-6.3602,-6.3602,-6.3602,-6.3602,-6.3602,-6.3602,-6.3602,-6.3602,-6.3602,-6.3602,-6.3602,-6.3602,-6.3602,-6.3602,-6.3414,-6.3115,-6.2636,-6.2548,-6.229,-6.1858,-6.183,-6.1802,-6.1802,-6.1802,-6.1802,-6.1802,-6.1941,-6.1664,1.1514,0.0,0.0,0.0,0.0,0.0,0.9871,0.9596,0.9268,0.8709,0.7648,0.6586,0.6031,0.3968,0.2238,0.1958,0.0616,-0.0504,-0.0841,-0.1402,-0.2187,-0.3251,-0.4254,-0.5641,-0.7584,-0.8751,-1.0021,-1.1514,-1.2155,-1.3014,-1.4304,-1.6062,-1.7818,-1.945,-2.0826,-2.1844,-2.2467,-2.4501,-2.5635,-2.5887,-2.7138,-2.8514,-2.9955,-3.1236,-3.3188,-3.5723,-3.7786,-3.9547,-4.1028,-4.1378,-4.2167,-4.313,-4.325,-4.3771,-4.451,-4.5369,-4.631,-4.7257,-4.8216,-4.9774,-5.145,-5.2436,-5.3855,-5.5348,-5.6151,-5.6401,-5.6465,-5.6742,-5.6925,-5.7112,-5.7642,-5.9237,-6.0747,-6.0883,-6.2218,-6.3518,-6.3686,-6.3876,-6.3939,-6.3669,-6.3602,-6.3602,-6.3602,-6.3602,-6.3602,-6.3602,-6.3602,-6.3602,-6.3602,-6.3602,-6.3602,-6.3602,-6.3602,-6.3602,-6.3602,-6.3602,-6.365,-6.3808,-6.3486,-6.3335,-6.3453,-6.2843,-6.2486,-6.2453,-6.2105,-6.1941,-6.1941,-6.1858,-6.1802,-6.1802,-6.1941,-6.1895,1.1623,1.135,1.1021,1.0747,0.0,0.0,0.9926,0.9651,0.9206,0.798,0.6977,0.5917,0.4524,0.2908,0.1512,0.0728,-0.0224,-0.0953,-0.1065,-0.1683,-0.2691,-0.3976,-0.5142,-0.6531,-0.8416,-0.9633,-1.0899,-1.2368,-1.3122,-1.4245,-1.5908,-1.7615,-1.9042,-2.0078,-2.1387,-2.2492,-2.3411,-2.5197,-2.6294,-2.663,-2.7328,-2.8535,-3.0191,-3.1343,-3.3469,-3.633,-3.8437,-4.0138,-4.1432,-4.205,-4.2684,-4.3329,-4.3669,-4.4297,-4.5095,-4.5861,-4.6655,-4.7388,-4.8129,-4.9545,-5.1168,-5.2242,-5.3782,-5.5348,-5.6151,-5.6455,-5.6555,-5.6992,-5.7413,-5.7845,-5.8458,-5.9752,-6.1037,-6.1515,-6.2602,-6.3559,-6.3662,-6.3965,-6.4128,-6.3915,-6.3786,-6.3739,-6.3739,-6.3669,-6.3602,-6.3602,-6.3602,-6.3624,-6.3717,-6.3739,-6.3761,-6.3851,-6.3851,-6.3808,-6.372,-6.3808,-6.3854,-6.3897,-6.3859,-6.3841,-6.3803,-6.3412,-6.3041,-6.272,-6.2446,-6.2212,-6.1996,-6.1913,-6.1886,-6.1886,-6.1969,-6.1996,1.1678,1.1345,1.1021,1.0747,1.0692,0.0,0.9926,0.9702,0.9034,0.7091,0.6253,0.5135,0.2626,0.1847,0.1176,-0.0224,-0.0785,-0.1065,-0.129,-0.2187,-0.3362,-0.4754,-0.6362,-0.7913,-0.9361,-1.0899,-1.2368,-1.3701,-1.4513,-1.5908,-1.814,-1.8952,-1.968,-2.0233,-2.1591,-2.2935,-2.4187,-2.5538,-2.663,-2.7394,-2.7494,-2.8842,-3.1148,-3.163,-3.3806,-3.7174,-3.8894,-4.0269,-4.1445,-4.2862,-4.3369,-4.3369,-4.4182,-4.4999,-4.5805,-4.6534,-4.7303,-4.8099,-4.8606,-4.9773,-5.121,-5.2472,-5.3924,-5.5348,-5.6071,-5.642,-5.6715,-5.7259,-5.8058,-5.8852,-5.9197,-5.991,-6.0698,-6.1506,-6.2314,-6.2934,-6.3048,-6.363,-6.4176,-6.427,-6.4087,-6.3939,-6.3899,-6.3742,-6.3624,-6.3624,-6.3624,-6.3695,-6.3918,-6.392,-6.4004,-6.417,-6.419,-6.4128,-6.3942,-6.4108,-6.4149,-6.4002,-6.4385,-6.4405,-6.393,-6.4091,-6.3779,-6.2873,-6.2769,-6.2504,-6.2069,-6.2051,-6.1996,-6.1996,-6.1996,-6.1996,1.1623,1.1185,1.0747,1.0692,1.0692,0.0,0.9926,0.9034,0.7974,0.6642,0.4801,0.3074,0.207,0.1064,0.0112,-0.0673,-0.129,-0.157,-0.1346,-0.2686,-0.4024,-0.4808,-0.7243,-0.9178,-0.9959,-1.2023,-1.3599,-1.4358,-1.6221,-1.8028,-1.9613,-1.9828,-2.0395,-2.1369,-2.2902,-2.4038,-2.4737,-2.6274,-2.7347,-2.7857,-2.8776,-3.0161,-3.1894,-3.2641,-3.5126,-3.8879,-3.9017,-4.0507,-4.2922,-4.3905,-4.3888,-4.3369,-4.4182,-4.4999,-4.5805,-4.6534,-4.7303,-4.8001,-4.813,-4.9438,-5.1035,-5.1338,-5.3141,-5.5268,-5.5517,-5.6072,-5.6794,-5.7695,-5.8524,-5.9197,-5.9272,-5.991,-6.0586,-6.0922,-6.1637,-6.2503,-6.3309,-6.3609,-6.3912,-6.463,-6.4425,-6.4087,-6.3939,-6.3875,-6.3832,-6.3832,-6.3832,-6.3918,-6.4128,-6.413,-6.4169,-6.4209,-6.419,-6.417,-6.413,-6.4189,-6.4288,-6.4463,-6.4558,-6.4634,-6.467,-6.4367,-6.4109,-6.3907,-6.3112,-6.2645,-6.2563,-6.2185,-6.1996,-6.1996,-6.1996,-6.1996,1.1623,1.1185,0.0,1.0692,1.0582,0.0,0.0,0.8312,0.7196,0.4968,0.3519,0.2349,0.112,0.0392,-0.0224,-0.0785,-0.1402,-0.2018,-0.2574,-0.3968,-0.5194,-0.5919,-0.8241,-1.0065,-1.0844,-1.2896,-1.4888,-1.6592,-1.793,-1.9205,-2.0447,-2.0241,-2.0798,-2.2274,-2.3452,-2.4541,-2.5499,-2.6726,-2.7536,-2.7998,-2.8589,-2.998,-3.2134,-3.2608,-3.5079,-3.8936,-3.9185,-4.066,-4.2944,-4.4044,-4.4259,-4.4028,-4.519,-4.5881,-4.6324,-4.7118,-4.782,-4.845,-4.845,-4.9773,-5.1453,-5.1453,-5.2903,-5.4793,-5.5266,-5.6207,-5.7309,-5.8113,-5.877,-5.929,-5.9525,-5.9899,-6.0331,-6.0832,-6.1284,-6.1737,-6.2237,-6.269,-6.3128,-6.3581,-6.38,-6.3974,-6.4212,-6.4147,-6.4046,-6.4046,-6.4046,-6.4128,-6.4367,-6.4405,-6.4444,-6.4539,-6.4558,-6.4521,-6.4424,-6.4483,-6.4558,-6.4596,-6.469,-6.4781,-6.489,-6.467,-6.4444,-6.419,-6.3457,-6.2927,-6.2695,-6.2453,-6.222,-6.1996,-6.1996,-6.2033,0.0,0.0,0.0,0.0,0.0,0.9978,0.0,0.0,0.0,0.3631,0.2627,0.1791,0.028,-0.0056,-0.028,-0.0838,-0.1567,-0.2463,-0.3729,-0.524,-0.6531,-0.7307,-0.9292,-1.1004,-1.1887,-1.3981,-1.6327,-1.8878,-1.9309,-1.9939,-2.1019,-2.0798,-2.1404,-2.2979,-2.3998,-2.5041,-2.6235,-2.7013,-2.7715,-2.8269,-2.8542,-2.9927,-3.2316,-3.2717,-3.4992,-3.8671,-3.9382,-4.0792,-4.2698,-4.4143,-4.4737,-4.4887,-4.6237,-4.6811,-4.6896,-4.7704,-4.8307,-4.8762,-4.8883,-5.0101,-5.158,-5.169,-5.2901,-5.4474,-5.5424,-5.6726,-5.7978,-5.8461,-5.895,-5.9416,-5.9801,-5.9902,-6.0056,-6.0717,-6.0868,-6.0925,-6.1077,-6.1648,-6.2254,-6.2559,-6.3147,-6.3814,-6.4483,-6.4424,-6.4269,-6.4269,-6.4269,-6.4367,-6.4615,-6.4652,-6.4708,-6.489,-6.4907,-6.4817,-6.4671,-6.4818,-6.4817,-6.4671,-6.4818,-6.4907,-6.4907,-6.4907,-6.4726,-6.4348,-6.3825,-6.3371,-6.2994,-6.2922,-6.2606,-6.2033,-6.2033,-6.2114,0.0,0.0,0.0,0.0,1.0472,1.0202,0.9702,0.0,0.5417,0.447,0.0,0.0504,0.0056,0.0,0.0,-0.0824,-0.2054,-0.3122,-0.3514,-0.5976,-0.7919,-0.8303,-1.0617,-1.2481,-1.3383,-1.6003,-1.8237,-1.982,-1.9983,-2.0498,-2.1573,-2.2224,-2.292,-2.3578,-2.5109,-2.6129,-2.6686,-2.7515,-2.8409,-2.9347,-3.041,-3.1653,-3.3117,-3.4195,-3.6485,-3.9536,-3.9648,-4.1038,-4.3304,-4.4893,-4.5551,-4.566,-4.6464,-4.6811,-4.6896,-4.7704,-4.8017,-4.8195,-4.8869,-4.9593,-5.0335,-5.1034,-5.2804,-5.4921,-5.6374,-5.7604,-5.8524,-5.8586,-5.9197,-5.9817,-5.9885,-5.9902,-5.9904,-5.9999,-6.0053,-6.0243,-6.0963,-6.1174,-6.1686,-6.3166,-6.3526,-6.3814,-6.4483,-6.4577,-6.4539,-6.4539,-6.4539,-6.4634,-6.4854,-6.4872,-6.4853,-6.4907,-6.4907,-6.489,-6.4872,-6.489,-6.489,-6.4872,-6.489,-6.4907,-6.4907,-6.4907,-6.4871,-6.4817,-6.4348,-6.407,-6.4029,-6.3677,-6.3041,-6.2177,-6.2177,-6.2257,0.0,0.0,0.0,0.0,0.0,0.0,0.7695,0.0,0.4522,0.2518,0.0,0.0,0.0,0.0,0.0,0.0,-0.2789,-0.4075,-0.5422,-0.7271,-0.8575,-0.8741,-1.0891,-1.3186,-1.5215,-1.6804,-1.8499,-2.0395,-2.0557,-2.1062,-2.2139,-2.2953,-2.3831,-2.4835,-2.6244,-2.7268,-2.7919,-2.8258,-2.8781,-2.9485,-3.0399,-3.1656,-3.3251,-3.4707,-3.6737,-3.9253,-4.0141,-4.1365,-4.2947,-4.4997,-4.5809,-4.5953,-4.7254,-4.7671,-4.7572,-4.8274,-4.8807,-4.9261,-4.9965,-5.0634,-5.1304,-5.1687,-5.3138,-5.4826,-5.5568,-5.6912,-5.8245,-5.8524,-5.9026,-5.9559,-5.9817,-5.9902,-5.9902,-5.9902,-5.9902,-5.9996,-6.0321,-6.0757,-6.1307,-6.2008,-6.2936,-6.3698,-6.3968,-6.4441,-6.4763,-6.4763,-6.4763,-6.4799,-6.489,-6.4907,-6.4907,-6.4907,-6.4907,-6.4907,-6.4907,-6.4907,-6.4907,-6.4907,-6.4907,-6.4907,-6.4907,-6.4907,-6.4907,-6.4907,-6.4708,-6.4483,-6.4252,-6.4075,-6.3726,-6.3169,-6.2886,-6.2668,1.1345,1.1021,1.0747,1.0476,1.0091,0.9258,0.7085,0.5637,0.0,0.1846,0.0728,0.0,0.0,0.0,-0.168,-0.2119,0.0,-0.4801,-0.6706,-0.8106,-0.9178,-0.9892,-1.229,-1.4781,-1.7041,-1.7975,-1.9176,-2.096,-2.1121,-2.1623,-2.2846,-2.3782,-2.4798,-2.5945,-2.7247,-2.8247,-2.891,-2.891,-2.9198,-2.9715,-3.0708,-3.1979,-3.3518,-3.5426,-3.7375,-3.9379,-4.0737,-4.1857,-4.2928,-4.5044,-4.5937,-4.615,-4.7836,-4.8452,-4.8435,-4.8886,-4.9482,-5.015,-5.0849,-5.1569,-5.2294,-5.284,-5.3785,-5.4863,-5.5541,-5.6841,-5.8179,-5.8648,-5.9065,-5.947,-5.9801,-5.9902,-5.9902,-5.9902,-5.9902,-5.9902,-5.9902,-6.0375,-6.0849,-6.106,-6.2321,-6.342,-6.3562,-6.432,-6.4907,-6.4907,-6.4907,-6.4907,-6.4907,-6.4907,-6.4907,-6.4907,-6.4907,-6.4907,-6.4907,-6.4907,-6.4907,-6.4907,-6.4907,-6.4907,-6.4907,-6.4907,-6.4907,-6.4924,-6.4924,-6.4797,-6.4558,-6.4576,-6.4407,-6.4078,-6.3553,-6.3224,1.1678,1.135,1.1017,1.0747,1.0253,0.9761,0.9702,0.6972,0.4413,0.0,0.0,-0.0505,-0.0841,0.0,0.0,0.0,-0.3492,0.0,0.0,-0.7935,-0.9838,-1.2358,-1.566,-1.8007,-1.8662,-1.9975,-2.1019,-2.1623,-2.1674,-2.2274,-2.3578,-2.4924,-2.5993,-2.6733,-2.8013,-2.8921,-2.9485,-2.9485,-2.9715,-3.0182,-3.2006,-3.3281,-3.4144,-3.6806,-3.8925,-4.059,-4.156,-4.2589,-4.3762,-4.5285,-4.6008,-4.6327,-4.7885,-4.8858,-4.9342,-4.9372,-4.9734,-5.0289,-5.1034,-5.1824,-5.2752,-5.4303,-5.4846,-5.5275,-5.7211,-5.8164,-5.8669,-5.9065,-5.9523,-5.9885,-5.9885,-5.9902,-5.9902,-5.9902,-5.9902,-5.9902,-5.9902,-5.9904,-6.017,-6.0963,-6.1989,-6.2905,-6.3501,-6.432,-6.4907,-6.4907,-6.4907,-6.4907,-6.4907,-6.4907,-6.4907,-6.4907,-6.4907,-6.4907,-6.4907,-6.4907,-6.4907,-6.4907,-6.4907,-6.4907,-6.4907,-6.4907,-6.4924,-6.5008,-6.5008,-6.5042,-6.5163,-6.5245,-6.5021,-6.4575,-6.4098,-6.3936,1.135,1.1076,1.0747,1.0253,0.9926,0.9368,0.7864,0.5744,0.3795,0.2459,0.0,0.0,0.0,0.0,0.0,0.0,0.0,-0.7011,0.0,-1.167,-1.4517,-1.5778,-1.6949,-1.806,-1.922,-2.0107,-2.0936,-2.1674,-2.2232,-2.3029,-2.4156,-2.5644,-2.6846,-2.7757,-2.9037,-2.9795,-2.9943,-2.9943,-3.0034,-3.0227,-3.2177,-3.3469,-3.4235,-3.7816,-3.9927,-4.0901,-4.2589,-4.3527,-4.4011,-4.5629,-4.6327,-4.6555,-4.821,-4.9402,-5.023,-5.0067,-5.0397,-5.1034,-5.1824,-5.2257,-5.2589,-5.3132,-5.4199,-5.5409,-5.6121,-5.7571,-5.9046,-5.9159,-5.9523,-5.9902,-5.9902,-5.9902,-5.9902,-5.9902,-5.9902,-5.9902,-5.9902,-6.0776,-6.1508,-6.1396,-6.2974,-6.4291,-6.4114,-6.4783,-6.5295,-6.512,-6.5248,-6.5295,-6.512,-6.5087,-6.504,-6.4906,-6.4907,-6.4907,-6.4907,-6.4907,-6.4907,-6.4907,-6.4907,-6.4907,-6.4907,-6.4907,-6.4924,-6.5008,-6.5008,-6.5076,-6.5261,-6.5293,-6.5239,-6.5117,-6.4964,-6.4593,1.124,1.0911,1.0582,1.0091,0.9816,0.9203,0.7584,0.5575,0.3625,0.2403,0.0448,0.0,0.0,0.0,0.0,0.0,0.0,0.0,0.0,-1.4314,-1.7423,-1.8053,-1.8634,-1.9369,-2.0408,-2.0971,-2.154,-2.2232,-2.3079,-2.3967,-2.5022,-2.6502,-2.7746,-2.8713,-2.9692,-3.0261,-3.0352,-3.0445,-3.0674,-3.1038,-3.3043,-3.4387,-3.5158,-3.8916,-4.084,-4.1239,-4.3165,-4.4026,-4.4243,-4.5861,-4.6537,-4.6779,-4.837,-4.9698,-5.0697,-5.0525,-5.1008,-5.1806,-5.2322,-5.2498,-5.2612,-5.3345,-5.4436,-5.5643,-5.6557,-5.7934,-5.929,-5.9737,-5.9889,-5.9961,-6.0245,-6.011,-5.9902,-5.9902,-5.9902,-5.9902,-5.9902,-6.0966,-6.1845,-6.1575,-6.334,-6.4766,-6.4367,-6.5128,-6.5705,-6.5397,-6.5504,-6.5547,-6.5367,-6.5337,-6.5276,-6.5155,-6.5057,-6.4974,-6.4907,-6.4907,-6.4925,-6.4941,-6.4941,-6.4958,-6.5012,-6.5012,-6.5312,-6.5984,-6.5413,-6.5479,-6.6214,-6.5642,-6.5368,-6.5394,-6.5394,-6.5101]},{"header":{"parameterUnit":"m.s-1","parameterCategory":1,"la1":30.6,"la2":29.2853,"lo1":-89.7004,"lo2":-87.6739,"dy":0.0162,"dx":0.0183,"nx":112,"ny":82,"refTime":"2023-10-10T00:00:00:Z","depth":0,"parameterNumber":3,"parameterNumberName":"V-component_of_WINDS"},"data":[0.0,0.0,0.0,0.0,0.0,0.0,0.0,0.0,0.0,0.0,0.0,0.0,0.0,0.0,0.0,0.0,0.0,0.0,0.0,0.0,0.0,0.0,0.0,0.0,0.0,0.0,0.0,0.0,0.0,0.0,0.0,0.0,0.0,0.0,0.0,0.0,0.0,0.0,0.0,0.0,0.0,0.0,0.0,0.0,0.0,0.0,0.0,0.0,0.0,0.0,0.0,0.0,0.0,0.0,0.0,0.0,0.0,0.0,0.0,0.0,0.0,0.0,0.0,0.0,0.0,0.0,0.0,0.0,0.0,0.0,0.0,0.0,0.0,0.0,0.0,0.0,0.0,0.0,0.0,0.0,0.0,0.0,0.0,0.0,0.0,0.0,0.0,0.0,0.0,0.0,4.9909,5.1236,5.5336,5.7746,5.7126,5.6047,5.3547,4.9197,0.0,0.0,0.0,0.0,0.0,0.0,0.0,0.0,0.0,0.0,0.0,0.0,0.0,0.0,0.0,0.0,0.0,0.0,0.0,0.0,0.0,0.0,0.0,0.0,0.0,0.0,0.0,0.0,0.0,0.0,0.0,0.0,0.0,0.0,0.0,0.0,0.0,0.0,0.0,0.0,0.0,0.0,0.0,0.0,0.0,0.0,0.0,0.0,0.0,0.0,0.0,0.0,0.0,0.0,0.0,0.0,0.0,0.0,0.0,0.0,0.0,0.0,0.0,0.0,0.0,0.0,0.0,0.0,0.0,0.0,0.0,0.0,0.0,0.0,0.0,0.0,0.0,0.0,0.0,0.0,0.0,0.0,0.0,0.0,0.0,0.0,0.0,0.0,0.0,0.0,0.0,0.0,0.0,0.0,0.0,0.0,0.0,0.0,0.0,0.0,0.0,0.0,0.0,0.0,4.9896,5.3543,5.5236,5.6225,5.6493,5.4421,5.1669,4.8294,0.0,0.0,0.0,0.0,0.0,0.0,0.0,0.0,0.0,0.0,0.0,0.0,0.0,0.0,0.0,0.0,0.0,0.0,0.0,0.0,0.0,0.0,0.0,0.0,0.0,0.0,0.0,0.0,0.0,0.0,0.0,0.0,0.0,0.0,0.0,0.0,0.0,0.0,0.0,0.0,0.0,0.0,0.0,0.0,0.0,0.0,0.0,0.0,0.0,0.0,0.0,0.0,0.0,0.0,0.0,0.0,0.0,0.0,0.0,0.0,0.0,0.0,0.0,0.0,0.0,0.0,0.0,0.0,0.0,0.0,0.0,0.0,0.0,0.0,0.0,0.0,0.0,0.0,0.0,0.0,0.0,0.0,0.0,0.0,0.0,0.0,0.0,0.0,0.0,0.0,0.0,0.0,0.0,0.0,0.0,0.0,0.0,0.0,0.0,0.0,0.0,0.0,0.0,4.9422,5.0856,5.2571,5.39,5.432,5.3442,5.1863,4.9835,4.7302,4.6487,0.0,0.0,0.0,0.0,0.0,0.0,0.0,0.0,0.0,0.0,0.0,0.0,0.0,0.0,0.0,0.0,0.0,0.0,0.0,0.0,0.0,0.0,0.0,0.0,0.0,0.0,0.0,0.0,0.0,0.0,0.0,0.0,0.0,0.0,0.0,0.0,0.0,0.0,0.0,0.0,0.0,0.0,0.0,0.0,0.0,0.0,0.0,0.0,0.0,0.0,0.0,0.0,0.0,0.0,0.0,0.0,0.0,0.0,0.0,0.0,0.0,0.0,0.0,0.0,0.0,0.0,0.0,0.0,0.0,0.0,0.0,0.0,0.0,0.0,0.0,0.0,0.0,0.0,0.0,0.0,0.0,0.0,0.0,0.0,0.0,0.0,0.0,0.0,0.0,0.0,0.0,0.0,0.0,0.0,0.0,0.0,0.0,0.0,0.0,0.0,0.0,0.0,5.0572,5.1584,5.1325,5.2391,5.2428,5.079,4.9676,4.8272,4.6455,4.5453,0.0,0.0,0.0,0.0,0.0,0.0,0.0,0.0,0.0,0.0,0.0,0.0,0.0,0.0,0.0,0.0,0.0,0.0,0.0,0.0,0.0,0.0,0.0,0.0,0.0,0.0,0.0,0.0,0.0,0.0,0.0,0.0,0.0,0.0,0.0,0.0,0.0,0.0,0.0,0.0,0.0,0.0,0.0,0.0,0.0,0.0,0.0,0.0,0.0,0.0,0.0,0.0,0.0,0.0,0.0,0.0,0.0,0.0,0.0,0.0,0.0,0.0,0.0,0.0,0.0,0.0,0.0,0.0,0.0,0.0,0.0,0.0,0.0,0.0,0.0,0.0,0.0,0.0,0.0,0.0,0.0,0.0,0.0,0.0,0.0,0.0,0.0,0.0,0.0,0.0,0.0,0.0,0.0,0.0,0.0,0.0,0.0,0.0,0.0,0.0,0.0,0.0,4.9799,5.1325,5.1294,5.113,5.0809,5.0282,4.871,4.7192,4.5938,4.4967,0.0,0.0,0.0,0.0,0.0,0.0,0.0,0.0,0.0,0.0,0.0,0.0,0.0,0.0,0.0,0.0,0.0,0.0,0.0,0.0,0.0,0.0,0.0,0.0,0.0,0.0,0.0,0.0,0.0,0.0,0.0,0.0,0.0,0.0,0.0,0.0,0.0,0.0,0.0,0.0,0.0,0.0,0.0,0.0,0.0,0.0,0.0,0.0,0.0,0.0,0.0,0.0,0.0,0.0,0.0,0.0,0.0,0.0,0.0,0.0,0.0,0.0,0.0,0.0,0.0,0.0,0.0,0.0,0.0,0.0,0.0,0.0,0.0,0.0,0.0,0.0,0.0,0.0,0.0,0.0,0.0,0.0,0.0,0.0,0.0,0.0,0.0,0.0,0.0,0.0,0.0,0.0,0.0,0.0,0.0,0.0,0.0,0.0,0.0,0.0,0.0,0.0,4.9389,5.0633,4.9883,5.006,4.9888,4.903,4.8273,4.7203,4.5693,0.0,0.0,0.0,0.0,0.0,0.0,0.0,0.0,0.0,0.0,0.0,0.0,0.0,0.0,0.0,0.0,0.0,0.0,0.0,0.0,0.0,0.0,0.0,0.0,0.0,0.0,0.0,0.0,0.0,0.0,0.0,0.0,0.0,0.0,0.0,0.0,0.0,0.0,0.0,0.0,0.0,0.0,0.0,0.0,0.0,0.0,0.0,0.0,0.0,0.0,0.0,0.0,0.0,0.0,0.0,0.0,0.0,0.0,0.0,0.0,0.0,0.0,0.0,0.0,0.0,0.0,0.0,0.0,0.0,0.0,0.0,0.0,0.0,0.0,0.0,0.0,0.0,0.0,0.0,0.0,0.0,0.0,0.0,0.0,0.0,0.0,0.0,0.0,0.0,0.0,0.0,0.0,0.0,0.0,0.0,0.0,0.0,0.0,0.0,0.0,0.0,0.0,4.6891,4.8727,4.9763,4.8939,4.9121,4.8991,4.8204,4.7556,4.671,4.5577,0.0,0.0,0.0,0.0,0.0,0.0,0.0,0.0,0.0,0.0,0.0,0.0,0.0,0.0,0.0,0.0,0.0,0.0,0.0,0.0,0.0,0.0,0.0,0.0,0.0,0.0,0.0,0.0,0.0,0.0,0.0,0.0,0.0,0.0,0.0,0.0,0.0,0.0,0.0,0.0,0.0,0.0,0.0,0.0,0.0,0.0,0.0,0.0,0.0,0.0,0.0,0.0,0.0,0.0,0.0,0.0,0.0,0.0,0.0,0.0,0.0,0.0,0.0,0.0,0.0,0.0,0.0,0.0,0.0,0.0,0.0,0.0,0.0,0.0,0.0,0.0,0.0,0.0,0.0,0.0,0.0,0.0,0.0,0.0,0.0,0.0,0.0,0.0,0.0,0.0,0.0,0.0,0.0,0.0,0.0,0.0,0.0,0.0,0.0,0.0,0.0,0.0,4.6445,4.7811,4.8763,4.8694,4.8288,4.7992,4.7992,4.6491,4.5503,0.0,0.0,0.0,0.0,0.0,0.0,0.0,0.0,0.0,0.0,0.0,0.0,0.0,0.0,0.0,0.0,0.0,0.0,0.0,0.0,0.0,0.0,0.0,0.0,0.0,0.0,0.0,0.0,0.0,0.0,0.0,0.0,0.0,0.0,0.0,0.0,0.0,0.0,0.0,0.0,0.0,0.0,0.0,0.0,0.0,0.0,0.0,0.0,0.0,0.0,0.0,0.0,0.0,0.0,0.0,0.0,0.0,0.0,0.0,0.0,0.0,0.0,0.0,0.0,0.0,0.0,0.0,0.0,0.0,0.0,0.0,0.0,0.0,0.0,0.0,0.0,0.0,0.0,0.0,0.0,0.0,0.0,0.0,0.0,0.0,0.0,0.0,0.0,0.0,0.0,0.0,0.0,0.0,0.0,0.0,0.0,0.0,0.0,0.0,0.0,0.0,0.0,0.0,4.5938,4.7316,4.8326,4.823,4.803,4.7925,4.7925,4.7386,4.6401,4.4817,0.0,0.0,0.0,0.0,0.0,0.0,0.0,0.0,0.0,0.0,0.0,0.0,0.0,0.0,0.0,0.0,0.0,0.0,0.0,0.0,0.0,0.0,0.0,0.0,0.0,0.0,0.0,0.0,0.0,0.0,0.0,0.0,0.0,0.0,0.0,0.0,0.0,0.0,0.0,0.0,0.0,0.0,0.0,0.0,0.0,0.0,0.0,0.0,0.0,0.0,0.0,0.0,0.0,0.0,0.0,0.0,0.0,0.0,0.0,0.0,0.0,0.0,0.0,0.0,0.0,0.0,0.0,0.0,0.0,0.0,0.0,0.0,0.0,0.0,0.0,0.0,0.0,0.0,0.0,0.0,0.0,0.0,0.0,0.0,0.0,0.0,0.0,0.0,0.0,0.0,0.0,0.0,0.0,0.0,0.0,0.0,0.0,0.0,0.0,0.0,0.0,0.0,4.5677,4.7045,4.8046,4.7968,4.7783,4.7657,4.7657,4.7219,4.6374,4.5044,0.0,0.0,0.0,0.0,0.0,0.0,0.0,0.0,0.0,0.0,0.0,0.0,0.0,0.0,0.0,0.0,0.0,0.0,0.0,0.0,0.0,0.0,0.0,0.0,0.0,0.0,0.0,0.0,0.0,0.0,0.0,0.0,0.0,0.0,0.0,0.0,0.0,0.0,0.0,0.0,0.0,0.0,0.0,0.0,0.0,0.0,0.0,0.0,0.0,0.0,0.0,0.0,0.0,0.0,0.0,0.0,0.0,0.0,0.0,0.0,0.0,0.0,0.0,0.0,0.0,0.0,0.0,0.0,0.0,0.0,0.0,0.0,0.0,0.0,0.0,0.0,0.0,0.0,0.0,0.0,0.0,0.0,0.0,0.0,0.0,0.0,0.0,0.0,0.0,0.0,0.0,0.0,0.0,0.0,0.0,0.0,0.0,0.0,0.0,0.0,0.0,0.0,4.5693,4.6979,4.7899,4.784,4.7511,4.728,4.7258,4.6453,4.5869,4.5735,0.0,0.0,0.0,0.0,0.0,0.0,0.0,0.0,0.0,0.0,0.0,0.0,0.0,0.0,0.0,0.0,0.0,0.0,0.0,0.0,0.0,0.0,0.0,0.0,0.0,0.0,0.0,0.0,0.0,0.0,0.0,0.0,0.0,0.0,0.0,0.0,0.0,0.0,0.0,0.0,0.0,0.0,0.0,0.0,0.0,0.0,0.0,0.0,0.0,0.0,0.0,0.0,0.0,0.0,0.0,0.0,0.0,0.0,0.0,0.0,4.719,0.0,0.0,0.0,0.0,0.0,0.0,0.0,0.0,0.0,0.0,0.0,0.0,0.0,0.0,0.0,0.0,0.0,0.0,0.0,0.0,0.0,0.0,0.0,0.0,0.0,0.0,0.0,0.0,0.0,0.0,0.0,0.0,0.0,0.0,0.0,0.0,0.0,0.0,0.0,0.0,0.0,4.6241,4.7243,4.778,4.7468,4.7363,4.7232,4.707,4.6882,4.628,4.5158,4.4222,0.0,0.0,0.0,0.0,0.0,0.0,0.0,0.0,0.0,0.0,0.0,0.0,0.0,0.0,0.0,0.0,0.0,0.0,0.0,0.0,0.0,0.0,0.0,0.0,0.0,0.0,0.0,0.0,0.0,0.0,0.0,0.0,0.0,0.0,0.0,0.0,0.0,0.0,0.0,0.0,0.0,0.0,0.0,0.0,0.0,0.0,0.0,0.0,0.0,0.0,0.0,0.0,0.0,0.0,0.0,0.0,0.0,0.0,0.0,0.0,4.8275,0.0,0.0,0.0,0.0,0.0,0.0,0.0,0.0,0.0,0.0,0.0,0.0,0.0,0.0,0.0,0.0,0.0,0.0,0.0,0.0,0.0,0.0,0.0,0.0,0.0,0.0,0.0,0.0,0.0,0.0,0.0,0.0,0.0,0.0,0.0,0.0,0.0,0.0,0.0,0.0,4.6429,4.7252,4.7717,4.7511,4.7084,4.6771,4.6672,4.6249,4.5678,4.4949,4.4155,0.0,0.0,0.0,0.0,0.0,0.0,0.0,0.0,0.0,0.0,0.0,0.0,0.0,0.0,0.0,0.0,0.0,0.0,0.0,0.0,0.0,0.0,0.0,0.0,0.0,0.0,0.0,0.0,0.0,0.0,0.0,0.0,0.0,0.0,0.0,0.0,0.0,0.0,0.0,0.0,0.0,0.0,0.0,0.0,0.0,0.0,0.0,0.0,0.0,0.0,0.0,0.0,0.0,5.4511,5.492,5.4581,5.5436,5.5821,5.5698,5.3435,5.1597,5.0086,4.9184,0.0,0.0,0.0,0.0,0.0,0.0,0.0,0.0,0.0,0.0,0.0,0.0,0.0,0.0,0.0,0.0,0.0,0.0,0.0,0.0,0.0,0.0,4.9708,4.9022,4.9269,4.9436,4.8642,0.0,0.0,0.0,0.0,0.0,0.0,0.0,0.0,0.0,0.0,0.0,4.6501,4.7157,4.7533,4.745,4.6683,4.6123,4.6049,4.5355,4.491,4.491,4.3938,4.3654,0.0,0.0,0.0,0.0,0.0,0.0,0.0,0.0,0.0,0.0,0.0,0.0,0.0,0.0,0.0,0.0,0.0,0.0,0.0,0.0,0.0,0.0,0.0,0.0,0.0,0.0,0.0,0.0,0.0,0.0,0.0,0.0,5.2063,5.2149,0.0,0.0,0.0,0.0,0.0,0.0,0.0,0.0,0.0,0.0,0.0,0.0,0.0,5.4275,5.5907,5.7246,5.7567,5.6938,5.9793,6.075,5.9988,6.0757,6.11,6.1043,5.9946,0.0,5.281,5.3122,0.0,0.0,0.0,0.0,0.0,0.0,0.0,0.0,0.0,0.0,0.0,0.0,0.0,0.0,0.0,0.0,0.0,0.0,0.0,0.0,0.0,0.0,4.9004,4.8715,4.8716,4.8698,4.8382,4.8306,4.8067,4.7259,4.7056,4.6516,0.0,0.0,0.0,0.0,0.0,0.0,4.6811,4.6945,4.6863,4.6525,4.5968,4.5459,4.5108,4.4974,4.491,4.491,4.4429,4.4209,4.431,4.3706,0.0,0.0,0.0,0.0,0.0,0.0,0.0,0.0,0.0,0.0,0.0,0.0,0.0,0.0,0.0,0.0,0.0,0.0,0.0,0.0,0.0,0.0,0.0,0.0,0.0,0.0,0.0,0.0,0.0,5.1641,5.204,5.1617,5.1619,5.1696,0.0,0.0,0.0,0.0,0.0,0.0,0.0,0.0,0.0,5.7525,5.8073,5.9113,6.0747,6.1432,6.1732,6.1667,6.305,6.3475,6.3025,6.3368,6.3512,6.3462,6.2867,6.0808,5.7773,5.5975,5.3729,5.1263,0.0,0.0,0.0,0.0,4.9474,5.056,5.1359,5.1837,5.1907,5.09,0.0,0.0,0.0,0.0,0.0,0.0,0.0,4.8909,4.8909,4.9208,4.9396,4.8844,4.8975,4.9066,4.853,4.8363,4.8214,4.7828,4.7716,4.7208,4.5732,4.5728,0.0,0.0,0.0,4.597,4.6395,4.6454,4.6382,4.6213,4.5571,4.5081,4.4892,4.4457,4.4162,4.4162,4.4006,4.3906,4.3906,4.37,4.3598,0.0,0.0,0.0,0.0,0.0,0.0,0.0,0.0,0.0,0.0,0.0,0.0,0.0,0.0,0.0,0.0,0.0,0.0,0.0,0.0,0.0,0.0,0.0,0.0,0.0,0.0,0.0,0.0,5.2028,5.2477,5.1434,5.1942,5.223,0.0,0.0,0.0,0.0,0.0,0.0,5.6024,5.7246,5.8975,6.1315,6.2447,6.3655,6.4972,6.5163,6.5316,6.547,6.5649,6.5554,6.5243,6.5243,6.5243,6.5212,6.4609,6.3618,6.2209,5.8977,5.625,5.3932,5.2384,5.1525,5.1137,5.1208,5.2065,5.3349,5.434,5.4631,5.4339,5.3099,5.229,5.1305,4.8768,0.0,0.0,0.0,0.0,4.8874,4.8874,4.9249,4.9491,4.8863,4.9067,4.9212,4.8586,4.8267,4.8132,4.8132,4.8053,4.7552,4.6159,4.6141,0.0,4.4975,4.5224,4.5614,4.585,4.5918,4.5875,4.585,4.5144,4.468,4.4652,4.4006,4.3598,4.3598,4.3598,4.3598,4.3598,4.3598,4.3598,4.3598,0.0,0.0,0.0,0.0,0.0,0.0,0.0,0.0,0.0,0.0,0.0,0.0,0.0,0.0,0.0,0.0,0.0,0.0,0.0,0.0,0.0,0.0,0.0,0.0,0.0,0.0,0.0,0.0,0.0,5.2345,5.4332,0.0,0.0,0.0,0.0,5.4865,5.6471,5.784,5.8759,6.0488,6.2252,6.4058,6.5698,6.6915,6.77,6.8345,6.8183,6.7288,6.7921,6.7776,6.6974,6.6974,6.6974,6.6904,6.5738,6.5203,6.4944,6.277,5.9328,5.546,5.612,5.523,5.3665,5.3974,5.4427,5.4929,5.532,5.523,5.4966,5.4854,5.3293,5.11,4.9355,4.8872,0.0,0.0,4.8839,4.8804,4.8804,4.8733,4.8624,4.855,4.8531,4.8512,4.8343,4.7937,4.7632,4.7632,4.753,4.7066,4.5905,0.0,4.5918,4.4807,4.5433,4.5893,4.5407,4.5329,4.5276,4.5144,4.4558,4.4097,4.3956,4.3734,4.3598,4.3598,4.3598,4.3598,4.3598,4.3598,4.3598,4.3598,4.3793,0.0,0.0,0.0,0.0,0.0,0.0,0.0,0.0,0.0,0.0,0.0,0.0,0.0,0.0,0.0,0.0,0.0,0.0,0.0,0.0,0.0,0.0,0.0,0.0,0.0,0.0,0.0,0.0,5.4716,5.6997,0.0,5.7,5.7176,5.7611,5.8189,5.9386,6.0701,6.2145,6.4017,6.5837,6.7531,6.861,6.9508,7.022,7.0317,7.0131,6.9636,6.8803,6.8244,6.7898,6.6821,6.6191,6.5887,6.5204,6.4465,6.3688,6.2725,6.122,5.9441,5.8947,5.7705,5.621,5.6329,5.6476,5.6563,5.6161,5.629,5.6357,5.476,5.2587,5.0506,4.9875,4.9317,4.8909,4.8909,4.8891,4.8839,4.8804,4.8715,4.8569,4.8513,4.8209,4.7915,4.7856,4.7485,4.7049,4.6753,4.6827,4.6671,4.585,4.5767,4.5528,4.472,4.4923,4.5052,4.4879,4.4852,4.4824,4.4769,4.4452,4.4167,4.4056,4.3881,4.3734,4.3598,4.3598,4.3598,4.3598,4.3717,4.3793,4.3793,4.4039,4.4068,0.0,0.0,0.0,0.0,0.0,0.0,0.0,0.0,0.0,0.0,0.0,0.0,0.0,0.0,0.0,0.0,0.0,0.0,0.0,0.0,0.0,0.0,0.0,0.0,0.0,5.5084,5.6766,5.6467,5.9295,6.0793,5.9611,6.0046,6.0769,6.1648,6.2605,6.3802,6.5262,6.7142,6.8689,6.9798,7.0538,7.0968,7.1062,7.0864,7.0374,6.959,6.8494,6.7821,6.7513,6.6268,6.5547,6.5268,6.4772,6.4087,6.3307,6.2963,6.2625,6.2167,6.0532,5.9088,5.7899,5.7899,5.7899,5.7788,5.6989,5.6878,5.6729,5.4518,5.2531,5.0952,5.0636,4.9968,4.9299,4.9299,4.8971,4.866,4.8715,4.8514,4.8326,4.8229,4.7877,4.7548,4.7399,4.6981,4.656,4.6259,4.6297,4.6165,4.558,4.5311,4.5062,4.4654,4.4615,4.4615,4.4615,4.4615,4.4615,4.4615,4.4412,4.4253,4.4097,4.3985,4.3822,4.3628,4.3598,4.3598,4.3598,4.3492,4.3462,4.3462,4.3502,4.3591,4.3717,0.0,0.0,0.0,0.0,0.0,0.0,0.0,0.0,0.0,0.0,0.0,0.0,0.0,0.0,0.0,0.0,0.0,0.0,0.0,0.0,0.0,0.0,0.0,5.3614,5.6534,5.8372,5.7589,6.1215,6.3129,6.1466,6.282,6.421,6.5144,6.6176,6.7165,6.8064,6.9804,7.0787,7.0778,7.1358,7.1193,7.0207,6.9973,6.8946,6.7128,6.7109,6.6686,6.5917,6.5504,6.5284,6.5238,6.4502,6.419,6.4149,6.3724,6.3565,6.3323,6.0927,5.9494,5.8828,5.8772,5.8698,5.8531,5.7769,5.6952,5.5967,5.437,5.3292,5.2457,5.1658,5.0804,5.0117,5.008,4.9122,4.8172,4.8476,4.8173,4.7733,4.7611,4.7569,4.7442,4.6976,4.6507,4.6161,4.6161,4.5885,4.5528,4.5069,4.4776,4.4615,4.4615,4.4615,0.0,4.4615,4.4615,4.4615,4.4598,4.4412,4.4224,4.4097,4.3969,4.3793,4.3628,4.3598,4.3598,4.3598,4.2974,4.2617,4.2617,4.2205,4.2426,4.3246,0.0,0.0,0.0,0.0,0.0,0.0,0.0,0.0,0.0,0.0,0.0,0.0,0.0,0.0,0.0,0.0,0.0,0.0,0.0,0.0,0.0,5.4368,5.5528,5.6167,5.8662,6.0789,6.1814,6.4038,6.5566,6.574,6.6166,6.6835,6.779,6.9363,7.0457,7.0807,7.1933,7.2592,7.2591,7.1292,7.0491,7.0195,6.9278,6.8552,6.8032,6.7398,6.6974,6.6744,6.5753,6.514,6.4856,6.4388,6.4025,6.3705,6.3015,6.2747,6.2673,6.1986,6.1577,6.1243,6.0035,5.8475,5.7008,5.7379,5.619,5.4518,5.463,5.3738,5.2493,5.1926,5.1146,5.0257,4.9352,4.8756,4.8279,4.7741,4.7409,4.7194,4.7115,4.6822,4.6537,4.6411,4.5988,4.5589,4.5477,4.5319,4.5133,4.5032,4.4776,4.4615,4.4615,4.4615,4.4615,4.4615,4.4615,4.4542,4.4412,4.3902,4.3726,4.4068,4.3489,4.3309,4.3793,4.3687,4.3598,4.3598,4.3204,4.2834,4.2537,4.2316,4.211,0.0,0.0,0.0,0.0,0.0,0.0,0.0,0.0,0.0,0.0,0.0,0.0,0.0,0.0,0.0,0.0,0.0,0.0,0.0,0.0,0.0,0.0,5.5973,5.7772,5.9706,6.1253,6.282,6.4541,6.6243,6.7617,6.8468,6.8545,6.912,7.0504,7.0951,7.1702,7.2959,7.2851,7.2723,7.2627,7.1405,7.0188,6.9034,6.8614,6.8052,6.7359,6.684,6.659,6.6558,6.5524,6.4923,6.4681,6.4172,6.3808,6.3565,6.31,6.271,0.0,0.0,0.0,0.0,0.0,5.7664,5.6404,5.6012,5.4914,5.3776,5.4109,5.342,5.2463,5.242,5.1627,5.0565,4.9828,4.8906,4.8051,4.7712,4.7196,4.6735,4.6631,4.6387,4.6137,4.5905,4.5589,4.53,4.522,4.5059,0.0,4.4913,4.4737,4.4615,4.4615,4.4615,4.4615,4.4615,4.4338,4.4207,4.4412,4.3798,4.3486,4.3743,4.3502,0.0,0.0,0.0,4.2912,4.2317,4.219,0.0,0.0,0.0,4.1442,4.136,4.0974,0.0,0.0,4.2296,4.2619,0.0,0.0,0.0,0.0,0.0,0.0,0.0,0.0,0.0,0.0,0.0,0.0,0.0,0.0,0.0,0.0,5.7753,6.0044,6.3391,6.3932,6.4561,6.6166,6.7713,6.9009,6.9899,7.0092,7.0941,7.2857,7.1652,7.1924,7.4451,7.3038,0.0,0.0,0.0,7.0026,6.756,6.7921,6.7378,6.5897,6.5897,6.5897,6.5865,6.5073,6.4699,6.4664,6.392,6.3565,6.3472,6.3472,6.2933,6.1986,6.0593,5.9881,5.9461,5.7626,5.6822,5.6324,5.4413,0.0,0.0,5.3142,5.2696,5.2391,5.2802,5.2005,5.0926,5.0789,4.9251,4.7703,4.7968,4.7186,4.6277,4.6137,4.6112,4.598,4.5485,4.53,4.5194,4.5177,4.4978,4.4776,4.4676,4.4609,4.4615,4.4615,4.4542,4.4485,4.4485,4.3839,4.3617,4.4253,4.3663,0.0,4.3169,4.3489,4.3446,4.279,4.2601,4.19,4.0581,4.0668,4.0805,4.0907,4.0524,4.0681,4.1393,4.0802,4.0802,4.1393,4.1343,4.1673,0.0,0.0,0.0,0.0,0.0,0.0,0.0,0.0,0.0,0.0,0.0,0.0,0.0,0.0,0.0,5.755,5.9513,6.1582,6.4348,6.5315,6.6108,6.7133,6.7559,6.8332,6.9841,7.0634,7.16,7.2896,7.328,7.3804,7.4569,7.36,7.2963,7.2745,7.057,6.9095,6.8439,6.7073,6.6224,6.5897,0.0,0.0,6.5865,6.5073,6.4699,6.4664,6.392,6.3249,6.2636,6.2636,6.1744,6.0404,6.0815,5.9852,5.8336,5.8557,5.7538,5.5898,5.4864,5.4055,5.3403,5.2686,5.2391,5.2253,5.1958,5.1625,0.0,5.0074,4.8837,4.7717,4.7204,4.6335,4.5589,4.5563,4.5537,4.5528,4.5423,4.53,4.515,4.5059,4.4913,4.4592,4.3852,4.4236,4.4615,4.4615,4.4105,4.3706,4.3706,4.3122,4.2724,4.274,4.1997,4.169,4.2205,4.1592,4.1411,4.1885,4.1804,4.1393,4.0703,4.0839,4.0786,4.042,4.0455,4.0524,4.0681,4.0558,4.0558,4.0715,4.1209,4.1836,0.0,0.0,0.0,0.0,0.0,0.0,0.0,0.0,0.0,0.0,0.0,5.2398,5.3335,0.0,5.6269,5.9349,6.0925,6.2646,6.5238,6.5953,6.6688,6.8003,6.8158,6.8816,7.0479,7.1446,7.2405,7.3528,7.3568,7.4025,7.5149,7.3574,7.2567,7.236,7.0518,6.9076,6.8063,6.7027,6.6301,6.5897,6.5897,6.5897,6.5865,6.5073,6.4699,6.4645,6.3493,6.2784,6.2339,6.1503,6.0667,5.9884,5.9942,5.9273,5.8179,5.729,5.6261,5.5111,5.3401,5.2529,5.2187,5.1987,5.1788,5.1512,5.1119,5.0685,5.0119,4.909,4.8045,4.7153,4.6807,4.6036,4.5397,4.5397,4.5397,4.5397,4.5397,4.5247,4.5086,4.5005,4.453,4.4013,4.3571,4.3529,4.3545,4.3545,4.3243,4.3015,4.3015,4.2426,4.2078,4.238,4.1641,4.1294,4.1641,4.0992,4.0737,4.1078,4.1026,4.0703,4.0076,4.0335,4.0385,4.0137,4.0366,4.0489,4.0489,4.0489,4.0489,4.0489,4.0836,4.136,0.0,0.0,0.0,0.0,0.0,0.0,0.0,5.112,5.1415,5.2378,5.3168,5.4072,5.5316,5.6604,5.8393,6.1157,6.2182,6.3478,6.5876,6.6205,6.6785,6.8371,6.87,6.9396,7.0905,7.201,7.2995,7.388,7.3471,7.3808,7.5234,7.3371,7.2011,7.1462,7.0472,6.9134,6.7424,6.7046,6.6532,6.5897,6.5897,6.5853,6.5749,6.487,6.4417,6.4253,6.2629,6.1911,6.18,6.0295,5.9682,5.9587,5.8834,5.8532,5.828,5.6075,5.5178,5.474,5.2228,5.1357,5.1358,5.1438,5.1211,5.0858,5.0576,4.9951,4.9144,4.8518,4.7486,4.6613,4.6613,4.6104,4.5587,4.5432,4.5518,4.556,4.5238,4.4988,4.4752,4.4614,4.3881,4.3257,4.3136,4.279,4.2573,4.2699,4.2605,4.2558,4.2703,4.2119,4.1903,4.2429,4.1854,4.1414,4.1345,4.0912,4.0608,4.0484,4.0362,4.0021,3.9409,3.9783,4.0011,4.0011,4.0331,4.0489,4.0489,4.0489,4.0566,4.0705,4.0705,4.0941,5.0702,5.0693,5.0702,5.0702,5.0721,5.0913,0.0,5.1874,5.2417,5.3994,5.4371,5.5162,5.7715,5.8182,5.9329,6.2849,6.3487,6.4174,6.5953,6.6205,6.6553,6.7539,6.8332,6.9145,7.0054,7.1686,7.2785,7.3037,7.3731,7.397,7.3592,7.3303,7.2349,7.0609,6.957,6.8513,6.7404,6.6495,6.5994,6.5897,6.5897,6.5709,6.5344,6.4163,6.3441,6.2991,6.1027,6.0163,6.0107,5.9218,5.8846,5.8786,5.8209,5.7992,5.7886,5.714,5.6539,5.583,5.3689,5.2955,5.2727,5.1411,5.0927,5.09,5.0848,5.0124,4.9266,4.9179,4.7919,4.6613,4.6613,4.6544,4.6303,4.5569,4.5931,4.6062,4.4643,4.4209,4.3893,4.3183,4.28,4.2426,4.1836,4.218,4.279,4.3396,4.2973,4.2812,4.3395,4.2895,4.2428,4.2309,4.2071,4.1793,4.1407,4.0791,4.0424,4.0424,3.9847,3.9481,3.9388,3.9783,4.0011,4.0011,4.0331,4.0489,4.0489,4.0489,4.0863,4.1478,4.1478,4.1175,5.0558,5.0712,5.0808,5.1318,5.1453,5.179,5.3108,5.3513,5.4088,5.5769,5.6522,5.738,5.9039,6.0085,6.134,6.3381,6.4126,6.4851,6.6031,6.5829,6.5509,6.5354,6.6156,6.7395,6.9188,7.0961,7.2069,7.2256,7.3088,7.372,7.3974,7.3064,7.2405,7.21,7.0006,6.8699,6.8273,6.6692,6.5897,6.5897,6.5897,6.5696,6.5265,6.4051,6.2635,6.1108,6.0269,5.9645,5.9181,5.8846,5.8511,5.8213,5.7992,5.7719,5.7291,5.6294,5.5794,5.5303,5.3238,5.2506,5.2312,5.1242,5.0891,5.0803,5.0239,4.9395,4.8518,4.7976,4.693,4.6,4.6493,4.6289,4.5976,4.6079,4.5744,4.5228,4.443,4.3807,4.3402,4.3385,4.2945,4.26,4.2695,4.2664,4.2833,4.3509,4.3048,4.2712,4.2992,4.2767,4.2493,4.2169,4.1962,4.1701,4.1422,4.113,4.0965,4.0965,4.0711,4.0561,4.0561,4.0835,4.1055,4.1164,4.1402,4.1618,4.174,4.174,4.1894,4.2186,4.2186,4.2032,5.025,5.0683,5.1174,5.1809,5.2339,5.307,5.4504,5.5114,5.574,5.6956,5.794,5.8778,5.9435,6.0731,6.2143,6.3487,6.4242,6.5006,6.605,6.5567,6.4866,6.4227,6.4563,6.565,6.7715,6.9472,7.0769,7.1393,7.226,7.3078,7.3744,7.2659,7.2065,7.2221,6.9877,6.8484,6.8187,6.6705,6.5933,6.5897,6.5897,6.5635,6.5067,6.3568,6.1787,5.9884,5.9682,5.9255,5.8716,5.8716,5.8385,5.7882,5.7742,5.7364,5.6737,5.5624,5.5302,5.5124,5.3034,5.233,5.2172,5.1162,5.0819,5.0686,4.9963,4.9112,4.8201,4.7365,4.645,4.5805,4.6203,4.607,4.5904,4.624,4.5757,4.5014,4.4377,4.3745,4.3344,4.3442,4.2986,4.2745,4.3247,4.3086,4.3033,4.3531,4.3325,4.3156,4.3156,4.3045,4.286,4.2508,4.2038,4.1808,4.1923,4.1552,4.1409,4.1654,4.1512,4.1422,4.1422,4.1588,4.1776,4.1999,4.2206,4.2404,4.2602,4.2602,4.2709,4.2879,4.2879,4.2971,4.9663,5.0625,5.1865,5.1904,5.3164,5.4626,5.5472,5.6413,5.7149,5.7197,5.7959,5.8613,5.8632,5.9358,6.0789,6.3294,6.3719,6.4319,6.5973,6.5567,6.5088,6.506,6.4407,6.4335,6.5304,6.6984,6.8721,7.0415,7.1407,7.195,7.1989,7.1989,7.1245,6.9567,6.8498,6.7436,6.6392,6.6186,6.603,6.5897,6.5897,6.5485,6.4642,6.232,6.0763,5.9847,5.9088,5.8735,5.8716,5.8716,5.8385,5.7859,5.734,5.6783,5.6257,5.5671,5.5826,5.598,5.3873,5.3166,5.2892,5.1164,5.0612,5.0585,5.0418,4.9775,4.8927,4.8177,4.7293,4.6435,4.5804,4.6147,4.6495,4.5785,4.6149,4.6174,4.4455,4.4076,4.377,4.2829,4.2607,4.2623,4.2638,4.3162,4.3578,4.3608,4.4148,4.4548,4.4548,4.4182,4.3888,4.3669,4.2655,4.2316,4.315,4.1865,4.1379,4.2327,4.1767,4.1422,4.1422,4.1588,4.1776,4.1999,4.2206,4.2404,4.2602,4.2602,4.2925,4.3578,4.3578,4.3932,5.0064,5.139,5.2698,5.2698,5.3614,5.4568,5.4838,5.5652,5.6348,5.6338,5.6617,5.6863,5.6863,5.8062,5.9667,6.164,6.2936,6.43,6.6012,6.5627,6.4749,6.3636,6.3359,6.3367,6.3681,6.573,6.7537,6.8757,6.9679,7.0446,7.1071,7.1128,7.0875,7.0289,6.9156,6.811,6.7177,6.6367,6.5946,6.5897,6.5635,6.4661,6.3086,6.2559,6.1147,5.9125,5.9364,5.9199,5.8716,5.8716,5.8172,5.7364,5.7166,5.6223,5.5023,5.5355,5.4881,5.3965,5.3405,5.2783,5.2085,5.0962,5.0547,5.0453,5.0302,4.9725,4.8933,4.8099,4.7272,4.6574,4.6387,4.6175,4.6109,4.6337,4.5769,4.4976,4.4295,4.3674,4.3223,4.3266,4.3285,4.3387,4.3833,4.3609,4.3136,4.2381,4.2971,4.3461,4.3461,4.3135,4.2629,4.1932,4.192,4.1852,4.1532,4.1054,4.0884,4.1189,4.0974,4.0873,4.0873,4.0941,4.1064,4.1279,4.136,4.1562,4.1951,4.2503,4.2988,4.3385,4.3991,4.4394,5.0798,5.2661,5.4375,5.4068,5.4699,5.5299,5.4991,5.5421,5.5721,5.5104,5.5284,5.5374,5.4755,5.607,5.7703,5.9084,6.0777,6.2632,6.4685,6.459,6.413,6.367,6.3442,6.3458,6.377,6.5239,6.6677,6.7911,6.8542,6.9409,7.0605,7.0099,6.9918,7.023,6.8885,6.7827,6.7138,6.6409,6.5982,6.5897,6.5485,6.4553,6.3143,6.2975,6.1701,5.9608,5.9791,5.9316,5.8406,5.8406,5.7789,5.6809,5.6809,5.5963,5.4759,5.5238,5.4536,5.3294,5.3147,5.2494,5.1584,5.0725,5.0222,4.9919,4.9791,4.9389,4.879,4.7742,4.7266,4.6968,4.6503,4.6045,4.5862,4.6224,4.554,4.4752,4.4512,4.3956,4.3534,4.3517,4.348,4.3541,4.3657,4.315,4.2423,4.1573,4.16,4.1807,4.2135,4.1959,4.1545,4.0859,4.093,4.0901,4.0646,4.0289,4.0246,4.0589,4.0603,4.0603,4.0603,4.0603,4.0703,4.0901,4.0887,4.1112,4.1587,4.2149,4.2585,4.2845,4.3403,4.3849,5.1801,5.4261,5.6629,5.5804,5.6264,5.6684,5.5722,5.5633,5.5278,5.3523,5.3932,5.4097,5.2434,5.3517,5.4992,5.5994,5.7637,5.9712,6.2369,6.2873,6.354,6.5128,6.4713,6.4588,6.5329,6.5446,6.6147,6.7817,6.8,6.8721,7.0321,6.8976,6.8493,6.9235,6.7729,6.6724,6.6329,6.6307,6.6157,6.5897,6.5499,6.5086,6.4604,6.3465,6.2283,6.1094,6.0277,5.9146,5.7928,5.7905,5.729,5.6339,5.6311,5.594,5.5408,5.5224,5.4657,5.3859,5.309,5.2288,5.1448,5.0506,4.9686,4.905,4.8944,4.8883,4.8555,4.7204,4.7305,4.7522,4.6171,4.5807,4.5735,4.5552,4.5478,4.5368,4.4911,4.4836,4.4518,4.3442,4.3205,4.2951,4.2073,4.1657,4.1406,4.107,4.0131,3.9768,4.0732,4.0817,4.0732,4.0475,3.9681,3.9549,4.0389,3.9637,3.9519,4.0432,4.0475,4.0475,4.0475,4.0475,4.0546,4.0732,4.0732,4.0986,4.142,4.1462,4.1616,4.1908,4.1935,4.2426,5.3171,5.4623,5.5737,5.5573,5.5746,5.5399,5.3346,5.3445,5.3485,5.1787,5.1674,5.1755,5.1304,5.2124,5.3777,5.654,5.8505,6.0806,6.4073,6.5699,6.6289,6.5478,6.6331,6.6576,6.5504,6.5991,6.6556,6.6999,6.7083,6.7314,6.7743,6.8604,6.8571,6.7498,6.8191,6.7921,6.6546,6.629,6.6076,6.5897,6.5814,6.5068,6.3788,6.3492,6.2221,6.0221,6.0017,5.9377,5.8468,5.806,5.751,5.6861,5.6456,5.5613,5.4583,5.4449,5.348,5.2184,5.1825,5.1558,5.1252,5.046,4.9627,4.8944,4.8914,4.8541,4.7966,4.7051,4.6949,4.6896,4.6028,4.5807,4.5735,4.5552,4.5405,4.5055,4.4105,4.3834,4.3442,4.2522,4.2167,4.1767,4.0887,4.0375,3.9784,3.9077,3.8594,3.8684,3.9724,3.9711,3.9387,3.8652,3.897,3.9046,3.8621,3.8362,3.8317,3.8575,3.8575,3.8575,3.8575,3.8575,3.8621,3.8652,3.8652,3.8819,3.906,3.9724,4.0145,4.0461,4.1112,4.1614,5.4428,5.5587,5.6473,5.6151,5.557,5.4608,5.2874,5.2339,5.1942,5.0985,5.0844,5.0893,5.0898,5.1602,5.2953,5.5307,5.7466,5.9968,6.3125,6.5414,6.6567,6.602,6.7511,6.8037,6.6673,6.698,6.7433,6.7803,6.7551,6.7372,6.7372,6.8291,6.8376,6.74,6.7874,6.7618,6.6477,6.6221,6.603,6.5897,6.5897,6.5236,6.4015,6.3672,6.2391,6.0463,6.0072,5.9295,5.8319,5.7766,5.7241,5.6642,5.5772,5.4924,5.4145,5.3667,5.2846,5.1934,5.1378,5.1033,5.0639,4.9884,4.8883,4.7982,4.7982,4.7737,4.7288,4.6566,4.6566,4.6655,4.5956,4.5735,4.5499,4.4933,4.4632,4.4274,4.3453,4.2983,4.2467,4.1547,4.0859,4.0216,3.9662,3.9193,3.8734,3.8181,3.7979,3.8116,3.8729,3.8684,3.8427,3.7946,3.8362,3.844,3.7946,3.79,3.79,3.79,3.79,3.79,3.79,3.79,3.79,3.79,3.79,3.8024,3.82,3.8715,3.906,3.9326,3.9812,4.0418,5.567,5.6741,5.7666,5.7109,5.5673,5.4175,5.3374,5.2021,5.0919,5.0812,5.0852,5.089,5.0898,5.1525,5.2438,5.3708,5.5784,5.8307,6.1395,6.3832,6.5691,6.6741,6.8407,6.9128,6.8271,6.8173,6.8485,6.925,6.8549,6.8096,6.8096,6.8213,6.822,6.8103,6.7244,6.665,6.6295,6.6175,6.6044,6.5897,6.5897,6.5499,6.4748,6.3784,6.2579,6.1217,6.0187,5.9075,5.7951,5.7364,5.6809,5.6267,5.4931,5.4285,5.3964,5.3142,5.2629,5.2233,5.1398,5.0543,4.9717,4.9103,4.7949,4.6828,4.6925,4.6839,4.6547,4.6067,4.6291,4.6531,4.5936,4.5536,4.5092,4.4196,4.3729,4.3394,4.2876,4.2264,4.1623,4.0658,3.9724,3.9001,3.8722,3.8489,3.8313,3.8168,3.8135,3.8109,3.8018,3.7952,3.79,3.79,3.79,3.79,3.79,3.79,3.79,3.79,3.79,3.79,3.79,3.79,3.79,3.79,3.79,3.7979,3.8167,3.8167,3.8272,3.8512,3.8512,3.9069,5.7084,5.7154,5.7002,5.7691,5.6079,5.4119,5.3364,5.2424,5.1539,5.0938,5.081,5.0825,5.089,5.1014,5.2105,5.51,5.6044,5.8054,6.282,6.4533,6.5911,6.7578,6.9303,7.0024,6.9167,6.9069,6.9128,6.9289,6.8549,6.8096,6.8094,6.8781,6.8845,6.8122,6.7244,6.665,6.6295,6.6283,6.6138,6.5897,6.5897,6.5649,6.513,6.3332,6.2196,6.1501,5.97,5.8786,5.8489,5.751,5.6971,5.6695,5.5506,5.4593,5.3873,5.3584,5.2627,5.1459,5.1208,4.9862,4.8343,4.8779,4.7949,4.6925,4.7524,4.6924,4.6047,4.6508,4.6291,4.59,4.5625,4.5008,4.4404,4.4406,4.379,4.3044,4.256,4.1813,4.1,4.0119,4.0018,3.9834,3.9137,3.922,3.9359,3.9311,3.9311,3.9128,3.8645,3.8174,3.79,3.79,3.79,3.79,3.79,3.79,3.79,3.79,3.79,3.79,3.79,3.79,3.79,3.79,3.79,3.79,3.7933,3.7933,3.7992,3.8037,3.8037,3.8239,5.7122,5.7237,5.7295,5.7404,5.5837,5.4108,5.3364,5.2203,5.1183,5.0861,5.0838,5.0852,5.089,5.1273,5.226,5.4368,5.5473,5.7626,6.1983,6.3741,6.5414,6.7734,6.9147,6.9757,6.9347,6.8894,6.8816,6.927,6.8549,6.8095,6.8094,6.8078,6.7869,6.7439,6.701,6.665,6.6295,6.6295,6.6167,6.5897,6.5897,6.5696,6.5226,6.3212,6.208,6.1581,5.9573,5.8656,5.8511,5.7437,5.6938,5.665,5.5091,5.4156,5.3636,5.2731,5.1879,5.1186,5.1127,4.9701,4.8066,4.9141,4.8259,4.6809,4.6793,4.6573,4.6313,4.6297,4.5645,4.4955,4.4843,4.4241,4.3552,4.318,4.2797,4.2365,4.1837,4.1513,4.1147,4.04,4.0181,3.9944,3.9585,3.9546,3.9612,3.9612,3.9104,3.8636,3.8306,3.7543,3.7008,3.7079,3.7062,3.6875,3.6332,3.6781,3.7062,3.7062,3.7598,3.79,3.79,3.79,3.79,3.79,3.79,3.79,3.79,3.79,3.79,3.79,3.79,3.8024,5.7008,5.7504,5.797,5.7269,5.5684,5.4108,5.3364,5.1905,5.072,5.0784,5.0846,5.088,5.089,5.1467,5.2268,5.3348,5.447,5.6595,6.0578,6.2277,6.4325,6.7617,6.8777,6.9367,6.9562,6.8797,6.8563,6.925,6.8546,6.8098,6.8103,6.7273,6.6795,6.6795,6.6795,6.665,6.6295,6.6295,6.6167,6.5897,6.5897,6.5722,6.5369,6.3435,6.2285,6.1714,5.978,5.8781,5.8428,5.7456,5.6887,5.6456,5.4833,5.3935,5.342,5.2364,5.1704,5.1373,5.1545,5.0167,4.8561,4.9641,4.8553,4.6755,4.6534,4.6629,4.6724,4.6287,4.5226,4.4174,4.4098,4.3448,4.268,4.2,4.2003,4.2073,4.1504,4.1619,4.1563,4.0864,4.0471,4.0162,3.9743,3.9654,3.9514,3.9257,3.8478,3.7866,3.7755,3.6976,3.6297,3.5989,3.6033,3.5778,3.4884,3.5499,3.5988,3.5988,3.6769,3.7214,3.7214,3.7459,3.7564,3.7564,3.7762,3.79,3.79,3.79,3.79,3.79,3.79,3.7979,5.7581,5.8364,5.883,5.8151,5.6137,5.4108,5.3364,5.1905,5.0721,5.0784,5.0801,5.0827,5.0882,5.0975,5.1587,5.3308,5.3071,5.4445,5.9593,6.0447,6.2402,6.7403,6.8777,6.962,7.0394,6.9693,6.9211,6.9289,6.8544,6.8105,6.8097,6.7268,6.6795,6.6795,6.6795,6.665,6.6295,6.6295,6.6167,6.5897,6.5897,6.5885,6.5788,6.414,6.2972,6.2146,6.0438,5.9233,5.8446,5.7797,5.7091,5.6376,5.5678,5.461,5.3491,5.3994,5.3304,5.2188,5.2942,5.1754,4.9909,4.9976,4.8553,4.7024,4.8241,4.7767,4.6892,4.7303,4.588,4.4136,4.3765,4.2811,4.1943,4.1964,4.2426,4.2744,4.2461,4.239,4.2096,4.1011,4.1169,4.0945,3.9195,3.9272,3.924,3.823,3.7968,3.7694,3.7248,3.7084,3.643,3.4912,3.5272,3.5354,3.4823,3.4872,3.4921,3.4921,3.5017,3.5066,3.5066,3.5941,3.6474,3.6474,3.74,3.79,3.79,3.79,3.79,3.79,3.79,3.79,5.7376,5.8135,5.8334,5.8151,5.6194,5.4108,5.3364,5.1895,5.0721,5.0803,5.0801,5.0827,5.0882,5.0898,5.1142,5.192,5.174,5.2822,5.6603,5.7578,5.9838,6.5051,6.5952,6.6926,6.8855,6.8251,6.7744,6.7796,6.7496,6.7324,6.7327,6.699,6.6795,6.6795,6.6795,6.665,6.6295,6.6295,6.6167,6.5897,6.5897,6.5768,6.5494,6.4117,6.2872,6.1732,6.0387,5.9238,5.8268,5.7666,5.6997,5.6295,5.5698,5.4899,5.4046,5.3891,5.346,5.2977,5.3287,5.223,5.0815,5.1191,4.9815,4.7908,4.769,4.777,4.7727,4.7123,4.5638,4.4162,4.4012,4.2968,4.2021,4.2426,4.2724,4.2838,4.256,4.2351,4.2075,4.1442,4.1403,4.1019,3.9525,3.9459,3.9235,3.806,3.7329,3.6788,3.6601,3.5933,3.5156,3.4231,3.46,3.4623,3.3822,3.4085,3.4263,3.4263,3.4861,3.5112,3.4787,3.5466,3.5673,3.5415,3.6427,3.6956,3.6956,3.7611,3.79,3.79,3.79,3.79,5.6593,5.7523,5.7812,5.7423,5.5811,5.4031,5.3037,5.1722,5.0721,5.0803,5.0801,5.0827,5.0882,5.0921,5.094,5.1017,5.105,5.1921,5.4392,5.5497,5.7761,6.2429,6.3195,6.4379,6.7009,6.6916,6.6732,6.6782,6.6791,6.6796,6.68,6.6795,6.6795,6.6795,6.6795,6.6662,6.6379,6.6337,6.6194,6.595,6.5916,6.5663,6.5196,6.3999,6.2728,6.1403,6.0197,5.9109,5.8156,5.7708,5.7116,5.6492,5.5887,5.5313,5.4689,5.397,5.3736,5.3687,5.3384,5.2454,5.1444,5.1619,5.0416,4.8668,4.7583,4.7496,4.7581,4.6749,4.5154,4.3632,4.3572,4.2771,4.2154,4.2751,4.2838,4.2644,4.2029,4.1802,4.1494,4.0887,4.0645,4.0169,3.921,3.8818,3.8226,3.7249,3.6312,3.5697,3.5697,3.5002,3.4392,3.4043,3.4376,3.4148,3.3189,3.3428,3.3684,3.3684,3.4393,3.4626,3.4313,3.4881,3.5023,3.4525,3.5539,3.6007,3.5833,3.6628,3.7121,3.7413,3.7413,3.7688,5.518,5.6645,5.7525,5.5928,5.491,5.3878,5.2287,5.1279,5.0721,5.0803,5.0801,5.0827,5.0882,5.0947,5.1024,5.1093,5.115,5.1828,5.3669,5.4667,5.6484,5.9934,6.1101,6.2648,6.5273,6.6242,6.6731,6.6784,6.6797,6.6807,6.6798,6.6795,6.6795,6.6795,6.6795,6.6727,6.659,6.6406,6.6226,6.6098,6.5962,6.5616,6.5061,6.386,6.2617,6.1338,6.0,5.8933,5.8197,5.8042,5.7637,5.704,5.6501,5.5915,5.5313,5.4728,5.4494,5.435,5.3348,5.2505,5.1748,5.0746,4.9895,4.9162,4.8482,4.7136,4.5925,4.6369,4.453,4.2356,4.2098,4.2005,4.2154,4.2751,4.2693,4.2141,4.073,4.058,4.0282,3.8899,3.8629,3.8428,3.7801,3.6897,3.602,3.5351,3.4818,3.4524,3.4524,3.4524,3.4524,3.4513,3.4513,3.4119,3.3201,3.3113,3.3113,3.3113,3.3113,3.3103,3.3103,3.4065,3.44,3.3919,3.497,3.5267,3.4836,3.4836,3.5355,3.632,3.632,3.7189,5.3926,5.4467,5.4454,5.4578,5.3552,5.239,5.1938,5.124,5.0721,5.0803,5.0801,5.0827,5.0882,5.0947,5.1024,5.1093,5.1155,5.142,5.2033,5.3907,5.6258,5.9085,6.2771,6.5416,6.6239,6.6558,6.6724,6.6797,6.6796,6.6807,6.6798,6.6795,6.6795,6.6795,6.6795,6.6654,6.6332,6.626,6.5809,6.4942,6.4904,6.4341,6.3385,6.2714,6.1695,6.0412,5.9716,5.8888,5.8065,5.802,5.7637,5.7065,5.6519,5.5943,5.5313,5.4554,5.4303,5.4158,5.3197,5.2722,5.2278,5.0849,4.94,4.8286,4.8646,4.7921,4.6704,4.5372,4.4368,4.3515,4.2822,4.2616,4.2608,4.2604,4.1967,4.1119,4.03,3.983,3.9369,3.8737,3.8899,3.8824,3.7893,3.7426,3.6884,3.5876,3.5605,3.5386,3.5037,3.4993,3.4993,3.4993,3.4709,3.4403,3.4087,3.3759,3.3562,3.3562,3.3562,3.342,3.3135,3.3463,3.3515,3.3032,3.3828,3.4308,3.4365,3.5066,3.6121,3.7401,3.7401,3.8085,5.2608,5.2977,5.2867,5.3176,5.2468,5.1642,5.1399,5.1009,5.0721,5.0803,5.0801,5.0827,5.0882,5.0969,5.1056,5.1093,5.1171,5.136,5.17,5.3743,5.6269,5.9152,6.3209,6.5753,6.5758,6.6048,6.6254,6.6307,6.6028,6.5861,6.5861,6.5861,6.6014,6.6346,6.6639,6.6635,6.6312,6.6252,6.5616,6.4462,6.4416,6.3733,6.2509,6.1796,6.0904,5.9897,5.9183,5.8525,0.0,5.7997,5.7774,5.7358,5.651,5.5953,5.5496,5.4506,5.4143,5.3946,5.2665,5.2243,5.1977,5.0258,4.8718,4.7485,4.7297,4.706,4.6418,4.4359,4.3776,4.3648,4.3067,4.2838,4.2693,4.256,4.1616,4.0543,3.9808,3.9187,3.8567,3.7978,3.8144,3.8205,3.7663,3.7265,3.6866,3.6322,3.6085,3.5729,3.5057,3.5255,3.537,3.4956,3.5005,3.5002,3.4888,3.4402,3.4021,3.391,3.391,3.3725,3.3301,3.3351,3.3165,3.2748,3.33,3.3577,3.3601,3.4722,3.5754,3.6692,3.7315,3.8191,0.0,5.2059,5.2466,5.1779,5.1606,5.145,5.0755,5.0643,0.0,5.0803,5.0801,5.0827,5.0882,5.1004,5.1099,5.1099,5.1215,5.1572,5.2397,5.4266,5.6751,6.001,6.275,6.4307,6.4127,6.4956,6.5484,6.5428,6.4726,6.4299,6.4299,6.4299,6.4667,6.5465,6.6226,6.6537,6.6385,6.6128,6.546,6.4397,6.427,6.3499,6.2181,6.1009,6.0208,5.9658,5.8496,5.7997,5.7997,5.7997,5.7973,5.7797,5.6492,5.5974,5.5759,5.4457,5.398,5.3733,5.1921,5.1283,5.0984,4.905,4.7861,4.6827,4.4808,4.49,4.5281,4.3437,4.2887,4.2887,4.2887,4.2595,4.2351,4.2351,4.1373,4.0177,3.9089,3.8536,3.7947,3.6923,3.6719,3.6883,3.7298,3.6653,3.6216,3.6675,3.6358,3.5691,3.4696,3.5323,3.5557,3.4568,3.5291,3.5689,3.5418,3.4875,3.441,3.414,3.4108,3.3918,3.3625,3.3568,3.3367,3.2921,3.3253,3.3137,3.2674,3.3913,3.4587,3.4692,3.6237,3.7606,5.0527,0.0,5.0837,5.0669,5.0711,5.073,0.0,5.0623,5.0721,5.0803,5.0801,5.0827,5.0882,5.0961,5.1043,5.1093,5.1166,5.1512,5.2373,5.628,5.9596,6.1115,6.4154,6.5352,6.3398,6.4597,6.5233,6.4628,6.4401,6.4299,6.4299,6.4299,6.4367,6.4519,6.4714,6.4968,6.5266,6.4528,6.3518,6.2314,6.227,6.1609,6.0394,5.9809,5.9288,5.8844,5.8279,5.7997,5.7997,5.7997,5.7679,5.7065,5.6304,5.5663,5.5039,5.4124,5.3783,5.3517,5.1756,5.1129,5.0643,4.7473,4.6798,4.6696,4.4059,4.3918,4.4406,4.3245,4.2741,4.2609,4.2609,4.1769,4.0831,4.0667,3.9294,3.7977,3.7484,3.7212,3.7041,3.6756,3.6981,3.7254,3.7352,3.7199,3.709,3.7199,3.7123,3.6605,3.5223,3.4973,3.4652,3.3983,3.3948,3.4079,3.4317,3.4581,3.4604,3.4293,3.3941,3.3681,3.3625,3.3409,3.3254,3.3138,3.3409,3.3412,3.3082,3.3842,3.4691,3.5517,3.5674,3.6582,5.029,5.0302,5.0302,5.0302,5.0393,5.05,5.05,5.0594,5.0712,5.0748,5.0784,5.0819,5.0885,5.0959,5.1024,5.1093,5.1478,5.2458,5.4552,5.759,6.0249,6.1997,6.3823,6.4576,6.3583,6.4019,6.4179,6.3735,6.3291,6.3068,6.3068,6.3036,6.3171,6.3542,6.317,6.3384,6.4249,6.3739,6.2852,6.1593,6.1593,6.0974,5.9774,5.9397,5.8969,5.8566,5.8186,5.7997,5.7997,5.7927,5.7516,5.6817,5.6067,5.5373,5.4672,5.3881,5.3382,5.2853,5.1553,5.0615,4.9487,4.671,4.6137,4.6092,4.3519,4.3053,4.3362,4.2873,4.2547,4.2302,4.2302,4.1295,4.0198,4.0033,3.8693,3.7422,3.7322,3.7168,3.7014,3.7014,3.721,3.7374,3.7374,3.7374,3.7374,3.7374,3.7,3.6284,3.4994,3.4614,3.4187,3.3391,3.3364,3.3327,3.3235,3.2994,3.311,3.3764,3.3557,3.3353,3.3182,3.3069,3.3022,3.3193,3.3353,3.3409,3.3353,3.3692,3.4177,3.4803,3.4625,3.5311,5.0302,5.0397,5.0474,5.034,5.0393,5.05,5.05,5.0594,5.0702,5.0711,5.0747,5.081,5.0863,5.0948,5.101,5.1087,5.2045,5.3953,5.7317,5.8652,6.0077,6.2235,6.2853,6.3247,6.3587,6.3242,6.2943,6.2815,6.2064,6.1595,6.1595,6.1537,6.1841,6.2577,6.1735,6.1806,6.2878,6.3033,6.254,6.1421,6.1421,6.0753,5.95,5.9154,5.8707,5.8129,5.7902,5.7813,5.7767,5.769,5.7277,5.6589,5.5713,5.4969,5.4342,5.36,5.2868,5.2164,5.1236,4.9876,4.8297,4.6359,4.5792,4.5456,4.3224,4.2547,4.2512,4.2592,4.2391,4.2149,4.2056,4.0933,3.98,3.98,3.8605,3.744,3.752,3.745,3.7374,3.7374,3.7253,3.7193,3.7193,3.706,3.6939,3.6939,3.6186,3.5314,3.431,3.4,3.3542,3.2619,3.2679,3.2541,3.1937,3.1076,3.1118,3.2506,3.2758,3.2784,3.2669,3.2669,3.2841,3.3136,3.3193,3.3306,3.3455,3.3512,3.3523,3.3523,3.3466,3.4032,5.0302,5.0837,5.1219,5.0474,5.0393,5.05,5.05,5.0594,5.0702,5.0711,5.0747,5.0801,5.081,5.0866,5.0959,5.1089,5.3062,5.5547,5.824,5.9989,6.0908,6.0651,6.2616,6.3215,6.1172,6.2206,6.2689,6.1957,6.1712,6.1595,6.1595,6.1537,6.1568,6.1696,6.0735,6.0231,6.0199,6.0932,6.1054,6.058,6.058,5.9771,5.8271,5.8199,5.7413,5.6088,5.6716,5.6919,5.6817,5.698,5.6536,5.5656,5.4999,5.4296,5.3551,5.2782,5.243,5.2076,5.0592,4.943,4.8256,4.6167,4.578,4.5749,4.3606,4.2764,4.2669,4.3132,4.2933,4.2393,4.1878,4.0362,3.8963,3.8844,3.7523,3.6355,3.6784,3.7111,3.7374,3.7374,3.6685,3.6125,3.6125,3.5438,3.4871,3.4871,3.4746,3.4258,3.3253,3.2295,3.1463,3.0752,3.0418,3.0175,3.004,3.0092,3.0137,2.9966,3.0712,3.1652,3.2669,3.2669,3.2737,3.2784,3.3079,3.3079,3.2841,3.3136,3.325,3.325,3.2955,3.3229,5.0302,5.0588,5.0799,5.0397,5.0738,5.1037,5.0596,5.0594,5.0693,5.0693,5.0748,5.0801,5.0801,5.1236,5.2063,5.3511,5.5208,5.6906,5.8513,5.951,6.0093,6.0192,6.1349,6.1696,6.0506,6.1553,6.1737,6.0393,6.0662,6.0902,6.0898,6.0808,6.0702,6.0633,6.0193,5.9578,5.8787,5.9191,5.9264,5.9052,5.8821,5.8221,5.7281,5.7043,5.6405,5.554,5.6278,5.6356,5.6036,5.6503,5.6029,5.4969,5.4637,5.3813,5.2712,5.1475,5.0919,5.0544,4.881,4.79,4.7131,4.5041,4.4772,4.4841,4.2905,4.2172,4.2021,4.1787,4.1376,4.1016,4.1055,3.9225,3.7453,3.7657,3.6816,3.6155,3.6588,3.7057,3.7374,3.7374,3.6563,3.5879,3.5879,3.5067,3.4373,3.4373,3.3621,3.28,3.2365,3.1057,3.0057,2.9813,2.9275,2.8818,2.8605,2.8354,2.8531,2.9112,3.0155,3.1063,3.1652,3.2315,3.2373,3.172,3.2487,3.2487,3.1662,3.2545,3.2908,3.2908,3.2794,3.2841,5.0302,5.0455,5.0569,5.0359,5.086,5.1283,5.0883,5.0891,5.1019,5.1241,5.1183,5.1073,5.1073,5.168,5.303,5.5586,5.6846,5.7914,5.9102,5.9404,5.9747,6.0403,6.0613,6.0622,6.0423,6.0993,6.0761,5.9219,5.9669,6.001,6.0005,5.9859,5.9738,5.96,5.9373,5.8781,5.7828,5.7577,5.7614,5.7905,5.7494,5.6962,5.6364,5.5917,5.5376,5.482,5.5398,5.5371,5.4974,5.5553,5.5197,5.4302,5.4213,5.3281,5.1842,5.0345,4.9423,4.8646,4.7231,4.6462,4.584,4.4008,4.3788,4.3936,4.2,4.1453,4.1364,4.0529,3.9779,3.9262,3.9888,3.8383,3.6828,3.7025,3.6598,3.6271,3.6752,3.7134,3.7314,3.706,3.6258,3.5438,3.5253,3.4373,3.3621,3.3505,3.2301,3.1414,3.1221,2.9944,2.9053,2.9053,2.8461,2.7917,2.7474,2.6994,2.7169,2.8182,2.9351,3.0155,3.0353,3.1594,3.1662,3.0402,3.1893,3.2076,3.082,3.2076,3.2669,3.2669,3.2669,3.2669,5.0302,5.0894,5.1314,5.0512,5.0405,5.0722,5.1516,5.1704,5.1968,5.2846,5.2435,5.1905,5.1905,5.2067,5.3035,5.5586,5.6846,5.8295,6.0613,6.1156,6.1315,6.1318,6.1496,6.1283,6.0477,6.0454,6.0119,5.9161,5.9104,5.9094,5.9094,5.897,5.8826,5.869,5.7785,5.7205,5.6982,5.6064,5.6371,5.7905,5.7494,5.6644,5.5393,5.5042,5.4191,5.3002,5.3309,5.3342,5.3218,5.3561,5.3597,5.3394,5.3511,5.2574,5.107,4.9923,4.844,4.6943,4.6608,4.5914,4.4875,4.3537,4.3547,4.3611,4.1273,4.0908,4.1126,4.0555,3.9143,3.7978,3.8598,3.8562,3.8194,3.7736,3.7135,3.6773,3.7232,3.7352,3.7132,3.6186,3.5191,3.4185,3.3253,3.2256,3.1368,3.0667,3.0482,3.0157,2.9569,2.8848,2.8395,2.8395,2.7733,2.7124,2.6765,2.6741,2.6631,2.6407,2.7243,2.8114,2.8989,3.0285,3.0344,2.9039,3.1478,3.2076,3.082,3.2076,3.2669,3.2669,3.2669,3.2669,5.0168,5.0187,5.0092,5.0264,5.0314,5.0589,5.1582,5.1821,5.1961,5.2327,5.2608,5.282,5.2866,5.3361,5.4418,5.6487,5.8067,5.9557,6.0965,6.1349,6.1288,6.0723,6.0796,6.0344,5.8914,5.9261,5.9026,5.766,5.7953,5.8198,5.8198,5.7994,5.7799,5.7669,5.7224,5.6648,5.5968,5.5594,5.5546,5.5854,5.5564,5.513,5.4515,5.3852,5.3218,5.269,5.2863,5.2727,5.2324,5.259,5.2427,5.1915,5.1333,5.0686,4.9962,4.8969,4.7646,4.6285,4.5555,4.4581,4.347,4.2368,4.2402,4.2499,4.0541,4.0244,4.0262,3.8653,3.7862,3.7574,3.7993,3.7508,3.6907,3.6671,3.6677,3.6638,3.6528,3.6441,3.6186,3.5191,3.4133,3.3379,3.2946,3.2065,3.112,3.0417,2.9961,2.9438,2.879,2.8064,2.76,2.76,2.74,2.7153,2.701,2.7002,2.6851,2.6501,2.7122,2.7641,2.8035,2.9048,2.9394,2.892,3.0645,3.1305,3.082,3.2076,3.2669,3.2669,3.2669,3.2871,4.9843,4.9691,4.9614,5.0168,5.0547,5.1014,5.1965,5.2214,5.2401,5.2981,5.3214,5.3311,5.3356,5.3883,5.4972,5.699,5.8352,5.9658,6.1007,6.0923,6.0571,6.0249,6.0077,5.94,5.7935,5.8343,5.8109,5.6704,5.6764,5.6873,5.6873,5.6388,5.6156,5.6281,5.5898,5.5458,5.5002,5.4592,5.4325,5.4216,5.383,5.37,5.3795,5.3078,5.2568,5.2286,5.2179,5.1811,5.1276,5.1459,5.1264,5.0793,5.0176,4.9623,4.903,4.7855,4.6667,4.5465,4.441,4.3293,4.2186,4.1498,4.132,4.1068,3.9555,3.9103,3.8821,3.7075,3.6891,3.7242,3.7434,3.6972,3.631,3.5864,3.6129,3.6249,3.556,3.5438,3.5129,3.4133,3.3379,3.2756,3.2183,3.1497,3.0732,2.9831,2.9307,2.8725,2.8064,2.7533,2.72,2.72,2.72,2.72,2.72,2.72,2.7097,2.6851,2.7105,2.7156,2.6931,2.787,2.8211,2.7735,2.9757,3.0587,3.0227,3.1893,3.2799,3.2934,3.2934,3.3172,4.932,4.9671,5.0283,5.0302,5.1055,5.2006,5.282,5.2992,5.3505,5.5316,5.4419,5.3291,5.33,5.3419,5.4349,5.6874,5.7345,5.8281,6.0813,5.9903,5.928,6.0078,5.9511,5.8714,5.7855,5.7758,5.7426,5.6626,5.5656,5.5084,5.5084,5.4078,5.3788,5.4468,5.3568,5.3414,5.4085,5.284,5.2601,5.3369,5.2585,5.2555,5.3189,5.2777,5.2226,5.1576,5.0955,5.0387,4.9913,5.0042,5.0104,5.0119,5.0529,4.9789,4.8309,4.6675,4.5465,4.441,4.3211,4.215,4.1261,4.1261,4.0516,3.939,3.8218,3.7402,3.6791,3.6148,3.6315,3.6686,3.6686,3.7025,3.7002,3.5575,3.5554,3.5623,3.4622,3.4383,3.407,3.3063,3.2873,3.231,3.0602,3.0287,2.9831,2.8527,2.8329,2.7998,2.7267,2.72,2.72,2.72,2.72,2.72,2.72,2.72,2.72,2.72,2.6875,2.6366,2.5612,2.6798,2.6739,2.5181,2.8861,3.0168,2.892,3.1478,3.2954,3.3379,3.3379,3.3627,4.9167,4.9282,4.9595,5.0168,5.1021,5.1951,5.2809,5.3078,5.3469,5.4626,5.3993,5.3427,5.4092,5.4254,5.4743,5.6149,5.6958,5.7889,5.9318,5.8694,5.7957,5.7636,5.6892,5.6079,5.5201,5.5089,5.4959,5.4725,5.4383,5.4134,5.4055,5.3608,5.3416,5.351,5.3107,5.298,5.3168,5.2536,5.2145,5.2071,5.2066,5.2456,5.3189,5.2777,5.2226,5.1576,5.0955,5.0387,4.9854,4.9266,4.9036,4.8961,4.8683,4.8298,4.773,4.6373,4.5267,4.4252,4.3163,4.1604,4.0083,4.0083,3.9339,3.8166,3.7073,3.6784,3.6642,3.5321,3.5539,3.6184,3.6184,3.5659,3.5091,3.5179,3.5004,3.457,3.3568,3.3316,3.2873,3.1359,3.1046,3.0788,2.9765,2.9569,2.9307,2.8461,2.8329,2.7998,2.7267,2.72,2.72,2.72,2.72,2.72,2.72,2.72,2.72,2.72,2.7105,2.6843,2.6382,2.627,2.6376,2.6756,2.7695,2.8801,3.0227,3.1005,3.2057,3.3379,3.3379,3.3862,4.8678,4.906,4.9786,5.0608,5.1519,5.2364,5.2952,5.365,5.4337,5.4876,5.429,5.4004,5.494,5.4862,5.5054,5.6304,5.643,5.6807,5.8091,5.7026,5.6081,5.5992,5.5266,5.4576,5.4049,5.3947,5.3891,5.3891,5.3528,5.3222,5.3088,5.2569,5.2367,5.2572,5.2043,5.1834,5.2043,5.1265,5.079,5.0711,5.0755,5.1373,5.2432,5.2272,5.1855,5.1183,5.0331,4.9588,4.8948,4.868,4.7999,4.7157,4.7302,4.691,4.6086,4.5166,4.4319,4.3545,4.2563,4.1069,3.9609,3.9609,3.8546,3.7115,3.6394,3.601,3.5614,3.4818,3.4937,3.524,3.4944,3.4101,3.3555,3.4248,3.3674,3.2664,3.1662,3.1479,3.1157,3.0083,2.9896,2.97,2.9053,2.851,2.7965,2.7318,2.7251,2.7185,2.72,2.72,2.72,2.72,2.72,2.72,2.72,2.72,2.72,2.72,2.7073,2.6899,2.6684,2.6136,2.6141,2.6736,2.6914,2.7787,2.9275,3.0285,3.1544,3.292,3.3461,3.4145,4.8036,4.9079,5.0608,5.141,5.2365,5.3149,5.3287,5.4481,5.5549,5.5395,5.4888,5.4746,5.5519,5.5123,5.5197,5.671,5.5683,5.5265,5.6917,5.5096,5.3925,5.4863,5.4263,5.3756,5.3756,5.3693,5.3654,5.3654,5.2858,5.2292,5.2149,5.123,5.0971,5.1628,5.0624,5.0282,5.0771,4.9438,4.8992,4.9396,4.9058,4.9651,5.1018,5.134,5.1164,5.0517,4.9299,4.8322,4.7605,4.8142,4.7088,4.5238,4.6261,4.5565,4.4007,4.3418,4.2993,4.2579,4.1508,4.0402,3.9442,3.9287,3.7755,3.6025,3.597,3.5046,3.4116,3.4411,3.4289,3.3922,3.3212,3.2424,3.2037,3.2801,3.1762,3.0437,2.9495,2.9307,2.9307,2.9242,2.9185,2.8979,2.8196,2.7161,2.6278,2.5562,2.5427,2.5831,2.6792,2.7,2.7067,2.7067,2.7134,2.72,2.72,2.72,2.72,2.72,2.6899,2.6724,2.6724,2.6383,2.5953,2.5581,2.6433,2.6892,2.7021,2.9372,3.1111,3.2211,3.3426,3.4469,4.8036,4.9507,5.136,5.1551,5.2788,5.3974,5.4106,5.4427,5.4323,5.3,5.3674,5.437,5.3947,5.4274,5.4553,5.4351,5.4,5.3948,5.4446,5.3498,5.2889,5.3203,5.2485,5.196,5.196,5.1898,5.1858,5.1858,5.1536,5.1233,5.1051,5.073,5.0511,5.0467,5.0011,4.9769,4.9728,4.8887,4.855,4.8642,4.8821,4.886,4.8821,5.0097,5.0347,4.9821,4.909,4.8258,4.7355,4.7278,4.6582,4.5518,4.4799,4.4304,4.3777,4.2629,4.2181,4.1868,4.0462,3.9223,3.806,3.6984,3.5674,3.4524,3.4233,3.3952,3.3523,3.2606,3.233,3.2155,3.1665,3.0448,2.9529,3.037,3.0056,2.9561,2.9373,2.9307,2.9111,2.8593,2.8527,2.799,2.6442,2.5965,2.5487,2.4413,2.4263,2.4331,2.4549,2.5367,2.5973,2.5973,2.6725,2.72,2.72,2.72,2.72,2.72,2.7129,2.7089,2.7089,2.6223,2.5715,2.5573,2.5533,2.6006,2.7013,2.7791,2.9575,3.2211,3.2747,3.388,4.8544,4.9671,5.1085,5.1541,5.291,5.3991,5.3316,5.3135,5.2771,5.1567,5.2683,5.3753,5.3368,5.3667,5.3868,5.3547,5.317,5.2971,5.3119,5.2439,5.1963,5.2063,5.1677,5.1394,5.1394,5.1343,5.13,5.13,5.1107,5.0914,5.0705,5.0567,5.0388,5.0108,4.9749,4.9424,4.9129,4.8549,4.8193,4.8073,4.7976,4.7665,4.7259,4.8889,4.9469,4.9178,4.8416,4.7539,4.6571,4.5992,4.501,4.3883,4.3221,4.2611,4.202,4.1616,4.1254,4.0852,3.9766,3.8598,3.7329,3.5968,3.4803,3.3738,3.2913,3.2628,3.2217,3.0965,3.0576,3.0403,2.9578,2.8986,2.8443,2.816,2.8178,2.832,2.832,2.832,2.8188,2.7865,2.7799,2.7459,2.6517,2.5502,2.4413,2.3331,2.3119,2.3318,2.3809,2.442,2.4759,2.4759,2.5771,2.645,2.645,2.6926,2.72,2.72,2.7042,2.6954,2.6954,2.6263,2.5961,2.6128,2.5628,2.5748,2.6641,2.7385,2.8711,3.0583,3.1989,3.3342,4.906,4.9805,5.0734,5.1672,5.2879,5.3503,5.2105,5.174,5.15,5.0836,5.1914,5.2944,5.2886,5.3001,5.3086,5.3056,5.2518,5.2144,5.2253,5.1717,5.1328,5.138,5.1394,5.1394,5.1394,5.1343,5.1296,5.1265,5.1063,5.0863,5.0689,5.0518,5.0291,4.998,4.9546,4.9094,4.8693,4.8251,4.7931,4.7678,4.7039,4.6597,4.6392,4.7614,4.8235,4.8284,4.7556,4.6643,4.5613,4.4834,4.3491,4.199,4.1811,4.1013,4.0006,4.0418,4.0126,3.9456,3.8899,3.7829,3.6576,3.5366,3.4302,3.3275,3.1967,3.1391,3.0869,2.9384,2.9021,2.868,2.7499,2.7609,2.7766,2.6592,2.6684,2.7113,2.7113,2.7161,2.72,2.72,2.6867,2.6658,2.6658,2.4827,2.3058,2.2173,2.2035,2.2304,2.3263,2.3536,2.3604,2.3604,2.4617,2.5292,2.5292,2.6316,2.6926,2.6926,2.6856,2.6764,2.6764,2.6487,2.6471,2.6756,2.608,2.5866,2.6208,2.7333,2.8137,2.8747,3.1286,3.2777,4.8877,5.0245,5.162,5.2454,5.2817,5.2745,5.1916,5.1708,5.15,5.0836,5.1433,5.1886,5.1247,5.1757,5.2035,5.1354,5.1257,5.1293,5.1362,5.1328,5.1328,5.138,5.1394,5.1394,5.1394,5.1343,5.1256,5.1137,5.0896,5.068,5.0528,5.0298,4.9961,4.9512,4.9097,4.8657,4.8193,4.7891,4.7741,4.7696,4.6566,4.6369,4.6948,4.608,4.5929,4.6405,4.6892,4.6202,4.4699,4.4548,4.3491,4.1908,4.1113,4.0172,3.9266,3.8872,3.8329,3.7655,3.6869,3.6128,3.5311,3.3931,3.3353,3.2955,3.1401,3.0878,3.0344,2.7966,2.7349,2.7106,2.6102,2.5951,2.6104,2.6534,2.6676,2.6748,2.6748,2.6986,2.72,2.72,2.5644,2.4353,2.4353,2.2578,2.1081,2.0943,2.0943,2.0943,2.1081,2.1966,2.251,2.251,2.3447,2.4128,2.4149,2.5158,2.5839,2.5839,2.6612,2.7129,2.7129,2.6795,2.6771,2.7121,2.6438,2.6168,2.6208,2.664,2.7506,2.8755,3.0619,3.2162,4.966,5.0302,5.0971,5.1314,5.1773,5.1942,5.1196,5.1037,5.0973,5.074,5.0972,5.1135,5.0842,5.1101,5.1297,5.1048,5.1088,5.119,5.1254,5.1308,5.1376,5.1396,5.1403,5.1394,5.1394,5.1241,5.1106,5.1047,5.0753,5.0538,5.0404,5.0205,4.9855,4.9321,4.8967,4.8568,4.8096,4.7829,4.7363,4.6683,4.6355,4.5863,4.5315,4.545,4.5685,4.6009,4.5862,4.5322,4.4434,4.3491,4.2356,4.1113,4.0159,3.9166,3.8253,3.8361,3.7792,3.6917,3.6201,3.5492,3.4503,3.2493,3.1835,3.1469,2.9335,2.8683,2.8265,2.6424,2.6093,2.6104,2.5721,2.5778,2.5953,2.6064,2.639,2.649,2.5635,2.6351,2.7,2.645,2.503,2.3741,2.3126,2.2242,2.1421,2.0804,2.0665,2.0665,2.0665,2.1081,2.1421,2.1421,2.2366,2.2976,2.2989,2.4006,2.4887,2.5562,2.604,2.6592,2.72,2.705,2.7042,2.72,2.67,2.6541,2.674,2.6899,2.7292,2.7859,2.9227,3.0595,5.0042,5.0137,5.0278,5.0302,5.081,5.1151,5.0613,5.0511,5.0553,5.0692,5.0702,5.072,5.0793,5.081,5.0901,5.1075,5.1163,5.1218,5.1297,5.1363,5.1394,5.1394,5.1391,5.1388,5.1336,5.1132,5.0979,5.0898,5.0652,5.0445,5.0306,5.0132,4.9773,4.918,4.8902,4.8513,4.8014,4.7624,4.6998,4.6122,4.6011,4.5292,4.4087,4.4838,4.5219,4.5335,4.4902,4.4396,4.3765,4.2452,4.1239,4.0159,3.9329,3.84,3.7511,3.7582,3.7033,3.6144,3.5317,3.4415,3.3279,3.1391,3.0587,2.9933,2.7675,2.7013,2.6719,2.5464,2.5302,2.5446,2.5446,2.5691,2.5771,2.536,2.5642,2.5815,2.4968,2.5624,2.6115,2.5292,2.4278,2.3263,2.2448,2.2104,2.1622,2.0804,2.0665,2.0665,2.0665,2.0665,2.0665,2.0665,2.1421,2.1897,2.1897,2.2853,2.387,2.4684,2.5292,2.5973,2.6792,2.7,2.7067,2.7067,2.6806,2.6872,2.72,2.7134,2.7067,2.7067,2.8081,2.9117,4.9354,4.9675,5.0212,5.029,5.0375,5.047,5.0489,5.0542,5.0613,5.0692,5.0702,5.072,5.0793,5.0855,5.0945,5.1075,5.1163,5.1218,5.1297,5.1363,5.1394,5.1394,5.1391,5.1336,5.1124,5.1056,5.0891,5.0641,5.0548,5.0453,5.0314,5.005,4.9627,4.9027,4.8746,4.8326,4.772,4.7084,4.6735,4.6734,4.5353,4.4641,4.4528,4.3962,4.3663,4.3562,4.4209,4.3603,4.2099,4.1767,4.0703,3.9197,3.872,3.8082,3.732,3.5883,3.5201,3.4803,3.3495,3.2166,3.0995,3.082,2.9992,2.8742,2.7435,2.7013,2.6719,2.5464,2.5119,2.5135,2.5135,2.5151,2.4991,2.4353,2.4175,2.4509,2.5375,2.4798,2.4081,2.4013,2.3126,2.2379,2.231,2.149,2.0735,2.0741,2.0665,2.0665,2.0665,2.0665,2.0665,2.0665,2.0735,2.0804,2.0804,2.176,2.2379,2.2441,2.4413,2.5629,2.5697,2.6383,2.6725,2.6725,2.671,2.6843,2.72,2.6867,2.6725,2.6725,2.7758,2.8279,4.9735,4.962,4.957,5.0145,5.0348,5.0424,5.0489,5.0542,5.0613,5.0692,5.074,5.0775,5.0793,5.0887,5.0998,5.1133,5.1216,5.1296,5.1347,5.1374,5.1408,5.1391,5.1362,5.1269,5.1061,5.0905,5.072,5.0558,5.0423,5.0283,5.007,4.9754,4.9317,4.8764,4.844,4.8015,4.745,4.6649,4.61,4.5831,4.5358,4.4708,4.3961,4.415,4.3962,4.3421,4.3072,4.2452,4.1699,4.0986,3.9915,3.8675,3.79,3.7374,3.6815,3.5655,3.4776,3.4108,3.2914,3.141,2.9916,2.9324,2.835,2.7164,2.6106,2.5762,2.5709,2.5226,2.5111,2.4919,2.4293,2.4108,2.3996,2.3514,2.3007,2.2757,2.3351,2.3195,2.2853,2.2853,2.2035,2.1283,2.1283,2.0943,2.0665,2.0665,2.0665,2.0665,2.0665,2.0665,2.0665,2.0665,2.0665,2.0665,2.0665,2.1081,2.1559,2.2242,2.3665,2.4692,2.5172,2.619,2.6599,2.6339,2.6331,2.6465,2.6867,2.6733,2.6725,2.6725,2.6584,2.7043,5.003,4.9794,4.9527,5.0145,5.0348,5.0424,5.0489,5.0542,5.0613,5.0692,5.0749,5.0819,5.0839,5.0959,5.1108,5.1191,5.1267,5.1326,5.1381,5.1407,5.1406,5.1397,5.1308,5.1157,5.0946,5.0745,5.0567,5.0369,5.0283,5.0089,4.9759,4.9472,4.9048,4.8439,4.8055,4.7588,4.7107,4.6207,4.5528,4.5064,4.4879,4.4251,4.3241,4.3602,4.338,4.2649,4.1804,4.1331,4.107,4.0031,3.9006,3.7946,3.7188,3.6581,3.6036,3.4921,3.4012,3.3137,3.1655,3.018,2.8794,2.7946,2.6861,2.5759,2.5237,2.5111,2.5111,2.5111,2.4857,2.4417,2.3798,2.3186,2.268,2.2387,2.1799,2.1329,2.1582,2.1696,2.176,2.176,2.122,2.0665,2.0665,2.0665,2.0665,2.0665,2.0665,2.0665,2.0665,2.0665,2.0665,2.0665,2.0665,2.0665,2.0665,2.0665,2.1012,2.1697,2.251,2.3461,2.4428,2.5165,2.5712,2.5936,2.5936,2.6071,2.6331,2.6331,2.6331,2.6331,2.5727,2.619,0.0,0.0,0.0,5.0267,5.0348,5.0424,5.0489,5.0542,5.0613,5.0702,5.0758,5.0822,5.0898,5.1063,5.1207,5.1207,5.1269,5.1326,5.1381,5.1407,5.1406,5.1397,5.1228,5.1016,5.0813,5.0615,5.038,5.012,5.0095,4.9882,4.942,4.924,4.8832,4.8096,4.7542,4.7084,4.6683,4.5724,4.5047,4.4567,4.3948,4.3241,4.2519,4.2299,4.1832,4.1116,4.0527,4.0195,4.006,3.893,3.7946,3.7015,3.6593,3.5906,3.503,3.3697,3.2802,3.1971,2.9715,2.8403,2.7528,2.6772,2.5625,2.4642,2.5,2.5111,2.5111,2.5042,2.4355,2.3611,2.3549,2.2278,2.0974,2.0916,2.0626,2.0291,2.0217,2.0422,2.0665,2.0665,2.0665,2.0665,2.0665,2.0665,2.0665,2.0665,2.0665,2.0665,2.0665,2.0665,2.0665,2.0665,2.0665,2.0665,2.0665,2.0665,2.0665,2.0665,2.0988,2.1809,2.3263,2.3386,2.4067,2.5464,2.5532,2.5599,2.5599,2.5599,2.5599,2.5599,2.5262,2.5779,5.012,0.0,0.0,0.0,0.0,0.0,5.0489,5.0542,5.0623,5.0683,5.0795,5.0884,5.0953,5.1135,5.126,5.1271,5.1324,5.1384,5.1399,5.1407,5.1379,5.1323,5.1191,5.0997,5.0745,5.0596,5.038,5.012,4.9908,4.9651,4.9274,4.8709,4.8136,4.7542,4.6913,4.6448,4.6193,4.5125,4.4513,4.439,4.4393,4.4012,4.3281,4.3092,4.2479,4.1459,3.9992,3.9118,3.868,3.8334,3.7553,3.6593,3.6452,3.5763,3.4775,3.3648,3.2578,3.1576,3.0202,2.8593,2.7212,2.7224,2.6049,2.4642,2.5,2.5111,2.4919,2.4232,2.3798,2.3293,2.1839,2.0831,2.0031,1.9489,1.9543,1.9571,1.9016,1.8997,1.9396,2.0457,2.0665,2.0665,2.0665,2.0665,2.0665,2.0665,2.0665,2.0665,2.0665,2.0665,2.0665,2.0665,2.0665,2.0665,2.0665,2.0665,2.0451,1.9889,2.0705,2.1038,2.0617,2.2408,2.344,2.3584,2.4699,2.5262,2.5262,2.5464,2.5599,2.5599,2.5262,2.5322,5.0095,5.0158,5.0231,5.029,0.0,0.0,5.0478,5.0532,5.0595,5.0743,5.0852,5.0946,5.1069,5.1206,5.1306,5.1342,5.1367,5.1397,5.1395,5.1398,5.1355,5.1233,5.107,5.0891,5.0633,5.0436,5.0197,4.9836,4.9622,4.9271,4.878,4.8232,4.7728,4.7302,4.666,4.6116,4.57,4.4763,4.4196,4.3993,4.4162,4.3835,4.3117,4.2845,4.1983,4.0615,3.9285,3.8256,3.7552,3.7449,3.7023,3.6358,3.5918,3.5078,3.3981,3.2939,3.1841,3.0774,2.9638,2.8246,2.6992,2.6834,2.5797,2.4642,2.5,2.4988,2.4664,2.3534,2.2327,2.1125,1.9489,1.8983,1.8734,1.8368,1.8618,1.8827,1.8405,1.8342,1.8692,1.9541,1.9959,2.0173,2.0173,2.0457,2.0665,2.0665,2.0665,2.0596,2.0243,2.0173,2.0104,1.975,1.975,1.9889,2.0167,1.9889,1.9675,1.9535,1.9524,1.9518,1.9507,2.068,2.1784,2.2751,2.3659,2.4428,2.5127,2.5329,2.5397,2.5397,2.5194,2.5127,5.0082,5.0139,5.0231,5.029,5.0302,0.0,5.0478,5.0502,5.0586,5.0856,5.0926,5.0992,5.1183,5.1275,5.1334,5.1386,5.14,5.1395,5.139,5.1379,5.1296,5.1127,5.0893,5.0675,5.0507,5.0197,4.9836,4.9405,4.9193,4.878,4.8037,4.7806,4.7511,4.7236,4.6566,4.5875,4.525,4.4569,4.3993,4.3522,4.3575,4.3165,4.2383,4.1975,4.0828,3.9173,3.8472,3.7634,3.6748,3.6366,3.631,3.631,3.5223,3.4141,3.3051,3.1982,3.094,2.9837,2.8774,2.7803,2.6872,2.6162,2.536,2.4642,2.4891,2.4826,2.4293,2.2772,2.0417,1.8133,1.7254,1.7179,1.7405,1.7492,1.7721,1.7898,1.7856,1.802,1.81,1.8126,1.8832,1.9396,1.946,2.0098,2.0596,2.0596,2.0596,2.0312,1.9465,1.939,1.9111,1.8476,1.8406,1.8692,1.932,1.8762,1.8622,1.9186,1.8007,1.7861,1.9089,1.8681,1.9652,2.2265,2.2614,2.3447,2.4841,2.4991,2.5127,2.5127,2.5127,2.5127,5.0095,5.0194,5.029,5.0302,5.0302,0.0,5.0478,5.0586,5.0705,5.0877,5.1025,5.1177,5.1267,5.1337,5.1386,5.1402,5.139,5.1402,5.1408,5.1258,5.1131,5.1102,5.0735,5.0441,5.0353,4.984,4.9453,4.9259,4.8656,4.8058,4.7496,4.7428,4.7187,4.6754,4.5935,4.5329,4.4974,4.4162,4.3552,4.3204,4.3373,4.2876,4.1849,4.1219,4.0141,3.8709,3.7844,3.7118,3.6416,3.5474,3.5619,3.631,3.5223,3.4141,3.3051,3.1982,3.094,2.9994,2.9711,2.8471,2.6993,2.6796,2.5775,2.4535,2.4356,2.4453,2.4108,2.1643,1.9228,1.7254,1.7066,1.7179,1.723,1.6681,1.6804,1.6821,1.6446,1.6376,1.6454,1.6564,1.7715,1.8832,1.9396,1.9605,1.9744,1.9744,1.9744,1.9465,1.8692,1.8616,1.8552,1.8412,1.8406,1.8476,1.8616,1.8482,1.8207,1.7726,1.7449,1.7168,1.6875,1.7851,1.8686,1.9234,2.1577,2.2956,2.3236,2.4495,2.5127,2.5127,2.5127,2.5127,5.0095,5.0194,0.0,5.0302,5.0325,0.0,0.0,5.069,5.0801,5.1009,5.1129,5.1235,5.1335,5.1385,5.1406,5.14,5.1407,5.1367,5.1263,5.1135,5.1025,5.0966,5.0603,5.0312,5.0209,4.9641,4.908,4.8531,4.8115,4.7684,4.7165,4.7254,4.6989,4.6308,4.5657,4.5081,4.4614,4.3935,4.3432,4.3113,4.3193,4.2717,4.1689,4.127,4.0,3.8179,3.7923,3.7095,3.5875,3.5113,3.5126,3.5415,3.3822,3.2878,3.2286,3.1187,3.0099,2.9112,2.9112,2.7803,2.6146,2.6146,2.5234,2.411,2.4102,2.3642,2.2647,2.0436,1.846,1.6861,1.6159,1.605,1.6095,1.5803,1.5849,1.5894,1.559,1.563,1.5813,1.5852,1.6574,1.7441,1.8261,1.8697,1.8971,1.8971,1.8971,1.8692,1.7926,1.7861,1.7721,1.7369,1.7298,1.7439,1.7791,1.7504,1.7298,1.7308,1.6956,1.6603,1.6254,1.6875,1.7645,1.8406,2.0542,2.2052,2.2819,2.3584,2.4353,2.5127,2.5127,2.4984,0.0,0.0,0.0,0.0,0.0,5.0448,0.0,0.0,0.0,5.1121,5.1202,5.1277,5.1386,5.1406,5.1347,5.1184,5.1285,5.1269,5.0938,5.0922,5.0891,5.0786,5.044,5.0155,4.9993,4.9367,4.8621,4.7772,4.7642,4.7403,4.6934,4.6989,4.6695,4.5963,4.5372,4.4828,4.4207,4.3759,4.3295,4.2912,4.2919,4.2444,4.1549,4.1408,4.0077,3.7919,3.8197,3.7298,3.559,3.48,3.4483,3.4288,3.2376,3.1575,3.1483,3.0391,2.9386,2.8509,2.8223,2.692,2.5367,2.5141,2.4318,2.3474,2.3884,2.2631,2.0816,1.9419,1.7812,1.6338,1.5187,1.4866,1.4974,1.5068,1.5106,1.512,1.5157,1.5371,1.5522,1.567,1.5817,1.6207,1.7127,1.7791,1.8201,1.8201,1.8201,1.7926,1.7163,1.7097,1.6885,1.6254,1.6183,1.6461,1.7026,1.6537,1.6461,1.7026,1.6537,1.6183,1.6183,1.6183,1.6739,1.7921,1.9437,2.0743,2.1921,2.2127,2.3174,2.4984,2.4984,2.4781,0.0,0.0,0.0,0.0,5.0348,5.0424,5.0502,0.0,5.1002,5.1094,0.0,5.1384,5.1406,0.0,0.0,5.0364,5.0857,5.1037,5.0248,5.0487,5.0713,5.0632,5.0218,4.9828,4.9512,4.8708,4.7979,4.741,4.7363,4.7143,4.6661,4.6332,4.597,4.5658,4.4835,4.4248,4.3869,4.3399,4.282,4.2206,4.234,4.1909,4.0988,4.1115,4.0079,3.8263,3.8288,3.7522,3.6175,3.4215,3.34,3.325,3.2083,3.1575,3.1483,3.0391,2.9931,2.9606,2.8286,2.6997,2.5716,2.4479,2.3441,2.2819,2.3495,2.1609,1.9228,1.9036,1.7114,1.5122,1.4931,1.4866,1.4936,1.4959,1.4903,1.495,1.5129,1.5252,1.538,1.5822,1.5912,1.6207,1.7127,1.7379,1.7444,1.7444,1.7444,1.7168,1.6396,1.6325,1.632,1.6183,1.6183,1.6254,1.6325,1.6254,1.6254,1.6325,1.6254,1.6183,1.6183,1.6183,1.6249,1.6461,1.7921,1.8751,1.889,1.9849,2.1784,2.457,2.457,2.4367,0.0,0.0,0.0,0.0,0.0,0.0,5.0728,0.0,5.105,5.1247,0.0,0.0,0.0,0.0,0.0,0.0,5.1076,5.1068,5.053,5.0534,5.0567,5.0539,5.0159,4.9646,4.9001,4.8458,4.7879,4.7187,4.7138,4.6893,4.6416,4.591,4.5416,4.492,4.4112,4.3532,4.3094,4.2896,4.257,4.2109,4.1841,4.1441,4.0879,4.0014,3.8968,3.7741,3.7514,3.6838,3.5719,3.3754,3.2978,3.2778,3.0908,3.037,3.0526,2.9365,2.8392,2.7517,2.6218,2.4901,2.3584,2.2877,2.2624,2.264,2.2734,2.1562,2.0055,1.9228,1.7625,1.5959,1.5122,1.4866,1.4866,1.4866,1.4866,1.4889,1.504,1.5148,1.5285,1.546,1.5692,1.6029,1.6394,1.6591,1.6673,1.6673,1.6673,1.6532,1.6254,1.6183,1.6183,1.6183,1.6183,1.6183,1.6183,1.6183,1.6183,1.6183,1.6183,1.6183,1.6183,1.6183,1.6183,1.6183,1.681,1.7429,1.8045,1.8525,1.9559,2.1289,2.2346,2.3119,5.0139,5.0231,5.029,5.0367,5.0446,5.0566,5.0817,5.0959,0.0,5.1256,5.1342,0.0,0.0,0.0,5.132,5.1089,0.0,5.1025,5.0514,5.0466,5.0441,5.0306,4.9754,4.9113,4.8458,4.8078,4.7611,4.6939,4.6888,4.6637,4.6073,4.5442,4.4851,4.4266,4.3499,4.288,4.2459,4.2459,4.2285,4.1948,4.1785,4.1488,4.1116,3.9954,3.8873,3.7863,3.7329,3.6546,3.5466,3.356,3.2767,3.2465,3.0037,2.9185,2.9175,2.8295,2.7077,2.5691,2.4458,2.3095,2.1862,2.182,2.2141,2.2445,2.2018,2.1252,2.0246,1.8844,1.7496,1.6213,1.5187,1.4866,1.4866,1.4866,1.4866,1.4866,1.4866,1.4983,1.5101,1.5224,1.525,1.5445,1.5848,1.6037,1.6183,1.6183,1.6183,1.6183,1.6183,1.6183,1.6183,1.6183,1.6183,1.6183,1.6183,1.6183,1.6183,1.6183,1.6183,1.6183,1.6183,1.6183,1.6183,1.6037,1.6037,1.6381,1.6997,1.6926,1.7409,1.8374,2.0114,2.1308,5.0082,5.0158,5.0212,5.029,5.0393,5.0511,5.0502,5.0813,5.1079,0.0,0.0,5.1404,5.1399,0.0,0.0,0.0,5.0739,0.0,0.0,5.0098,5.0317,4.9798,4.8737,4.8003,4.7836,4.7345,4.6934,4.6637,4.6613,4.6308,4.5658,4.4848,4.4237,4.3839,4.3033,4.2476,4.2109,4.2109,4.1948,4.1637,4.2377,4.2406,4.179,4.1602,4.0661,3.9112,3.8166,3.7103,3.5835,3.3662,3.2666,3.2213,2.9995,2.8422,2.7492,2.7438,2.6653,2.5417,2.3933,2.2467,2.1313,2.2009,2.2229,2.2052,2.1319,2.017,1.878,1.7426,1.6019,1.4931,1.4931,1.4866,1.4866,1.4866,1.4866,1.4866,1.4866,1.4936,1.5002,1.5129,1.4454,1.4306,1.5686,1.6037,1.6183,1.6183,1.6183,1.6183,1.6183,1.6183,1.6183,1.6183,1.6183,1.6183,1.6183,1.6183,1.6183,1.6183,1.6183,1.6183,1.6183,1.6183,1.6037,1.5607,1.5607,1.5465,1.5119,1.4763,1.5385,1.6775,1.8304,1.8863,5.0158,5.0219,5.029,5.0393,5.0478,5.0545,5.0722,5.0907,5.107,5.1191,0.0,0.0,0.0,0.0,0.0,0.0,0.0,5.0689,0.0,4.9562,4.9008,4.874,4.8366,4.7983,4.7572,4.7226,4.6886,4.6613,4.635,4.5938,4.5311,4.4418,4.3702,4.3152,4.2349,4.1867,4.1785,4.1785,4.172,4.1604,4.1557,4.1608,4.1715,3.9937,3.9065,3.8814,3.7103,3.6121,3.556,3.3227,3.2213,3.1847,2.9471,2.7384,2.5663,2.6063,2.5333,2.3933,2.2467,2.1645,2.1247,2.1467,2.1213,2.0786,2.0496,1.9123,1.756,1.7103,1.6019,1.4866,1.4866,1.4866,1.4866,1.4866,1.4866,1.4866,1.4866,1.5153,1.5122,1.4245,1.4177,1.4106,1.3628,1.377,1.4177,1.4959,1.4391,1.4177,1.4959,1.5101,1.539,1.6108,1.6183,1.6183,1.6183,1.6183,1.6183,1.6183,1.6183,1.6183,1.6183,1.6183,1.6037,1.5607,1.5607,1.5323,1.4692,1.455,1.4613,1.4884,1.5372,1.663,5.0182,5.0255,5.0325,5.0446,5.05,5.0576,5.0745,5.0906,5.1043,5.1194,5.1326,0.0,0.0,0.0,0.0,0.0,0.0,0.0,0.0,4.9109,4.8197,4.7965,4.7763,4.7491,4.7075,4.6827,4.659,4.635,4.5912,4.5433,4.4794,4.3889,4.3136,4.2569,4.1916,4.1555,4.1489,4.1808,4.1834,4.1565,4.1448,4.1438,4.153,3.9086,3.8167,3.8456,3.6461,3.5572,3.5271,3.2939,3.1909,3.1553,2.9207,2.6844,2.4727,2.5122,2.4125,2.2459,2.1539,2.1211,2.119,2.0879,2.0488,1.9978,1.9198,1.8058,1.6931,1.6496,1.5628,1.495,1.5021,1.4917,1.4866,1.4866,1.4866,1.4866,1.4866,1.52,1.5062,1.3721,1.3608,1.3471,1.2585,1.1924,1.2029,1.3603,1.3178,1.2964,1.3745,1.3888,1.4173,1.4893,1.5319,1.5749,1.6183,1.6183,1.6112,1.5966,1.5966,1.5895,1.5758,1.5758,1.568,1.5385,1.5252,1.4967,1.4452,1.4327,1.4118,1.39,1.39,1.4955]}]]